[[{"header":{"parameterUnit":"m.s-1","parameterCategory":1,"la1":31.0,"la2":29.5877,"lo1":-88.7671,"lo2":-86.6584,"dy":0.0162,"dx":0.0185,"nx":115,"ny":88,"refTime":"2026-03-19T00:00:00:Z","depth":0,"parameterNumber":2,"parameterNumberName":"U-component_of_WINDS"},"data":[0.0,0.0,0.0,0.0,0.0,0.0,0.0,0.0,0.0,0.0,0.0,0.0,0.0,0.0,0.0,0.0,0.0,0.0,0.0,0.0,0.0,0.0,0.0,0.0,0.0,0.0,0.0,0.0,0.0,0.0,0.0,0.0,0.0,0.0,0.0,0.0,0.0,0.0,0.0,0.0,0.0,0.0,0.0,0.0,0.0,0.0,0.0,0.0,0.0,0.0,0.0,0.0,0.0,0.0,0.0,0.0,0.0,0.0,0.0,0.0,0.0,0.0,0.0,0.0,0.0,0.0,0.0,0.0,0.0,0.0,0.0,0.0,0.0,0.0,0.0,0.0,0.0,0.0,0.0,0.0,0.0,0.0,0.0,0.0,0.0,0.0,0.0,0.0,0.0,0.0,0.0,0.0,0.0,0.0,0.0,0.0,0.0,0.0,0.0,0.0,0.0,0.0,0.0,0.0,0.0,0.0,0.0,0.0,0.0,0.0,0.0,0.0,0.0,0.0,0.0,0.0,0.0,0.0,0.0,0.0,0.0,0.0,0.0,0.0,0.0,0.0,0.0,0.0,0.0,0.0,0.0,0.0,0.0,0.0,0.0,0.0,0.0,0.0,0.0,0.0,0.0,0.0,0.0,0.0,0.0,0.0,0.0,0.0,0.0,0.0,0.0,0.0,0.0,0.0,0.0,0.0,0.0,0.0,0.0,0.0,0.0,0.0,0.0,0.0,0.0,0.0,0.0,0.0,0.0,0.0,0.0,0.0,0.0,0.0,0.0,0.0,0.0,0.0,0.0,0.0,0.0,0.0,0.0,0.0,0.0,0.0,0.0,0.0,0.0,0.0,0.0,0.0,0.0,0.0,0.0,0.0,0.0,0.0,0.0,0.0,0.0,0.0,0.0,0.0,0.0,0.0,0.0,0.0,0.0,0.0,0.0,0.0,0.0,0.0,0.0,0.0,0.0,0.0,0.0,0.0,0.0,0.0,0.0,0.0,0.0,0.0,0.0,0.0,0.0,0.0,0.0,0.0,0.0,0.0,0.0,0.0,0.0,0.0,0.0,0.0,0.0,0.0,0.0,0.0,0.0,0.0,0.0,0.0,0.0,0.0,0.0,0.0,0.0,0.0,0.0,0.0,0.0,0.0,0.0,0.0,0.0,0.0,0.0,0.0,0.0,0.0,0.0,0.0,0.0,0.0,0.0,0.0,0.0,0.0,0.0,0.0,0.0,0.0,0.0,0.0,0.0,0.0,0.0,0.0,0.0,0.0,0.0,0.0,0.0,0.0,0.0,0.0,0.0,0.0,0.0,0.0,0.0,0.0,0.0,0.0,0.0,0.0,0.0,0.0,0.0,0.0,0.0,0.0,0.0,0.0,0.0,0.0,0.0,0.0,0.0,0.0,0.0,0.0,0.0,0.0,0.0,0.0,0.0,0.0,0.0,0.0,0.0,0.0,0.0,0.0,0.0,0.0,0.0,0.0,0.0,0.0,0.0,0.0,0.0,0.0,0.0,0.0,0.0,0.0,0.0,0.0,0.0,0.0,0.0,0.0,0.0,0.0,0.0,0.0,0.0,0.0,0.0,0.0,0.0,0.0,0.0,0.0,0.0,0.0,0.0,0.0,0.0,0.0,0.0,0.0,0.0,0.0,0.0,0.0,0.0,0.0,0.0,0.0,0.0,0.0,0.0,0.0,0.0,0.0,0.0,0.0,0.0,0.0,0.0,0.0,0.0,0.0,0.0,0.0,0.0,0.0,0.0,0.0,0.0,0.0,0.0,0.0,0.0,0.0,0.0,0.0,0.0,0.0,0.0,0.0,0.0,0.0,0.0,0.0,0.0,0.0,0.0,0.0,0.0,0.0,0.0,0.0,0.0,0.0,0.0,0.0,0.0,0.0,0.0,0.0,0.0,0.0,0.0,0.0,0.0,0.0,0.0,0.0,0.0,0.0,0.0,0.0,0.0,0.0,0.0,0.0,0.0,0.0,0.0,0.0,0.0,0.0,0.0,0.0,0.0,0.0,0.0,0.0,0.0,0.0,0.0,0.0,0.0,0.0,0.0,0.0,0.0,0.0,0.0,0.0,0.0,0.0,0.0,0.0,0.0,0.0,0.0,0.0,0.0,0.0,0.0,0.0,0.0,0.0,0.0,0.0,0.0,0.0,0.0,0.0,0.0,0.0,0.0,0.0,0.0,0.0,0.0,0.0,0.0,0.0,0.0,0.0,0.0,0.0,0.0,0.0,0.0,0.0,0.0,0.0,0.0,0.0,0.0,0.0,0.0,0.0,0.0,0.0,0.0,0.0,0.0,0.0,0.0,0.0,0.0,0.0,0.0,0.0,0.0,0.0,0.0,0.0,0.0,0.0,0.0,0.0,0.0,0.0,0.0,0.0,0.0,0.0,0.0,0.0,0.0,0.0,0.0,0.0,0.0,0.0,0.0,0.0,0.0,0.0,0.0,0.0,0.0,0.0,0.0,0.0,0.0,0.0,0.0,0.0,0.0,0.0,0.0,0.0,0.0,0.0,0.0,0.0,0.0,0.0,0.0,0.0,0.0,0.0,0.0,0.0,0.0,0.0,0.0,0.0,0.0,0.0,0.0,0.0,0.0,0.0,0.0,0.0,0.0,0.0,0.0,0.0,0.0,0.0,0.0,0.0,0.0,0.0,0.0,0.0,0.0,0.0,0.0,0.0,0.0,0.0,0.0,0.0,0.0,0.0,0.0,0.0,0.0,0.0,0.0,0.0,0.0,0.0,0.0,0.0,0.0,0.0,0.0,0.0,0.0,0.0,0.0,0.0,0.0,0.0,0.0,0.0,0.0,0.0,0.0,0.0,0.0,0.0,0.0,0.0,0.0,0.0,0.0,0.0,0.0,0.0,0.0,0.0,0.0,0.0,0.0,0.0,0.0,0.0,0.0,0.0,0.0,0.0,0.0,0.0,0.0,0.0,0.0,0.0,0.0,0.0,0.0,0.0,0.0,0.0,0.0,0.0,0.0,0.0,0.0,0.0,0.0,0.0,0.0,0.0,0.0,0.0,0.0,0.0,0.0,0.0,0.0,0.0,0.0,0.0,0.0,0.0,0.0,0.0,0.0,0.0,0.0,0.0,0.0,0.0,0.0,0.0,0.0,0.0,0.0,0.0,0.0,0.0,0.0,0.0,0.0,0.0,0.0,0.0,0.0,0.0,0.0,0.0,0.0,0.0,0.0,0.0,0.0,0.0,0.0,0.0,0.0,0.0,0.0,0.0,0.0,0.0,0.0,0.0,0.0,0.0,0.0,0.0,0.0,0.0,0.0,0.0,0.0,0.0,0.0,0.0,0.0,0.0,0.0,0.0,0.0,0.0,0.0,0.0,0.0,0.0,0.0,0.0,0.0,0.0,0.0,0.0,0.0,0.0,0.0,0.0,0.0,0.0,0.0,0.0,0.0,0.0,0.0,0.0,0.0,0.0,0.0,0.0,0.0,0.0,0.0,0.0,0.0,0.0,0.0,0.0,0.0,0.0,0.0,0.0,0.0,0.0,0.0,0.0,0.0,0.0,0.0,0.0,0.0,0.0,0.0,0.0,0.0,0.0,0.0,0.0,0.0,0.0,0.0,0.0,0.0,0.0,0.0,0.0,0.0,0.0,0.0,0.0,0.0,0.0,0.0,0.0,0.0,0.0,0.0,0.0,0.0,0.0,0.0,0.0,0.0,0.0,0.0,0.0,0.0,0.0,0.0,0.0,0.0,0.0,0.0,0.0,0.0,0.0,0.0,0.0,0.0,0.0,0.0,0.0,0.0,0.0,0.0,0.0,0.0,0.0,0.0,0.0,0.0,0.0,0.0,0.0,0.0,0.0,0.0,0.0,0.0,0.0,0.0,0.0,0.0,0.0,0.0,0.0,0.0,0.0,0.0,0.0,0.0,0.0,0.0,0.0,0.0,0.0,0.0,0.0,0.0,0.0,0.0,0.0,0.0,0.0,0.0,0.0,0.0,0.0,0.0,0.0,0.0,0.0,0.0,0.0,0.0,0.0,0.0,0.0,0.0,0.0,0.0,0.0,0.0,0.0,0.0,0.0,0.0,0.0,0.0,0.0,0.0,0.0,0.0,0.0,0.0,0.0,0.0,0.0,0.0,0.0,0.0,0.0,0.0,0.0,0.0,0.0,0.0,0.0,0.0,0.0,0.0,0.0,0.0,0.0,0.0,0.0,0.0,0.0,0.0,0.0,0.0,0.0,0.0,0.0,0.0,0.0,0.0,0.0,0.0,0.0,0.0,0.0,0.0,0.0,-2.4784,0.0,0.0,0.0,0.0,0.0,0.0,0.0,0.0,0.0,0.0,0.0,0.0,0.0,0.0,0.0,0.0,0.0,0.0,0.0,0.0,0.0,0.0,0.0,0.0,0.0,0.0,0.0,0.0,0.0,0.0,0.0,0.0,0.0,0.0,0.0,0.0,0.0,0.0,0.0,0.0,0.0,0.0,0.0,0.0,0.0,0.0,0.0,0.0,0.0,0.0,0.0,0.0,0.0,0.0,0.0,0.0,0.0,0.0,0.0,0.0,0.0,0.0,0.0,0.0,0.0,0.0,0.0,0.0,0.0,0.0,0.0,0.0,0.0,0.0,0.0,0.0,0.0,0.0,0.0,0.0,0.0,0.0,0.0,0.0,0.0,0.0,0.0,0.0,0.0,0.0,0.0,0.0,0.0,0.0,0.0,0.0,0.0,0.0,0.0,0.0,0.0,0.0,0.0,0.0,0.0,0.0,0.0,0.0,0.0,0.0,-2.773,-2.7868,-2.8365,-2.7621,-2.5573,0.0,0.0,0.0,0.0,0.0,0.0,0.0,0.0,0.0,0.0,0.0,0.0,0.0,0.0,0.0,0.0,0.0,0.0,0.0,0.0,0.0,0.0,0.0,0.0,0.0,0.0,0.0,0.0,0.0,0.0,0.0,0.0,0.0,0.0,0.0,0.0,0.0,0.0,0.0,0.0,0.0,0.0,0.0,0.0,0.0,0.0,0.0,0.0,0.0,0.0,0.0,0.0,0.0,0.0,0.0,0.0,0.0,0.0,0.0,0.0,0.0,0.0,0.0,0.0,0.0,0.0,0.0,0.0,0.0,0.0,0.0,0.0,0.0,0.0,0.0,0.0,0.0,0.0,0.0,0.0,0.0,0.0,0.0,0.0,0.0,0.0,0.0,0.0,0.0,0.0,0.0,0.0,0.0,0.0,0.0,0.0,0.0,0.0,0.0,0.0,0.0,0.0,0.0,0.0,0.0,0.0,0.0,0.0,0.0,0.0,0.0,0.0,-2.9714,-2.8906,-2.6478,0.0,0.0,0.0,0.0,0.0,0.0,0.0,0.0,0.0,0.0,0.0,0.0,0.0,0.0,0.0,0.0,0.0,0.0,0.0,0.0,0.0,0.0,0.0,0.0,0.0,0.0,0.0,0.0,0.0,0.0,0.0,0.0,0.0,0.0,0.0,0.0,0.0,0.0,0.0,0.0,0.0,0.0,0.0,0.0,0.0,0.0,0.0,0.0,0.0,0.0,0.0,0.0,0.0,0.0,0.0,0.0,0.0,0.0,0.0,0.0,0.0,0.0,0.0,0.0,0.0,0.0,0.0,0.0,0.0,0.0,0.0,0.0,0.0,0.0,0.0,0.0,0.0,0.0,0.0,0.0,0.0,0.0,0.0,0.0,0.0,0.0,0.0,0.0,0.0,0.0,0.0,0.0,0.0,0.0,0.0,0.0,0.0,0.0,0.0,0.0,0.0,0.0,0.0,0.0,0.0,0.0,0.0,0.0,0.0,0.0,-2.8994,-2.9002,-2.9808,0.0,-2.728,0.0,0.0,0.0,0.0,0.0,0.0,0.0,0.0,0.0,0.0,0.0,0.0,0.0,0.0,0.0,0.0,0.0,0.0,0.0,0.0,0.0,0.0,0.0,0.0,0.0,0.0,0.0,0.0,0.0,0.0,0.0,0.0,0.0,0.0,0.0,0.0,0.0,0.0,0.0,0.0,0.0,0.0,0.0,0.0,0.0,0.0,0.0,0.0,0.0,0.0,0.0,0.0,0.0,0.0,0.0,0.0,0.0,0.0,0.0,0.0,0.0,0.0,0.0,0.0,0.0,0.0,0.0,0.0,0.0,0.0,0.0,0.0,0.0,0.0,0.0,0.0,0.0,0.0,0.0,0.0,0.0,0.0,0.0,0.0,0.0,0.0,0.0,0.0,0.0,0.0,0.0,0.0,0.0,0.0,0.0,0.0,0.0,0.0,0.0,0.0,0.0,0.0,0.0,0.0,0.0,0.0,0.0,0.0,0.0,0.0,-3.0368,-3.0464,-2.9652,-2.8582,0.0,0.0,0.0,0.0,0.0,0.0,0.0,0.0,0.0,0.0,0.0,0.0,0.0,0.0,0.0,0.0,0.0,0.0,0.0,0.0,0.0,0.0,0.0,0.0,0.0,0.0,0.0,0.0,0.0,0.0,0.0,0.0,0.0,0.0,0.0,0.0,0.0,0.0,0.0,0.0,0.0,0.0,0.0,0.0,0.0,0.0,0.0,0.0,0.0,0.0,0.0,0.0,0.0,0.0,0.0,0.0,0.0,0.0,0.0,0.0,0.0,0.0,0.0,0.0,0.0,0.0,0.0,0.0,0.0,0.0,0.0,0.0,0.0,0.0,0.0,0.0,0.0,0.0,0.0,0.0,0.0,0.0,0.0,0.0,0.0,0.0,0.0,0.0,0.0,0.0,0.0,0.0,0.0,0.0,0.0,0.0,0.0,0.0,0.0,0.0,0.0,0.0,0.0,0.0,0.0,0.0,0.0,0.0,0.0,0.0,-3.1081,-3.1366,-3.1409,-3.0043,-2.8756,-2.7636,0.0,0.0,0.0,0.0,0.0,0.0,0.0,0.0,0.0,0.0,0.0,0.0,0.0,0.0,0.0,0.0,0.0,0.0,0.0,0.0,0.0,0.0,0.0,0.0,0.0,0.0,0.0,0.0,0.0,0.0,0.0,0.0,0.0,0.0,0.0,0.0,0.0,0.0,0.0,0.0,0.0,0.0,0.0,0.0,0.0,0.0,0.0,0.0,0.0,0.0,0.0,0.0,0.0,0.0,0.0,0.0,0.0,0.0,0.0,0.0,0.0,0.0,0.0,0.0,0.0,0.0,0.0,0.0,0.0,0.0,0.0,0.0,0.0,0.0,0.0,0.0,0.0,0.0,0.0,0.0,0.0,0.0,0.0,0.0,0.0,0.0,0.0,0.0,0.0,0.0,0.0,0.0,0.0,0.0,0.0,0.0,0.0,0.0,0.0,0.0,0.0,0.0,0.0,0.0,0.0,0.0,0.0,0.0,-3.1394,-3.1439,-3.1497,-3.1467,-3.1407,-3.0408,0.0,0.0,0.0,0.0,0.0,0.0,0.0,0.0,0.0,0.0,0.0,0.0,0.0,0.0,0.0,0.0,0.0,0.0,0.0,0.0,0.0,0.0,0.0,0.0,0.0,0.0,0.0,0.0,0.0,0.0,0.0,0.0,0.0,0.0,0.0,0.0,0.0,0.0,0.0,0.0,0.0,0.0,0.0,0.0,0.0,0.0,0.0,0.0,0.0,0.0,0.0,0.0,0.0,0.0,0.0,0.0,0.0,0.0,0.0,0.0,0.0,0.0,0.0,0.0,0.0,0.0,0.0,0.0,0.0,0.0,0.0,0.0,0.0,0.0,0.0,0.0,0.0,0.0,0.0,0.0,0.0,0.0,0.0,0.0,0.0,0.0,0.0,0.0,0.0,0.0,0.0,0.0,0.0,0.0,0.0,0.0,0.0,0.0,0.0,0.0,0.0,0.0,0.0,0.0,0.0,0.0,0.0,0.0,0.0,-3.1467,-3.1467,-3.1467,-3.1452,-3.0731,-2.9681,0.0,0.0,0.0,0.0,0.0,0.0,0.0,0.0,0.0,0.0,0.0,0.0,0.0,0.0,0.0,0.0,0.0,0.0,0.0,0.0,0.0,0.0,0.0,0.0,0.0,0.0,0.0,0.0,0.0,0.0,0.0,0.0,0.0,0.0,0.0,0.0,0.0,0.0,0.0,0.0,0.0,0.0,0.0,0.0,0.0,0.0,0.0,0.0,0.0,0.0,0.0,0.0,0.0,0.0,0.0,0.0,0.0,0.0,0.0,0.0,0.0,0.0,0.0,0.0,0.0,0.0,0.0,0.0,0.0,0.0,0.0,0.0,0.0,0.0,0.0,0.0,0.0,0.0,0.0,0.0,0.0,0.0,0.0,0.0,0.0,0.0,0.0,0.0,0.0,0.0,0.0,0.0,0.0,0.0,0.0,0.0,0.0,0.0,0.0,0.0,0.0,0.0,0.0,0.0,0.0,0.0,0.0,0.0,0.0,-3.1467,0.0,-3.1467,-3.1437,-3.0462,-2.954,0.0,0.0,0.0,0.0,0.0,0.0,0.0,0.0,0.0,0.0,0.0,0.0,0.0,0.0,0.0,0.0,0.0,0.0,0.0,0.0,0.0,0.0,0.0,0.0,0.0,0.0,0.0,0.0,0.0,0.0,0.0,0.0,0.0,0.0,0.0,0.0,0.0,0.0,0.0,0.0,0.0,0.0,0.0,0.0,0.0,0.0,0.0,0.0,0.0,0.0,0.0,0.0,0.0,0.0,0.0,0.0,0.0,0.0,0.0,0.0,0.0,0.0,0.0,0.0,0.0,0.0,0.0,0.0,0.0,0.0,0.0,0.0,0.0,0.0,0.0,0.0,0.0,0.0,0.0,0.0,0.0,0.0,0.0,0.0,0.0,0.0,0.0,0.0,0.0,0.0,0.0,0.0,0.0,0.0,0.0,0.0,0.0,0.0,0.0,0.0,0.0,0.0,0.0,0.0,0.0,0.0,0.0,0.0,-3.1467,-3.1467,-3.1467,-3.1539,-3.1482,-3.0851,-3.0208,0.0,0.0,0.0,0.0,0.0,0.0,0.0,0.0,0.0,0.0,0.0,0.0,0.0,0.0,0.0,0.0,0.0,0.0,0.0,0.0,0.0,0.0,0.0,0.0,0.0,0.0,0.0,0.0,0.0,0.0,0.0,0.0,0.0,0.0,0.0,0.0,0.0,0.0,0.0,0.0,0.0,0.0,0.0,0.0,0.0,0.0,0.0,0.0,0.0,0.0,0.0,0.0,0.0,0.0,0.0,0.0,0.0,0.0,0.0,0.0,0.0,0.0,0.0,0.0,0.0,0.0,0.0,0.0,0.0,0.0,0.0,0.0,0.0,0.0,0.0,0.0,0.0,0.0,0.0,0.0,0.0,0.0,0.0,0.0,0.0,0.0,0.0,0.0,0.0,0.0,0.0,0.0,0.0,0.0,0.0,0.0,0.0,0.0,0.0,0.0,0.0,0.0,0.0,0.0,0.0,0.0,0.0,0.0,0.0,-3.1467,-3.1467,-3.1691,-3.2153,-3.1106,-3.0627,0.0,0.0,0.0,0.0,0.0,0.0,0.0,0.0,0.0,0.0,0.0,0.0,0.0,0.0,0.0,0.0,0.0,0.0,0.0,0.0,0.0,0.0,0.0,0.0,0.0,0.0,0.0,0.0,0.0,0.0,0.0,0.0,0.0,0.0,0.0,0.0,0.0,0.0,0.0,0.0,0.0,0.0,0.0,0.0,0.0,0.0,0.0,0.0,0.0,0.0,0.0,0.0,0.0,0.0,0.0,0.0,0.0,0.0,0.0,0.0,0.0,0.0,0.0,0.0,0.0,0.0,0.0,0.0,0.0,0.0,0.0,0.0,0.0,0.0,0.0,0.0,0.0,0.0,0.0,0.0,0.0,0.0,0.0,0.0,0.0,0.0,0.0,0.0,0.0,0.0,0.0,0.0,0.0,0.0,0.0,0.0,0.0,0.0,0.0,0.0,0.0,0.0,0.0,0.0,0.0,0.0,0.0,0.0,0.0,-3.1898,-3.1898,-3.2108,-3.2512,-3.1465,-3.0971,-3.112,0.0,0.0,0.0,0.0,0.0,0.0,0.0,0.0,0.0,0.0,0.0,0.0,0.0,0.0,0.0,0.0,0.0,0.0,0.0,0.0,0.0,0.0,0.0,0.0,0.0,0.0,0.0,0.0,0.0,0.0,0.0,0.0,0.0,0.0,0.0,0.0,0.0,0.0,0.0,0.0,0.0,0.0,0.0,0.0,0.0,0.0,0.0,0.0,0.0,0.0,0.0,0.0,0.0,0.0,0.0,0.0,0.0,0.0,0.0,0.0,0.0,0.0,0.0,0.0,0.0,0.0,0.0,0.0,0.0,0.0,0.0,0.0,0.0,0.0,0.0,0.0,0.0,0.0,0.0,0.0,0.0,0.0,0.0,0.0,0.0,0.0,0.0,0.0,0.0,0.0,0.0,0.0,0.0,0.0,0.0,0.0,0.0,0.0,0.0,0.0,0.0,0.0,0.0,0.0,0.0,0.0,0.0,0.0,-3.2602,-3.2617,-3.2632,-3.2647,-3.19,-3.1285,0.0,0.0,0.0,0.0,0.0,0.0,0.0,0.0,0.0,0.0,0.0,0.0,0.0,0.0,0.0,0.0,0.0,0.0,0.0,0.0,0.0,0.0,0.0,0.0,0.0,0.0,0.0,0.0,0.0,0.0,0.0,0.0,0.0,0.0,0.0,0.0,0.0,0.0,0.0,0.0,0.0,0.0,0.0,0.0,0.0,0.0,0.0,0.0,0.0,0.0,0.0,0.0,0.0,0.0,0.0,0.0,0.0,0.0,0.0,0.0,0.0,0.0,0.0,0.0,0.0,0.0,0.0,0.0,0.0,0.0,0.0,0.0,0.0,0.0,0.0,0.0,0.0,0.0,0.0,0.0,0.0,0.0,0.0,0.0,0.0,0.0,0.0,0.0,0.0,0.0,0.0,0.0,0.0,0.0,0.0,0.0,0.0,0.0,0.0,0.0,0.0,0.0,0.0,0.0,0.0,0.0,0.0,0.0,0.0,-3.3903,-3.3963,-3.3963,-3.3933,-3.2856,-3.2407,0.0,0.0,0.0,0.0,0.0,0.0,0.0,0.0,0.0,0.0,0.0,0.0,0.0,0.0,0.0,0.0,0.0,0.0,0.0,0.0,0.0,0.0,0.0,0.0,0.0,0.0,0.0,0.0,0.0,0.0,0.0,0.0,0.0,0.0,0.0,0.0,0.0,0.0,0.0,0.0,0.0,0.0,0.0,0.0,0.0,0.0,0.0,0.0,0.0,0.0,0.0,0.0,0.0,0.0,0.0,0.0,0.0,0.0,0.0,0.0,0.0,0.0,0.0,0.0,0.0,0.0,0.0,0.0,0.0,0.0,0.0,0.0,0.0,0.0,0.0,0.0,0.0,0.0,0.0,0.0,0.0,0.0,0.0,0.0,0.0,0.0,0.0,0.0,0.0,0.0,0.0,0.0,0.0,0.0,0.0,0.0,0.0,0.0,0.0,0.0,0.0,0.0,0.0,0.0,0.0,0.0,0.0,0.0,-3.3021,-3.4038,-3.4322,-3.4622,-3.4906,-3.3888,-3.3245,0.0,0.0,0.0,0.0,0.0,0.0,0.0,0.0,0.0,0.0,0.0,0.0,0.0,0.0,0.0,0.0,0.0,0.0,0.0,0.0,0.0,0.0,0.0,0.0,0.0,0.0,0.0,0.0,0.0,0.0,0.0,0.0,0.0,0.0,0.0,0.0,0.0,0.0,0.0,0.0,0.0,0.0,0.0,0.0,0.0,0.0,0.0,0.0,0.0,0.0,0.0,0.0,0.0,0.0,0.0,0.0,0.0,0.0,0.0,0.0,0.0,0.0,0.0,0.0,0.0,0.0,0.0,0.0,0.0,0.0,0.0,0.0,0.0,0.0,0.0,0.0,0.0,0.0,0.0,0.0,0.0,0.0,0.0,0.0,0.0,0.0,0.0,0.0,0.0,0.0,0.0,0.0,0.0,0.0,0.0,0.0,0.0,0.0,0.0,0.0,0.0,0.0,0.0,0.0,0.0,0.0,0.0,0.0,-3.2976,-3.3709,-3.4337,-3.4981,-3.5549,-3.4816,-3.3829,0.0,0.0,0.0,0.0,0.0,0.0,0.0,0.0,0.0,0.0,0.0,0.0,0.0,0.0,0.0,0.0,0.0,0.0,0.0,0.0,0.0,0.0,0.0,0.0,0.0,0.0,0.0,0.0,0.0,0.0,0.0,0.0,0.0,0.0,0.0,0.0,0.0,0.0,0.0,0.0,0.0,0.0,0.0,0.0,0.0,0.0,0.0,0.0,0.0,0.0,0.0,0.0,0.0,0.0,0.0,0.0,0.0,0.0,0.0,0.0,0.0,0.0,0.0,0.0,0.0,0.0,0.0,0.0,0.0,0.0,0.0,0.0,0.0,0.0,0.0,0.0,0.0,0.0,0.0,0.0,0.0,0.0,0.0,0.0,0.0,0.0,0.0,0.0,0.0,0.0,0.0,0.0,0.0,0.0,0.0,0.0,0.0,0.0,0.0,0.0,0.0,0.0,0.0,0.0,0.0,0.0,0.0,0.0,-3.3858,-3.5055,-3.5714,-3.6133,-3.6267,-3.4607,-3.3574,0.0,0.0,0.0,0.0,0.0,0.0,0.0,0.0,0.0,0.0,0.0,0.0,0.0,0.0,0.0,0.0,0.0,0.0,0.0,0.0,0.0,0.0,0.0,0.0,0.0,0.0,0.0,0.0,0.0,0.0,0.0,0.0,0.0,0.0,0.0,0.0,0.0,0.0,0.0,0.0,0.0,0.0,0.0,0.0,0.0,0.0,0.0,0.0,-2.8047,0.0,0.0,0.0,0.0,0.0,0.0,0.0,0.0,0.0,0.0,0.0,0.0,0.0,0.0,0.0,0.0,0.0,0.0,0.0,0.0,0.0,0.0,0.0,0.0,0.0,0.0,0.0,0.0,0.0,0.0,0.0,0.0,0.0,0.0,0.0,0.0,0.0,0.0,0.0,0.0,0.0,0.0,0.0,0.0,0.0,0.0,0.0,0.0,0.0,0.0,0.0,0.0,0.0,0.0,0.0,0.0,0.0,0.0,0.0,-3.4307,-3.5011,-3.5983,-3.6492,-3.6432,-3.516,-3.4292,0.0,0.0,0.0,0.0,0.0,0.0,0.0,0.0,0.0,0.0,0.0,0.0,0.0,0.0,0.0,0.0,0.0,0.0,0.0,0.0,0.0,0.0,0.0,0.0,0.0,0.0,0.0,0.0,0.0,0.0,0.0,0.0,0.0,0.0,0.0,0.0,0.0,0.0,0.0,0.0,0.0,0.0,0.0,0.0,0.0,0.0,0.0,0.0,0.0,0.0,0.0,0.0,0.0,0.0,0.0,0.0,0.0,0.0,0.0,0.0,0.0,0.0,0.0,0.0,0.0,0.0,0.0,0.0,0.0,0.0,0.0,0.0,0.0,0.0,0.0,0.0,0.0,0.0,0.0,0.0,0.0,0.0,0.0,0.0,0.0,0.0,0.0,0.0,0.0,0.0,0.0,0.0,0.0,0.0,0.0,0.0,0.0,0.0,0.0,0.0,0.0,0.0,0.0,0.0,0.0,0.0,0.0,-3.3903,-3.4577,-3.4816,-3.6088,-3.6776,-3.6761,-3.6148,-3.5429,-3.4666,0.0,0.0,0.0,0.0,0.0,0.0,0.0,0.0,0.0,0.0,0.0,0.0,0.0,0.0,0.0,0.0,0.0,0.0,0.0,0.0,0.0,0.0,0.0,0.0,0.0,0.0,0.0,0.0,0.0,0.0,0.0,0.0,0.0,0.0,0.0,0.0,0.0,0.0,-2.757,-2.8411,0.0,0.0,0.0,0.0,0.0,0.0,0.0,0.0,-2.9688,0.0,0.0,0.0,0.0,0.0,0.0,0.0,0.0,0.0,0.0,0.0,0.0,0.0,0.0,0.0,0.0,0.0,0.0,0.0,0.0,0.0,0.0,0.0,0.0,0.0,0.0,0.0,0.0,0.0,0.0,0.0,0.0,0.0,0.0,0.0,0.0,0.0,0.0,0.0,0.0,0.0,0.0,0.0,0.0,0.0,0.0,0.0,0.0,0.0,0.0,0.0,0.0,0.0,0.0,0.0,0.0,-3.4143,-3.4367,-3.5026,-3.6148,-3.7419,-3.8093,-3.8063,-3.7434,-3.6552,-3.537,0.0,0.0,0.0,0.0,0.0,0.0,0.0,0.0,0.0,0.0,0.0,0.0,0.0,0.0,0.0,0.0,0.0,0.0,0.0,0.0,0.0,0.0,0.0,0.0,0.0,0.0,0.0,0.0,0.0,0.0,0.0,0.0,0.0,0.0,0.0,0.0,0.0,0.0,0.0,-2.9126,-2.9264,0.0,0.0,0.0,0.0,0.0,0.0,0.0,0.0,-2.9855,0.0,0.0,0.0,0.0,0.0,0.0,0.0,0.0,0.0,0.0,0.0,0.0,0.0,0.0,0.0,0.0,0.0,0.0,0.0,0.0,0.0,0.0,0.0,0.0,0.0,0.0,0.0,0.0,0.0,0.0,0.0,0.0,0.0,0.0,0.0,0.0,0.0,0.0,0.0,0.0,0.0,0.0,0.0,0.0,0.0,0.0,0.0,0.0,0.0,0.0,0.0,0.0,0.0,0.0,0.0,-3.4442,-3.516,-3.5983,-3.6956,-3.7898,-3.8377,-3.8362,-3.7449,-3.641,0.0,0.0,0.0,0.0,0.0,0.0,0.0,0.0,0.0,0.0,0.0,0.0,0.0,0.0,0.0,0.0,0.0,0.0,0.0,0.0,0.0,0.0,0.0,0.0,0.0,0.0,0.0,0.0,0.0,0.0,0.0,0.0,0.0,0.0,0.0,0.0,0.0,0.0,0.0,0.0,-2.9792,-2.9892,-3.0156,0.0,0.0,0.0,0.0,0.0,0.0,-3.0499,-3.0677,0.0,0.0,0.0,0.0,0.0,0.0,0.0,0.0,0.0,0.0,0.0,0.0,0.0,0.0,0.0,0.0,0.0,0.0,0.0,0.0,0.0,0.0,0.0,0.0,0.0,0.0,0.0,0.0,0.0,0.0,0.0,0.0,0.0,0.0,0.0,0.0,0.0,0.0,0.0,0.0,0.0,0.0,0.0,0.0,0.0,0.0,0.0,0.0,0.0,0.0,0.0,0.0,0.0,0.0,0.0,-3.4487,-3.5804,-3.6851,-3.7599,-3.8257,-3.8516,-3.8258,-3.704,-3.58,0.0,0.0,0.0,0.0,0.0,0.0,0.0,0.0,0.0,0.0,0.0,0.0,0.0,0.0,0.0,0.0,0.0,0.0,0.0,0.0,0.0,0.0,0.0,0.0,0.0,0.0,0.0,0.0,0.0,0.0,0.0,0.0,0.0,0.0,0.0,0.0,0.0,0.0,0.0,0.0,0.0,-3.057,-3.003,-2.9593,0.0,0.0,0.0,0.0,-3.0619,-3.1258,0.0,0.0,0.0,0.0,0.0,0.0,0.0,0.0,0.0,0.0,0.0,0.0,0.0,0.0,0.0,0.0,0.0,0.0,0.0,0.0,0.0,0.0,0.0,0.0,0.0,0.0,0.0,0.0,0.0,0.0,0.0,0.0,0.0,0.0,0.0,0.0,0.0,0.0,0.0,0.0,0.0,0.0,0.0,0.0,0.0,0.0,0.0,0.0,0.0,0.0,0.0,0.0,0.0,0.0,0.0,0.0,-3.4472,-3.5804,-3.706,-3.8242,-3.8945,-3.8825,-3.7864,-3.6693,-3.5039,0.0,0.0,0.0,0.0,0.0,0.0,0.0,0.0,0.0,0.0,0.0,0.0,0.0,0.0,0.0,0.0,0.0,0.0,0.0,0.0,0.0,0.0,0.0,0.0,0.0,0.0,0.0,0.0,0.0,0.0,0.0,0.0,0.0,0.0,0.0,0.0,0.0,0.0,0.0,0.0,0.0,-3.111,-3.0595,-3.0739,-3.0641,0.0,0.0,-3.1198,-3.1876,-3.1879,0.0,0.0,0.0,0.0,0.0,0.0,0.0,0.0,0.0,0.0,0.0,0.0,0.0,0.0,0.0,0.0,0.0,0.0,0.0,0.0,0.0,0.0,0.0,0.0,0.0,0.0,0.0,0.0,0.0,0.0,0.0,0.0,0.0,0.0,0.0,0.0,0.0,0.0,0.0,0.0,0.0,0.0,0.0,0.0,0.0,0.0,0.0,0.0,0.0,0.0,0.0,0.0,0.0,0.0,0.0,-3.1806,-3.3393,-3.4652,-3.5898,-3.7086,-3.7415,-3.7405,-3.6916,-3.5381,-3.3876,0.0,0.0,0.0,0.0,0.0,0.0,0.0,0.0,0.0,0.0,0.0,0.0,0.0,0.0,0.0,0.0,0.0,0.0,0.0,0.0,0.0,0.0,0.0,0.0,0.0,0.0,0.0,0.0,0.0,0.0,0.0,0.0,0.0,0.0,0.0,0.0,0.0,0.0,0.0,0.0,0.0,0.0,-3.1047,-3.1384,0.0,0.0,0.0,-3.2305,-3.4094,0.0,0.0,0.0,0.0,0.0,0.0,0.0,0.0,0.0,0.0,0.0,0.0,0.0,0.0,0.0,0.0,0.0,0.0,0.0,0.0,0.0,0.0,0.0,0.0,0.0,0.0,0.0,0.0,0.0,0.0,0.0,0.0,0.0,0.0,0.0,0.0,0.0,0.0,0.0,0.0,0.0,0.0,0.0,0.0,0.0,0.0,0.0,0.0,0.0,0.0,0.0,0.0,0.0,0.0,0.0,0.0,0.0,-3.2593,-3.3795,-3.4982,-3.6156,-3.6198,-3.5971,-3.5568,-3.4148,0.0,0.0,0.0,0.0,0.0,0.0,0.0,0.0,0.0,0.0,0.0,0.0,0.0,0.0,0.0,0.0,0.0,0.0,0.0,0.0,0.0,0.0,0.0,0.0,0.0,0.0,0.0,-1.8095,0.0,0.0,0.0,0.0,0.0,0.0,0.0,0.0,0.0,0.0,0.0,0.0,0.0,0.0,-3.0896,-3.116,-3.19,-3.2489,0.0,0.0,-3.2991,-3.478,-3.3426,-3.2345,0.0,0.0,0.0,0.0,0.0,0.0,0.0,0.0,0.0,0.0,0.0,0.0,0.0,0.0,0.0,0.0,0.0,0.0,0.0,0.0,0.0,0.0,0.0,0.0,0.0,0.0,0.0,0.0,0.0,0.0,0.0,0.0,0.0,0.0,0.0,0.0,0.0,0.0,0.0,0.0,0.0,0.0,0.0,0.0,0.0,0.0,0.0,0.0,0.0,0.0,0.0,0.0,0.0,0.0,0.0,-3.2593,-3.3781,-3.4982,-3.6142,-3.6198,-3.5462,-3.398,-3.3357,-3.1823,0.0,0.0,0.0,0.0,0.0,0.0,0.0,0.0,0.0,0.0,0.0,0.0,0.0,0.0,0.0,0.0,0.0,0.0,0.0,0.0,0.0,0.0,0.0,0.0,0.0,0.0,0.0,0.0,0.0,0.0,0.0,0.0,0.0,0.0,0.0,0.0,0.0,0.0,0.0,0.0,0.0,-3.1185,-3.0733,-3.2352,-3.331,0.0,-3.301,-3.331,-3.2625,-3.2807,-3.2559,-3.1086,0.0,0.0,0.0,0.0,0.0,0.0,0.0,0.0,0.0,0.0,0.0,0.0,0.0,0.0,0.0,0.0,0.0,0.0,0.0,0.0,0.0,0.0,0.0,0.0,0.0,0.0,0.0,0.0,0.0,0.0,0.0,0.0,0.0,0.0,0.0,0.0,0.0,0.0,0.0,0.0,0.0,0.0,0.0,0.0,0.0,0.0,0.0,0.0,0.0,0.0,0.0,0.0,0.0,-2.9336,-3.0846,-3.1941,-3.3075,-3.4184,-3.4249,-3.3822,-3.2854,-3.2303,-3.107,0.0,0.0,0.0,0.0,0.0,0.0,0.0,0.0,0.0,0.0,0.0,0.0,0.0,0.0,0.0,0.0,0.0,0.0,0.0,0.0,0.0,0.0,0.0,0.0,0.0,0.0,0.0,0.0,-2.0027,-2.0665,-2.2855,0.0,0.0,0.0,0.0,0.0,0.0,0.0,0.0,0.0,0.0,-3.1072,-3.1524,-3.283,0.0,0.0,-3.4018,-3.432,-3.4606,-3.3475,-3.2453,-3.2094,-3.0828,0.0,0.0,0.0,0.0,0.0,0.0,0.0,0.0,0.0,0.0,0.0,0.0,0.0,0.0,0.0,0.0,0.0,0.0,0.0,0.0,0.0,0.0,0.0,0.0,0.0,0.0,0.0,0.0,0.0,0.0,0.0,0.0,0.0,0.0,0.0,0.0,0.0,0.0,0.0,0.0,0.0,0.0,0.0,0.0,0.0,0.0,0.0,0.0,0.0,0.0,0.0,0.0,-2.8662,-2.9779,-3.0846,-3.1951,-3.3056,-3.3081,-3.2805,-3.2227,-3.1675,-3.0608,0.0,0.0,0.0,0.0,0.0,0.0,0.0,0.0,0.0,0.0,0.0,0.0,0.0,0.0,0.0,0.0,0.0,0.0,0.0,0.0,0.0,0.0,0.0,0.0,0.0,0.0,0.0,0.0,-2.0268,-2.1083,-2.3386,0.0,0.0,0.0,0.0,0.0,0.0,0.0,0.0,0.0,0.0,-3.0997,-3.2064,-3.2925,-3.3654,-3.4139,-3.4121,-3.4345,-3.5116,-3.3662,-3.2516,-3.2745,0.0,0.0,0.0,0.0,0.0,0.0,0.0,0.0,0.0,0.0,0.0,0.0,0.0,0.0,0.0,0.0,0.0,0.0,0.0,0.0,0.0,0.0,0.0,0.0,0.0,0.0,0.0,-2.6559,0.0,0.0,-2.6521,0.0,0.0,0.0,0.0,0.0,0.0,0.0,0.0,0.0,0.0,0.0,0.0,0.0,0.0,0.0,0.0,0.0,0.0,0.0,0.0,0.0,0.0,-2.8662,-2.9779,-3.0846,-3.1938,-3.3043,-3.3081,-3.2792,-3.2227,-3.1675,-3.0608,-2.895,0.0,0.0,0.0,0.0,0.0,0.0,0.0,0.0,0.0,0.0,0.0,0.0,0.0,0.0,0.0,0.0,0.0,0.0,0.0,0.0,0.0,0.0,0.0,0.0,0.0,0.0,-1.9968,-1.9615,-2.0145,0.0,0.0,0.0,0.0,0.0,0.0,0.0,0.0,0.0,0.0,-3.0256,-3.1009,-3.2077,-3.2704,-3.3129,-3.3167,-3.3167,-3.3167,-3.3265,-3.3142,-3.2867,0.0,0.0,0.0,0.0,0.0,0.0,0.0,0.0,0.0,0.0,0.0,0.0,0.0,0.0,0.0,0.0,0.0,0.0,0.0,0.0,0.0,0.0,0.0,0.0,0.0,0.0,0.0,-2.7017,-2.7005,0.0,0.0,0.0,0.0,0.0,0.0,0.0,0.0,0.0,0.0,0.0,-2.8122,-2.8473,0.0,0.0,0.0,0.0,0.0,0.0,0.0,0.0,0.0,0.0,0.0,0.0,-2.8662,-2.9779,-3.0846,-3.1938,-3.3031,-3.3081,-3.2805,-3.2227,-3.1675,-3.0269,-2.7921,0.0,0.0,0.0,0.0,0.0,0.0,0.0,0.0,0.0,0.0,0.0,0.0,0.0,0.0,0.0,0.0,0.0,0.0,0.0,0.0,0.0,0.0,0.0,0.0,0.0,-2.0234,0.0,0.0,0.0,0.0,0.0,0.0,0.0,0.0,0.0,0.0,0.0,-2.9302,-3.0218,-3.111,-3.1951,-3.2679,-3.2955,-3.3206,0.0,0.0,0.0,0.0,0.0,0.0,0.0,0.0,0.0,0.0,0.0,0.0,0.0,0.0,-3.2604,-3.0218,-2.9628,-2.9503,-2.9503,0.0,0.0,0.0,0.0,0.0,0.0,0.0,0.0,0.0,0.0,0.0,0.0,0.0,0.0,-2.7682,0.0,-2.7645,0.0,0.0,0.0,0.0,0.0,0.0,0.0,0.0,-2.9264,-2.9415,-2.9264,-2.9616,-2.9402,0.0,-2.8875,-2.831,0.0,0.0,0.0,0.0,0.0,0.0,0.0,0.0,-2.8561,-2.949,-3.0746,-3.1838,-3.2729,-3.298,-3.2893,-3.2503,-3.1599,-2.9993,-2.7645,-2.6854,-2.5727,0.0,0.0,0.0,0.0,0.0,0.0,0.0,0.0,0.0,0.0,0.0,0.0,0.0,0.0,0.0,0.0,0.0,0.0,0.0,0.0,0.0,0.0,0.0,-2.0498,0.0,0.0,0.0,0.0,0.0,0.0,0.0,0.0,0.0,-2.7811,-2.8988,-3.0131,-3.106,-3.1775,-3.2416,-3.2993,0.0,0.0,0.0,0.0,0.0,0.0,0.0,-3.3232,-3.2855,-3.2667,-3.2604,-3.2767,-3.3195,-3.3461,-3.3276,0.0,0.0,-3.1722,-3.0996,-3.052,-3.052,-3.0724,-3.0615,-2.9977,-2.9883,-2.963,0.0,0.0,0.0,0.0,0.0,0.0,0.0,0.0,-2.821,-2.8486,0.0,-2.8411,0.0,0.0,0.0,0.0,0.0,-2.8461,0.0,0.0,-3.0382,-3.0896,-3.1336,-3.1348,-3.0834,-2.9892,-3.0331,-2.9729,-2.8147,-2.7607,0.0,0.0,0.0,0.0,0.0,0.0,-2.8386,-2.9013,-3.0557,-3.1637,-3.2215,-3.2754,-3.3031,-3.2993,-3.1486,-2.9802,-2.8149,-2.7072,-2.5783,-2.4291,-2.3238,0.0,0.0,0.0,0.0,0.0,0.0,0.0,0.0,0.0,0.0,0.0,0.0,0.0,0.0,0.0,0.0,0.0,0.0,0.0,0.0,-2.0957,0.0,0.0,0.0,0.0,0.0,0.0,0.0,0.0,0.0,0.0,-2.8684,-2.9464,-3.0444,-3.1905,0.0,0.0,0.0,0.0,-3.3119,-3.3156,-3.3144,-3.3156,-3.3194,-3.3596,-3.3922,-3.3909,0.0,0.0,-3.3858,-3.3174,-3.2511,-3.2002,-3.1421,-3.1579,-3.4053,-3.2932,-3.1754,-3.1754,-3.0801,-3.0041,-2.9969,-3.022,-3.0236,-3.0126,0.0,0.0,0.0,0.0,-2.8762,-2.9164,-2.9892,-2.9905,-2.9754,-2.9541,-2.9377,0.0,0.0,0.0,0.0,0.0,0.0,-3.0043,-3.0922,-3.1097,-3.126,-3.1386,-3.1386,-3.1035,-3.0407,-3.0532,-2.9955,-2.8725,-2.8536,-2.7883,-2.6829,0.0,0.0,0.0,0.0,-2.8586,-2.9528,-3.0394,-3.1286,-3.2202,-3.2378,-3.2466,-3.2466,-3.0854,-2.9395,-2.8174,-2.6682,-2.5314,-2.4095,-2.344,0.0,0.0,0.0,0.0,0.0,0.0,0.0,0.0,0.0,0.0,0.0,0.0,0.0,0.0,0.0,0.0,0.0,0.0,0.0,-2.0537,-2.0684,-2.0615,0.0,0.0,0.0,0.0,0.0,0.0,0.0,0.0,0.0,-2.7969,-3.0034,-3.1344,0.0,0.0,-3.288,-3.3056,-3.3407,-3.3809,-3.4198,-3.4261,0.0,-3.4776,-3.4638,-3.4487,-3.4487,-3.417,-3.3493,-3.2378,-3.2277,-3.2366,-3.2195,-3.2013,-3.2115,-3.2661,-3.1899,-3.1088,-3.1031,-3.0757,-3.047,-3.0481,-2.9916,-2.9147,-3.0796,-2.9402,-2.9402,-2.9591,-2.9905,-2.9917,-3.0294,-3.0922,-3.0922,-3.0859,-3.0733,-3.052,-2.993,-2.9089,-2.8863,0.0,0.0,0.0,-3.0896,-3.1712,-3.1712,-3.1851,-3.2051,-3.2051,-3.165,-3.0934,-3.0922,-3.0344,-2.9264,-2.9264,-2.8825,-2.7959,0.0,0.0,-2.7632,-2.816,-2.8775,-2.944,-3.0218,-3.0934,-3.1549,-3.1559,-3.1404,-3.1183,-2.996,-2.88,-2.7696,-2.6515,-2.5322,-2.4168,-2.3416,-2.2392,0.0,0.0,0.0,0.0,0.0,0.0,0.0,0.0,0.0,0.0,0.0,-1.9951,-1.9102,0.0,0.0,0.0,-1.999,-2.0537,-2.0801,-2.1133,0.0,0.0,0.0,0.0,0.0,0.0,0.0,-2.5136,-2.6002,-2.6519,-2.6732,-2.9267,-3.0834,-3.012,-3.111,-3.2103,-3.2671,0.0,-3.3101,-3.4495,-3.4247,-3.4059,-3.4286,-3.4342,-3.4071,-3.3594,-3.3161,-3.2499,-3.154,-3.1174,-3.0952,-3.0963,-3.0572,-3.0232,-3.0423,-2.9987,-2.9778,-3.0337,-3.0081,-2.9738,-2.9558,-2.8925,-2.8167,-3.1989,-3.1524,-3.1512,-3.1461,-3.1399,-3.1436,-3.1449,-3.1461,-3.1499,-3.1788,-3.2164,-3.1687,-3.1173,-3.0658,-3.0143,0.0,-3.003,-3.1009,-3.175,-3.2277,-3.2193,-3.2469,-3.297,-3.297,-3.2419,-3.1285,-3.1399,-3.0859,-2.9892,-2.9804,-2.9528,-2.8988,-2.8412,-2.8136,-2.8197,-2.8674,-2.895,-2.9013,-3.003,-3.049,-3.0461,-3.0314,-2.9969,-2.952,-2.8771,-2.7954,-2.7119,-2.6395,-2.5445,-2.422,-2.3259,-2.2111,-2.0752,0.0,0.0,0.0,0.0,0.0,0.0,0.0,0.0,0.0,0.0,0.0,0.0,0.0,0.0,0.0,-2.0537,0.0,-2.124,-2.1982,0.0,0.0,0.0,-2.1963,-2.2031,-2.2734,-2.3389,-2.3838,0.0,0.0,-2.5297,-2.7482,-2.9143,-2.9187,-2.9658,-3.0498,-3.1746,-3.1352,-3.1697,-3.4035,-3.3401,-3.2735,-3.2783,-3.3114,-3.2931,-3.1863,-3.1482,-3.1183,-3.061,-2.9644,-2.8964,-2.8906,-2.7794,-2.7241,-2.7653,-2.7776,-2.8133,-2.9642,-2.9066,-2.8182,-2.7914,-2.7786,-2.7398,-3.2792,-3.2679,-3.2667,-3.2177,-3.1424,-3.1851,-3.2026,-3.2051,-3.2478,-3.2503,-3.2202,-3.2077,-3.1712,-3.1198,-3.1072,-3.1235,-3.165,-3.1901,-3.2328,-3.2757,-3.1869,-3.1556,-3.1677,-3.1677,-3.1339,-3.07,-3.1162,-3.1047,-3.0419,-2.9993,-2.9729,-2.9578,-2.8607,-2.8338,-2.8687,-2.8863,-2.9139,-2.9591,-2.9854,-2.9762,-2.9313,-2.892,-2.8585,-2.8471,-2.7075,-2.6397,-2.6427,-2.4805,-2.3834,-2.3869,-2.2988,-2.2251,-2.1582,-2.042,0.0,0.0,0.0,0.0,0.0,0.0,0.0,0.0,0.0,-1.9912,-1.866,0.0,-2.0,0.0,-2.1152,-2.1592,-2.1269,-2.1709,0.0,0.0,-2.2305,-2.2627,-2.3262,-2.3516,-2.3926,-2.4678,-2.5224,-2.5565,-2.5537,-2.6127,-2.6693,-2.7124,-2.8753,-3.0124,-3.0427,-3.0982,-3.1521,-3.2139,-3.2316,-3.2381,-3.2336,-3.2252,-3.1625,-3.0443,-2.9842,-2.9267,-2.8207,-2.7693,-2.75,-2.75,-2.7206,-2.706,-2.7148,-2.7168,-2.729,-2.7716,-2.7776,-2.7793,-2.7685,-2.7402,-2.7012,-3.3081,-3.3081,-3.3081,-3.2717,-3.2164,-3.2478,-3.2604,-3.2629,-3.2943,-3.2893,-3.2579,-3.2328,-3.2039,-3.1763,-3.175,-3.1913,-3.2143,-3.1932,-3.1945,-3.214,-3.0956,-3.0406,-3.0406,-3.0406,-3.0024,-2.9294,-2.9699,-2.9451,-2.8745,-2.8435,-2.8303,-2.8303,-2.7706,-2.7554,-2.7861,-2.7837,-2.8228,-2.9028,-2.8542,-2.8182,-2.7871,-2.7175,-2.6922,-2.6835,-2.5737,-2.5115,-2.5176,-2.4019,-2.3447,-2.3486,-2.2871,-2.2324,-2.1894,-2.082,-2.001,0.0,0.0,0.0,0.0,0.0,0.0,0.0,0.0,0.0,0.0,0.0,-2.0391,-2.083,-2.165,-2.207,-2.1826,-2.2363,-2.2832,-2.3066,-2.3242,-2.3623,-2.4297,-2.4365,-2.4619,-2.5283,-2.5371,-2.5459,-2.5703,-2.5732,-2.5898,-2.6328,-2.7676,-2.9019,-2.9656,-3.0081,-3.0429,-3.164,-3.1559,-3.1429,-3.1429,-3.0713,-2.9793,-2.8717,-2.8249,-2.7774,-2.6624,-2.6445,-2.6445,-2.6445,-2.6445,-2.6523,-2.6689,-2.6738,-2.6777,-2.6982,-2.7051,-2.709,-2.709,-2.6914,-2.6611,-3.3081,-3.3081,-3.3081,-3.3081,-3.3081,-3.3081,-3.3081,-3.3081,-3.3081,-3.3081,-3.3043,-3.2541,-3.2328,-3.2328,-3.2147,-3.205,-3.2003,-3.1285,-3.0944,-3.0855,-2.9772,-2.9131,-2.9131,-2.9131,-2.8654,-2.7778,-2.7863,-2.7458,-2.6584,-2.6517,-2.6483,-2.6483,-2.6389,-2.64,-2.6483,-2.6224,-2.6707,-2.7844,-2.6789,-2.6307,-2.6224,-2.5541,-2.5068,-2.5088,-2.4586,-2.4111,-2.3818,-2.373,-2.3555,-2.3232,-2.2764,-2.2353,-2.1973,-2.1084,-2.04,0.0,-1.9551,0.0,0.0,0.0,0.0,0.0,0.0,0.0,0.0,-2.0498,-2.0957,-2.1289,-2.2148,-2.2656,-2.2598,-2.3369,-2.3877,-2.3877,-2.4248,-2.4658,-2.501,-2.5107,-2.5303,-2.5693,-2.5732,-2.5732,-2.5732,-2.5732,-2.5898,-2.6328,-2.6829,-2.7702,-2.8962,-2.8894,-2.9272,-3.1531,-3.0824,-2.9985,-2.9798,-2.8931,-2.7898,-2.7212,-2.6927,-2.6592,-2.5898,-2.5771,-2.5752,-2.5762,-2.5801,-2.5898,-2.625,-2.6309,-2.6426,-2.6719,-2.6553,-2.6377,-2.6426,-2.6367,-2.6172,-3.3081,-3.3081,-3.3081,-3.3081,-3.3081,-3.3081,-3.3081,-3.3081,-3.3081,-3.3081,-3.3068,-3.2968,-3.2918,-3.2819,-3.1894,-3.1344,-3.1344,-3.027,-2.9761,-2.9681,-2.8495,-2.7955,-2.7955,-2.7955,-2.7657,-2.7104,-2.7679,-2.7637,-2.715,-2.6673,-2.6483,-2.6472,-2.5546,-2.5546,-2.6389,0.0,0.0,0.0,-2.5714,-2.5126,-2.5136,-2.4044,-2.3515,-2.3515,-2.3418,0.0,-2.376,-2.3457,-2.3389,-2.3623,-2.293,0.0,0.0,0.0,0.0,0.0,0.0,0.0,0.0,0.0,0.0,0.0,-2.0957,-2.0742,-2.0508,-2.1484,-2.2041,-2.1826,-2.2842,-2.3418,-2.3086,-2.3799,-2.4297,-2.4316,-2.4687,-2.498,-2.5068,-2.5381,-2.5654,-2.5723,-2.5732,-2.5732,-2.5732,-2.5732,-2.5908,-2.6328,-2.6748,-2.727,-2.8004,-2.8219,-2.8485,-2.9006,-2.89,-2.8569,-2.8232,-2.7717,-2.7207,-2.6602,-2.6191,-2.5957,-2.5791,-2.5732,-2.5732,-2.5732,-2.5732,-2.5752,-2.5859,-2.5859,-2.5918,-2.5967,-2.5928,-2.5967,-2.6299,-2.6103,-2.584,-3.3081,0.0,-3.3081,-3.3081,0.0,-3.3081,-3.3081,-3.3081,-3.3081,-3.3081,-3.3068,-3.2426,-3.2152,-3.214,-3.0866,-3.0316,-3.0226,-2.905,-2.8495,-2.8402,-2.722,-2.6668,-2.6668,-2.6668,-2.6425,-2.6062,-2.6131,-2.5941,-2.5588,-2.5039,-2.4808,-2.4808,-2.4221,-2.4211,-2.4723,-2.3724,-2.3637,-2.4808,-2.4221,-2.3973,-2.3963,-2.3387,-2.3144,-2.3144,-2.3144,0.0,0.0,0.0,0.0,0.0,0.0,0.0,0.0,0.0,0.0,-2.1201,-2.081,-2.0664,-2.0869,-2.0889,-2.1084,-2.1523,-2.1748,-2.1768,-2.1543,-2.2139,-2.251,-2.2529,-2.3301,-2.3701,-2.3525,-2.4238,-2.4736,-2.4756,-2.5127,-2.5391,-2.542,-2.5596,-2.5732,-2.5732,-2.5732,-2.5732,-2.5732,-2.5732,-2.5918,-2.6318,-2.6562,-2.6943,-2.7559,-2.8027,-2.8291,-2.8301,-2.8301,-2.8144,-2.7754,-2.751,-2.709,-2.6543,-2.6211,-2.5986,-2.5771,-2.5732,-2.5732,-2.5732,-2.5732,-2.5732,-2.5732,-2.5732,-2.5732,-2.5732,-2.5732,-2.5791,-2.6025,-2.5889,-2.5732,-3.3081,-3.3081,-3.3081,-3.3081,-3.3081,-3.3081,-3.2982,-3.2785,0.0,0.0,0.0,-3.1311,-3.0855,-3.0777,-2.959,-2.905,-2.8947,-2.7767,-2.722,-2.722,-2.6197,-2.5732,-2.5732,-2.5732,-2.5498,-2.5059,-2.4629,-2.4199,-2.3789,-2.3359,-2.3144,-2.3144,-2.3144,-2.3144,-2.3144,-2.3144,-2.3144,-2.3144,-2.3144,-2.3144,-2.3144,-2.3144,-2.3144,-2.3144,-2.3144,-2.3144,-2.3144,-2.3144,-2.2978,-2.2637,-2.2217,-2.1992,-2.1982,-2.1582,-2.1504,-2.1855,-2.1894,-2.1924,-2.1982,-2.1992,-2.2031,-2.21,-2.2422,-2.2627,-2.2617,-2.2695,-2.2881,-2.3232,-2.3711,-2.4014,-2.4023,-2.4717,-2.5185,-2.5195,-2.5518,-2.5723,-2.5732,-2.5732,-2.5732,-2.5732,-2.5732,-2.5732,-2.5732,-2.5732,-2.585,-2.6191,-2.6348,-2.6699,-2.749,-2.8027,-2.8252,-2.8164,-2.8125,-2.7988,-2.7559,-2.7383,-2.7119,-2.6377,-2.624,-2.6143,-2.585,-2.5732,-2.5732,-2.5732,-2.5732,-2.5732,-2.5732,-2.5732,-2.5732,-2.5732,-2.5528,-2.5333,-2.5323,-2.5118,-2.502,-3.3081,-3.3081,-3.3081,-3.3081,-3.3081,-3.3081,-3.2513,-3.1488,-3.1488,-3.0866,-2.9863,-2.9772,-2.9681,-2.9579,-2.8402,-2.7861,-2.7767,-2.6572,-2.5917,-2.5917,-2.5732,-2.5732,-2.5732,-2.5732,-2.5508,-2.5059,-2.4619,-2.4209,-2.3779,-2.334,-2.3144,-2.3144,-2.3144,-2.3144,-2.3144,-2.3144,-2.3144,-2.3144,-2.3144,-2.3144,-2.3144,-2.3144,-2.3144,-2.3144,-2.3144,-2.3144,-2.3144,-2.3144,-2.3105,-2.3037,-2.2656,-2.2422,-2.2412,-2.2021,-2.1826,-2.1875,-2.1894,-2.2041,-2.2402,-2.2432,-2.2578,-2.293,-2.3018,-2.3047,-2.3057,-2.3398,-2.3633,-2.3721,-2.4394,-2.4883,-2.4922,-2.5322,-2.5605,-2.5625,-2.5684,-2.5732,-2.5732,-2.5732,-2.5732,-2.5732,-2.5732,-2.5732,-2.5732,-2.5732,-2.5762,-2.5869,-2.6182,-2.668,-2.7412,-2.8027,-2.8105,-2.7851,-2.7754,-2.7422,-2.6865,-2.6582,-2.6416,-2.5918,-2.585,-2.585,-2.5762,-2.5732,-2.5732,-2.5732,-2.5625,-2.5635,-2.5625,-2.5732,-2.543,-2.5323,-2.4609,-2.3989,-2.3989,-2.3176,-2.3076,-3.3081,-3.3081,-3.3081,-3.3081,-3.3068,-3.2339,-3.1323,-3.0214,-2.9487,-2.9315,-2.9304,-2.8669,-2.8412,-2.8319,-2.7125,-2.6572,-2.6572,-2.5917,-2.5732,-2.5732,-2.5732,-2.5732,-2.5732,-2.5732,-2.5625,-2.5391,-2.4736,-2.4316,-2.4082,-2.3467,-2.3144,-2.3144,-2.3144,-2.3144,-2.3144,-2.3144,-2.3144,-2.3144,-2.3144,-2.3144,-2.3144,-2.3144,-2.3144,-2.3144,-2.3144,-2.3144,-2.3144,-2.3144,-2.3037,-2.2812,-2.2617,-2.251,-2.251,-2.2334,-2.2334,-2.2539,-2.2568,-2.2646,-2.2842,-2.2852,-2.3037,-2.3457,-2.3496,-2.3594,-2.3818,-2.3799,-2.3887,-2.4121,-2.4707,-2.5059,-2.5078,-2.5469,-2.5732,-2.5732,-2.5732,-2.5732,-2.5732,-2.5732,-2.5732,-2.5732,-2.5732,-2.5732,-2.5732,-2.5732,-2.5732,-2.5771,-2.6113,-2.6562,-2.6934,-2.7344,-2.7627,-2.7656,-2.7666,-2.7305,-2.6553,-2.6387,-2.6201,-2.581,-2.5732,-2.5732,-2.5732,-2.5635,-2.5635,-2.5635,-2.5128,-2.4707,-2.4609,-2.3989,-2.3683,-2.3484,-2.3076,-2.2667,-2.2458,-2.2055,-2.2257,-3.2955,-3.3081,-3.3081,-3.297,-3.2612,-3.1589,-3.0406,-2.8958,-2.8038,-2.7955,-2.8402,-2.7589,-2.722,-2.703,-2.611,-2.5732,-2.5732,-2.5732,-2.5732,-2.5732,-2.5732,-2.5732,-2.5732,-2.5732,-2.5732,-2.5625,-2.4844,-2.4424,-2.4316,-2.3555,-2.3144,-2.3144,-2.3144,-2.3144,-2.3144,-2.3144,-2.3144,-2.3144,-2.3144,-2.3144,-2.3144,-2.3144,-2.3144,-2.3144,-2.3144,-2.3144,-2.3144,-2.3144,-2.2988,-2.2676,-2.2656,-2.2656,-2.2656,-2.2646,-2.2803,-2.3096,-2.3144,-2.3144,-2.3144,-2.3144,-2.332,-2.375,-2.3789,-2.4004,-2.4453,-2.4268,-2.4209,-2.4551,-2.4971,-2.5234,-2.5273,-2.5518,-2.5732,-2.5732,-2.5732,-2.5732,-2.5732,-2.5732,-2.5732,-2.5742,-2.543,-2.5216,-2.5226,-2.502,-2.4707,-2.4655,-2.5414,-2.5724,-2.5557,-2.5942,-2.6471,-2.6494,-2.6939,-2.7051,-2.6387,-2.6221,-2.6074,-2.5762,-2.5323,-2.5216,-2.5118,-2.502,-2.4815,-2.451,-2.3899,-2.3384,-2.3176,-2.2558,-2.1946,-2.1954,-2.1651,-2.1143,-2.0735,-2.0633,-2.1041,-3.2604,-3.3043,-3.3068,-3.2426,-3.15,-3.1223,-2.9863,-2.7955,-2.7589,-2.6935,-2.6197,-2.5927,-2.5917,-2.583,-2.5732,-2.5732,-2.5732,-2.5732,-2.5732,-2.5732,-2.5732,-2.5732,-2.5732,-2.5732,-2.5732,-2.5625,-2.4834,-2.4424,-2.4375,-2.3555,-2.3144,-2.3144,-2.3144,-2.3144,-2.3144,-2.3144,-2.3144,-2.3144,-2.3144,-2.3144,-2.3144,-2.3144,-2.3144,-2.3144,-2.3144,-2.3144,-2.3144,-2.3144,-2.3125,-2.3076,-2.3066,-2.3066,-2.2989,-2.3076,-2.3096,-2.3144,-2.3144,-2.3144,-2.3144,-2.3144,-2.334,-2.373,-2.3828,-2.4069,-2.4902,-2.4961,-2.4951,-2.4974,-2.5314,-2.5625,-2.5664,-2.5616,-2.5538,-2.5538,-2.543,-2.5732,-2.5528,-2.5732,-2.5732,-2.5732,-2.451,-2.3899,-2.3791,-2.3076,-2.2257,-2.2567,-2.3447,-2.3844,-2.3305,-2.387,-2.4266,-2.3694,-2.4747,-2.6029,-2.5633,-2.5703,-2.54,-2.5333,-2.4609,-2.3998,-2.3692,-2.3067,-2.2156,-2.2767,-2.2156,-2.1853,-2.1853,-2.1744,-2.1541,-2.1033,-2.0333,-1.9524,-1.8401,-1.8192,-1.9013,-3.2353,-3.2604,-3.293,-3.2797,-3.2152,-3.0765,-2.959,-2.8588,-2.7115,-2.6207,-2.5732,-2.5732,-2.5732,-2.5732,-2.5732,-2.5732,-2.5732,-2.5732,-2.5732,-2.5732,-2.5732,-2.5732,-2.5732,-2.5732,-2.5732,-2.5654,-2.4844,-2.4424,-2.4277,-2.3555,-2.3144,-2.3144,-2.3144,-2.3144,-2.3144,-2.3144,-2.3144,-2.3144,-2.3144,-2.3144,-2.3144,-2.3144,-2.3144,-2.3144,-2.3144,-2.3144,-2.3144,-2.3144,-2.3144,-2.3144,-2.3144,-2.3144,-2.3144,-2.3144,-2.3144,-2.3144,-2.3144,-2.3144,-2.3144,-2.3379,-2.3711,-2.4131,-2.3634,-2.3634,-2.4165,-2.3537,-2.3135,-2.326,-2.4711,-2.5732,-2.5635,-2.502,-2.451,-2.4402,-2.3791,-2.3384,-2.3375,-2.3384,-2.3384,-2.3285,-2.2876,-2.2458,-2.2458,-2.2055,-2.1752,-2.1744,-2.2265,-2.2308,-2.2233,-2.2536,-2.2605,-2.244,-2.3073,-2.3379,-2.3411,-2.3384,-2.3384,-2.3276,-2.2868,-2.2558,-2.2466,-2.2156,-2.1744,-2.1643,-2.0939,-2.0538,-2.0436,-1.9723,-1.9317,-1.9213,-1.9109,-1.8199,-1.7687,-1.7589,-1.8304,-3.2077,-3.229,-3.283,-3.2698,-3.1965,-3.0135,-2.9039,-2.8215,-2.6466,-2.5732,-2.5732,-2.5732,-2.5732,-2.5732,-2.5732,-2.5732,-2.5732,-2.5732,-2.5732,-2.5732,-2.5732,-2.5732,-2.5732,-2.5732,-2.5732,-2.5615,-2.4971,-2.4482,-2.4199,-2.3516,-2.3144,-2.3144,-2.3144,-2.3144,-2.3144,-2.3144,-2.3144,-2.3144,-2.3144,-2.3144,-2.3144,-2.3144,-2.3144,-2.3144,-2.3144,-2.3144,-2.3144,-2.3144,-2.3144,-2.3144,-2.3144,-2.3144,-2.3144,-2.3144,-2.3144,-2.3144,-2.3144,-2.3144,-2.3144,-2.3178,-2.341,-2.3718,-2.2967,-2.2663,-2.288,-2.2257,-2.1744,-2.1845,-2.3484,-2.4501,-2.4501,-2.3692,-2.3176,-2.3076,-2.2257,-2.1744,-2.1744,-2.1744,-2.1744,-2.1643,-2.1448,-2.0947,-2.0641,-2.0436,-2.0326,-2.0428,-2.0845,-2.0901,-2.094,-2.0909,-2.1051,-2.0867,-2.0687,-2.0971,-2.144,-2.1946,-2.1744,-2.155,-2.155,-2.1143,-2.1041,-2.0939,-2.0531,-1.9723,-1.9317,-1.9117,-1.9117,-1.8192,-1.7681,-1.7687,-1.7687,-1.7687,-1.7589,-1.7589,-1.7589,-3.1725,-3.2265,-3.283,-3.1865,-2.959,-2.9498,-2.8132,-2.638,-2.583,-2.5732,-2.5732,-2.5732,-2.5732,-2.5732,-2.5732,-2.5732,-2.5732,-2.5732,-2.5732,-2.5732,-2.5732,-2.5732,-2.5732,-2.5732,-2.5732,-2.5693,-2.5234,-2.46,-2.3857,-2.3369,-2.3144,-2.3144,-2.3144,-2.3144,-2.3144,-2.3144,-2.3144,-2.3144,-2.3144,-2.3144,-2.3144,-2.3144,-2.3144,-2.3144,-2.3144,-2.3144,-2.3144,-2.3144,-2.3144,-2.3144,-2.3144,-2.3144,-2.3144,-2.3144,-2.3047,-2.3047,-2.3047,-2.3047,-2.2823,-2.2252,-2.2095,-2.2294,-2.1687,-2.1255,-2.1702,-2.144,-2.1338,-2.1643,-2.1651,-2.1853,-2.1853,-2.1853,-2.1752,-2.1752,-2.1651,-2.144,-2.1541,-2.1237,-2.1643,-2.1347,-2.0333,-1.942,-1.8094,-1.7786,-1.8094,-1.8297,-1.9013,-1.9376,-1.8731,-1.9092,-1.916,-1.8492,-1.8261,-1.87,-2.0931,-2.1033,-2.1237,-2.1041,-2.0135,-1.9731,-1.922,-1.8812,-1.8297,-1.7989,-1.8101,-1.7996,-1.7786,-1.7681,-1.7687,-1.7589,-1.7589,-1.7589,-1.7589,-1.7589,-1.7589,-3.1411,-3.2227,-3.2428,-3.2179,-3.1589,-3.0045,-2.8855,-2.7955,-2.638,-2.5732,-2.5732,-2.5732,-2.5732,-2.5732,-2.5732,-2.5732,-2.5732,-2.5732,-2.5732,-2.5732,-2.5732,-2.5732,-2.5732,-2.5732,-2.5732,-2.5664,-2.5273,-2.4619,-2.3828,-2.334,-2.3144,-2.3144,-2.3144,-2.3144,-2.3144,-2.3144,-2.3144,-2.3144,-2.3144,-2.3144,-2.3144,-2.3144,-2.3144,-2.3144,-2.3144,-2.3144,-2.3144,-2.3144,-2.3144,-2.3144,-2.3144,-2.3144,-2.3144,-2.3144,-2.2775,-2.2031,-2.1952,-2.1596,-2.0898,-2.0758,-2.0849,-2.1128,-2.0418,-1.9969,-2.0153,-1.962,-1.9117,-1.9117,-1.9109,-1.9109,-1.9213,-1.9826,-2.0333,-2.0231,-1.962,-1.9213,-1.9117,-1.9109,-1.9109,-1.9005,-1.861,-1.8094,-1.7786,-1.7589,-1.7589,-1.7687,-1.7989,-1.8252,-1.8205,-1.8376,-1.8303,-1.8185,-1.7842,-1.7891,-1.87,-1.9005,-1.9013,-1.8909,-1.861,-1.8401,-1.8101,-1.8101,-1.7786,-1.7786,-1.7589,-1.7589,-1.7687,-1.7687,-1.7589,-1.7589,-1.7589,-1.7589,-1.7589,-1.7589,-1.7589,-3.1135,-3.1888,-3.1951,-3.1831,-3.1412,-2.9906,-2.8804,-2.8111,-2.6476,-2.5732,-2.5732,-2.5732,-2.5732,-2.5732,-2.5732,-2.5732,-2.5732,-2.5732,-2.5732,-2.5732,-2.5732,-2.5732,-2.5732,-2.5732,-2.5732,-2.5635,-2.5127,-2.4531,-2.3994,-2.3418,-2.3154,-2.3144,-2.3144,-2.3144,-2.3144,-2.3144,-2.3144,-2.3144,-2.3144,-2.3144,-2.3144,-2.3144,-2.3144,-2.3144,-2.3144,-2.3144,-2.3144,-2.3144,-2.3144,-2.3144,-2.3144,-2.295,-2.2589,-2.2129,-2.1587,-2.0854,-2.0674,-2.0413,-1.9629,-1.9455,-1.9621,-1.9878,-1.9055,-1.868,-1.8866,-1.8094,-1.7687,-1.7589,-1.7589,-1.7589,-1.7786,-1.8401,-1.8916,-1.8909,-1.8094,-1.7589,-1.7589,-1.7687,-1.7687,-1.7793,-1.7793,-1.7694,-1.7589,-1.7589,-1.7589,-1.7589,-1.7589,-1.7782,-1.8023,-1.7903,-1.7689,-1.807,-1.7822,-1.7622,-1.7989,-1.8199,-1.8199,-1.8094,-1.8094,-1.7793,-1.7589,-1.7589,-1.7589,-1.7589,-1.7589,-1.7589,-1.7589,-1.7589,-1.7589,-1.7589,-1.7589,-1.7589,-1.7589,-1.7589,-1.7589,-3.0896,-3.1361,-3.1373,-3.0399,-2.9167,-2.8668,-2.7498,-2.6194,-2.5781,-2.5684,-2.5723,-2.5732,-2.5732,-2.5732,-2.5732,-2.5732,-2.5732,-2.5732,-2.5732,-2.5732,-2.5732,-2.5732,-2.5732,-2.5732,-2.5732,-2.5684,-2.4853,-2.4443,-2.4326,-2.3555,-2.3144,-2.3144,-2.3144,-2.3144,-2.3144,-2.3144,-2.3144,-2.3144,-2.3144,-2.3144,-2.3144,-2.3144,-2.3047,-2.296,-2.296,-2.296,-2.296,-2.296,-2.296,-2.296,-2.2862,-2.2492,-2.1302,-2.0395,-1.9579,-1.9588,-1.9497,-1.9488,-1.9255,-1.8511,-1.8156,-1.8422,-1.7764,-1.7537,-1.7823,-1.7687,-1.7589,-1.7589,-1.7589,-1.7589,-1.7589,-1.7687,-1.7793,-1.7687,-1.7687,-1.7589,-1.7589,-1.7589,-1.7589,-1.7589,-1.7589,-1.7589,-1.7589,-1.7589,-1.7589,-1.7589,-1.7589,-1.7629,-1.7762,-1.7675,-1.7609,-1.7655,-1.7649,-1.7602,-1.7589,-1.7589,-1.7589,-1.7694,-1.7687,-1.7589,-1.7589,-1.7589,-1.7589,-1.7589,-1.7589,-1.7589,-1.7589,-1.7589,-1.7589,-1.7589,-1.7589,-1.7589,-1.7589,-1.7589,-1.7589,-3.0369,-3.0753,-2.9976,-2.9594,-2.9195,-2.7712,-2.6757,-2.6464,-2.5645,-2.5449,-2.5693,-2.5732,-2.5732,-2.5732,-2.5732,-2.5732,-2.5732,-2.5732,-2.5732,-2.5732,-2.5732,-2.5732,-2.5732,-2.5732,-2.5732,-2.5586,-2.4834,-2.4414,-2.4258,-2.3555,-2.3144,-2.3144,-2.3144,-2.3144,-2.3144,-2.3144,-2.3144,-2.3144,-2.3144,-2.3144,-2.3144,-2.3144,-2.2775,-2.1943,-2.1854,-2.1854,-2.1872,-2.1863,-2.1845,-2.1854,-2.1033,-2.0404,-2.0034,-1.9679,-1.9123,-1.8411,-1.8234,-1.777,-1.703,-1.6753,-1.676,-1.7083,-1.7002,-1.719,-1.7502,-1.7582,-1.7582,-1.7589,-1.7589,-1.7589,-1.7589,-1.7589,-1.7589,-1.7589,-1.7589,-1.7589,-1.7589,-1.7589,-1.7589,-1.7589,-1.7589,-1.7589,-1.7589,-1.7589,-1.7589,-1.7589,-1.7589,-1.7629,-1.7802,-1.7682,-1.7702,-1.7836,-1.7729,-1.7589,-1.7589,-1.7589,-1.7589,-1.7589,-1.7589,-1.7589,-1.7589,-1.7589,-1.7589,-1.7589,-1.7589,-1.7589,-1.7589,-1.7589,-1.7589,-1.7589,-1.7589,-1.7589,-1.7589,-1.7589,-1.7589,-2.9733,-2.961,-2.8919,-2.8385,-2.8066,-2.6539,-2.6027,-2.6104,-2.5426,-2.5322,-2.5674,-2.5732,-2.5732,-2.5732,-2.5732,-2.5732,-2.5732,-2.5732,-2.5732,-2.5732,-2.5732,-2.5732,-2.5732,-2.5732,-2.5625,-2.5381,-2.4756,-2.4326,-2.415,-2.3506,-2.3144,-2.3144,-2.3144,-2.3144,-2.3144,-2.3144,-2.3144,-2.3144,-2.3144,-2.3144,-2.3144,-2.3144,-2.2775,-2.212,-2.1952,-2.1765,-2.132,-2.0944,-2.0845,-2.0935,-1.9761,-1.8864,-1.8764,-1.8403,-1.7762,-1.7217,-1.6943,-1.6662,-1.592,-1.5933,-1.6025,-1.6453,-1.6647,-1.6907,-1.7328,-1.7488,-1.7589,-1.7589,-1.7589,-1.7589,-1.7589,-1.7589,-1.7589,-1.7589,-1.7589,-1.7589,-1.7589,-1.7589,-1.7589,-1.7589,-1.7589,-1.7589,-1.7589,-1.7589,-1.7589,-1.7589,-1.7589,-1.7615,-1.7789,-1.7695,-1.7769,-1.7802,-1.7689,-1.7602,-1.7589,-1.7589,-1.7589,-1.7589,-1.7589,-1.7589,-1.7589,-1.7589,-1.7589,-1.7589,-1.7589,-1.7589,-1.7589,-1.7589,-1.7589,-1.7589,-1.7589,-1.7589,-1.7589,-1.7589,-1.7589,-2.9118,-2.8176,-2.8016,-2.7062,-2.5612,-2.5295,-2.5178,-2.511,-2.4941,-2.5195,-2.5586,-2.5635,-2.5654,-2.5684,-2.5693,-2.5732,-2.5732,-2.5732,-2.5732,-2.5732,-2.5723,-2.5713,-2.5635,-2.5615,-2.541,-2.501,-2.456,-2.418,-2.3857,-2.3379,-2.3144,-2.3144,-2.3144,-2.3144,-2.3144,-2.3144,-2.3144,-2.3144,-2.3144,-2.3047,-2.296,-2.296,-2.2687,-2.2403,-2.2227,-2.1765,-2.0764,-1.9852,-1.9852,-2.0486,-1.858,-1.7591,-1.7404,-1.648,-1.6008,-1.6015,-1.5832,-1.592,-1.5825,-1.5825,-1.5965,-1.6286,-1.6567,-1.6834,-1.7154,-1.7428,-1.7589,-1.7589,-1.7589,-1.7589,-1.7589,-1.7589,-1.7589,-1.7589,-1.7589,-1.7589,-1.7589,-1.7589,-1.7589,-1.7589,-1.7589,-1.7589,-1.7589,-1.7589,-1.7589,-1.7589,-1.7589,-1.7615,-1.7615,-1.7615,-1.7595,-1.7595,-1.7609,-1.7602,-1.7589,-1.7589,-1.7589,-1.7589,-1.7589,-1.7589,-1.7589,-1.7589,-1.7589,-1.7589,-1.7589,-1.7589,-1.7589,-1.7589,-1.7589,-1.7589,-1.7589,-1.7589,-1.7589,-1.7589,-1.7589,-2.9106,-2.8004,-2.729,-2.6124,-2.489,-2.4058,-2.4058,-2.4482,-2.4268,-2.459,-2.5127,-2.5244,-2.5264,-2.5283,-2.5596,-2.5732,-2.5732,-2.5732,-2.5732,-2.5732,-2.5732,-2.5527,-2.5303,-2.5244,-2.5019,-2.458,-2.4199,-2.3896,-2.376,-2.334,-2.3144,-2.3144,-2.3144,-2.3144,-2.3144,-2.3144,-2.3144,-2.3144,-2.3047,-2.258,-2.1933,-2.1756,-2.0854,-1.9231,-1.9231,-1.9139,-1.868,-1.8319,-1.7762,-1.7203,-1.6741,-1.6298,-1.6386,-1.6015,-1.5825,-1.5825,-1.5825,-1.5825,-1.5825,-1.5825,-1.5965,-1.6246,-1.6533,-1.6834,-1.7128,-1.7408,-1.7562,-1.7589,-1.7589,-1.7589,-1.7589,-1.7589,-1.7589,-1.7589,-1.7589,-1.7589,-1.7589,-1.7589,-1.7589,-1.7589,-1.7589,-1.7589,-1.7589,-1.7589,-1.7589,-1.7589,-1.7589,-1.7589,-1.7589,-1.7589,-1.7589,-1.7589,-1.7595,-1.7589,-1.7589,-1.7589,-1.7589,-1.7589,-1.7589,-1.7589,-1.7589,-1.7589,-1.7589,-1.7589,-1.7589,-1.7589,-1.7589,-1.7589,-1.7589,-1.7589,-1.7589,-1.7589,-1.7589,-1.7589,-1.7589,-2.887,-2.7371,-2.6719,-2.5557,-2.4135,-2.3377,-2.3525,-2.4023,-2.3926,-2.415,-2.4727,-2.5,-2.5059,-2.5107,-2.5527,-2.5723,-2.5732,-2.5732,-2.5732,-2.5703,-2.5537,-2.5312,-2.5117,-2.5059,-2.4756,-2.418,-2.3916,-2.3701,-2.3506,-2.3252,-2.3154,-2.3144,-2.3144,-2.3144,-2.3144,-2.3144,-2.3135,-2.3047,-2.2677,-2.1933,-2.1382,-2.0755,-1.9943,-1.8688,-1.8411,-1.8326,-1.7777,-1.7225,-1.648,-1.6015,-1.5825,-1.5825,-1.5825,-1.5825,-1.5825,-1.5825,-1.5825,-1.5825,-1.5825,-1.5825,-1.5905,-1.6119,-1.644,-1.6747,-1.7001,-1.7321,-1.7589,-1.7589,-1.7589,-1.7589,-1.7589,-1.7589,-1.7589,-1.7589,-1.7589,-1.7589,-1.7589,-1.7589,-1.7589,-1.7589,-1.7589,-1.7589,-1.7589,-1.7589,-1.7589,-1.7589,-1.7589,-1.7589,-1.7589,-1.7589,-1.7589,-1.7589,-1.7589,-1.7589,-1.7589,-1.7589,-1.7589,-1.7589,-1.7589,-1.7589,-1.7589,-1.7589,-1.7589,-1.7589,-1.7589,-1.7589,-1.7589,-1.7589,-1.7589,-1.7589,-1.7589,-1.7589,-1.7589,-1.7589,-1.7589,-2.8462,-2.6483,-2.6483,-2.5231,-2.3309,-2.3144,-2.3408,-2.375,-2.3711,-2.3935,-2.4365,-2.4805,-2.4922,-2.5029,-2.5478,-2.5732,-2.5732,-2.5732,-2.5732,-2.5615,-2.5361,-2.5059,-2.4932,-2.4805,-2.4394,-2.3818,-2.373,-2.3506,-2.3271,-2.3154,-2.3144,-2.3144,-2.3144,-2.3144,-2.3144,-2.3135,-2.3047,-2.2589,-2.1943,-2.1114,-2.0486,-1.967,-1.9039,-1.858,-1.8403,-1.8133,-1.7311,-1.648,-1.5825,-1.5825,-1.5825,-1.5825,-1.5825,-1.5825,-1.5825,-1.5825,-1.5825,-1.5825,-1.5825,-1.5832,-1.5832,-1.5945,-1.64,-1.67,-1.684,-1.7241,-1.7589,-1.7589,-1.7589,-1.7589,-1.7589,-1.7589,-1.7589,-1.7589,-1.7589,-1.7589,-1.7589,-1.7589,-1.7589,-1.7589,-1.7589,-1.7589,-1.7589,-1.7589,-1.7589,-1.7589,-1.7589,-1.7589,-1.7589,-1.7589,-1.7589,-1.7589,-1.7589,-1.7589,-1.7589,-1.7589,-1.7589,-1.7589,-1.7589,-1.7589,-1.7589,-1.7589,-1.7589,-1.7589,-1.7589,-1.7589,-1.7589,-1.7589,-1.7589,-1.7589,-1.7589,-1.7589,-1.7589,-1.7589,-1.7589,-2.8542,-2.6483,-2.6483,-2.5147,-2.3309,-2.3144,-2.3379,-2.374,-2.3428,-2.3545,-2.3945,-2.4375,-2.456,-2.4619,-2.5342,-2.5732,-2.5723,-2.5713,-2.5732,-2.5674,-2.5273,-2.4863,-2.4551,-2.4268,-2.3799,-2.3398,-2.3291,-2.3232,-2.3144,-2.3144,-2.3144,-2.3144,-2.3144,-2.3047,-2.3047,-2.2862,-2.258,-2.1845,-2.1293,-2.0206,-1.8864,-1.8319,-1.7677,-1.6936,-1.6749,-1.656,-1.6292,-1.592,-1.5825,-1.5825,-1.5825,-1.5825,-1.5825,-1.5825,-1.5825,-1.5825,-1.5825,-1.5825,-1.5825,-1.5825,-1.5832,-1.5919,-1.6359,-1.6707,-1.6747,-1.7248,-1.7549,-1.7589,-1.7589,-1.7589,-1.7589,-1.7589,-1.7589,-1.7589,-1.7589,-1.7589,-1.7589,-1.7589,-1.7589,-1.7589,-1.7589,-1.7589,-1.7589,-1.7589,-1.7589,-1.7589,-1.7589,-1.7589,-1.7589,-1.7589,-1.7589,-1.7589,-1.7589,-1.7589,-1.7589,-1.7589,-1.7589,-1.7589,-1.7589,-1.7589,-1.7589,-1.7589,-1.7589,-1.7589,-1.7589,-1.7589,-1.7589,-1.7589,-1.7589,-1.7589,-1.7589,-1.7589,-1.7589,-1.7589,-1.7589,-2.8039,-2.6483,-2.5975,-2.4723,-2.3222,-2.3144,-2.3262,-2.3408,-2.3262,-2.3262,-2.3535,-2.3935,-2.4219,-2.4463,-2.5107,-2.5508,-2.5654,-2.5498,-2.541,-2.5254,-2.4795,-2.4346,-2.4102,-2.3711,-2.334,-2.3154,-2.3144,-2.3144,-2.3144,-2.3144,-2.3144,-2.3144,-2.3047,-2.2677,-2.2306,-2.2217,-2.1578,-2.0486,-1.9852,-1.8856,-1.787,-1.7037,-1.6669,-1.592,-1.5825,-1.5825,-1.5825,-1.5825,-1.5825,-1.5825,-1.5825,-1.5825,-1.5825,-1.5825,-1.5825,-1.5825,-1.5825,-1.5825,-1.5825,-1.5832,-1.5885,-1.6025,-1.646,-1.672,-1.6947,-1.7341,-1.7549,-1.7589,-1.7589,-1.7589,-1.7589,-1.7589,-1.7589,-1.7589,-1.7589,-1.7589,-1.7589,-1.7589,-1.7589,-1.7589,-1.7589,-1.7589,-1.7589,-1.7589,-1.7589,-1.7589,-1.7589,-1.7589,-1.7589,-1.7589,-1.7589,-1.7589,-1.7589,-1.7589,-1.7589,-1.7589,-1.7589,-1.7589,-1.7589,-1.7589,-1.7589,-1.7589,-1.7589,-1.7589,-1.7589,-1.7589,-1.7589,-1.7589,-1.7589,-1.7589,-1.7589,-1.7589,-1.7589,-1.7589,-1.7589,-2.736,-2.6141,-2.521,-2.4125,-2.3222,-2.3144,-2.3154,-2.3154,-2.3144,-2.3164,-2.3232,-2.3603,-2.4014,-2.4346,-2.4756,-2.5195,-2.5312,-2.5176,-2.4961,-2.4863,-2.4258,-2.3955,-2.375,-2.3447,-2.3193,-2.3144,-2.3144,-2.3144,-2.3144,-2.3144,-2.3144,-2.3047,-2.2765,-2.2306,-2.1569,-2.1025,-2.0395,-1.9314,-1.8503,-1.777,-1.7225,-1.6386,-1.592,-1.5825,-1.5825,-1.5825,-1.5825,-1.5825,-1.5825,-1.5825,-1.5825,-1.5825,-1.5825,-1.5825,-1.5825,-1.5825,-1.5825,-1.5825,-1.5852,-1.5885,-1.6012,-1.6239,-1.66,-1.6827,-1.7074,-1.7341,-1.7549,-1.7589,-1.7589,-1.7589,-1.7589,-1.7589,-1.7589,-1.7589,-1.7589,-1.7589,-1.7589,-1.7589,-1.7589,-1.7589,-1.7589,-1.7589,-1.7589,-1.7589,-1.7589,-1.7589,-1.7589,-1.7589,-1.7589,-1.7589,-1.7589,-1.7589,-1.7589,-1.7589,-1.7589,-1.7589,-1.7589,-1.7589,-1.7589,-1.7589,-1.7589,-1.7589,-1.7589,-1.7589,-1.7589,-1.7589,-1.7589,-1.7589,-1.7589,-1.7589,-1.7589,-1.7589,-1.7589,-1.7589,-1.7589,-2.6942,-2.5041,-2.4872,-2.4125,-2.3222,-2.3144,-2.3144,-2.3144,-2.3144,-2.3144,-2.3193,-2.3584,-2.3799,-2.4014,-2.4326,-2.458,-2.4697,-2.459,-2.4531,-2.4453,-2.3975,-2.374,-2.3633,-2.334,-2.3144,-2.3144,-2.3144,-2.3144,-2.3144,-2.3144,-2.2862,-2.2775,-2.2031,-2.1391,-2.0845,-2.0305,-1.9222,-1.8126,-1.7591,-1.7131,-1.6386,-1.6015,-1.5825,-1.5825,-1.5825,-1.5825,-1.5825,-1.5825,-1.5825,-1.5825,-1.5825,-1.5825,-1.5825,-1.5825,-1.5825,-1.5825,-1.5825,-1.5825,-1.5845,-1.6052,-1.6052,-1.6146,-1.6607,-1.6901,-1.7001,-1.7261,-1.7542,-1.7589,-1.7589,-1.7589,-1.7589,-1.7589,-1.7589,-1.7589,-1.7589,-1.7589,-1.7589,-1.7589,-1.7589,-1.7589,-1.7589,-1.7589,-1.7589,-1.7589,-1.7589,-1.7589,-1.7589,-1.7589,-1.7589,-1.7589,-1.7589,-1.7589,-1.7589,-1.7589,-1.7589,-1.7589,-1.7589,-1.7589,-1.7589,-1.7589,-1.7589,-1.7589,-1.7589,-1.7589,-1.7589,-1.7589,-1.7589,-1.7589,-1.7589,-1.7589,-1.7589,-1.7589,-1.7589,-1.7589,-1.7589,-2.5786,-2.4777,-2.4211,-2.3637,-2.3135,-2.3144,-2.3144,-2.3144,-2.3144,-2.3144,-2.3193,-2.3369,-2.3594,-2.3789,-2.3965,-2.4189,-2.4316,-2.415,-2.4111,-2.4004,-2.3672,-2.3457,-2.3467,-2.3223,-2.3164,-2.3144,-2.3144,-2.3047,-2.3047,-2.2394,-2.2208,-2.1845,-2.0944,-2.0124,-1.9488,-1.8864,-1.7948,-1.7037,-1.6756,-1.648,-1.5825,-1.5825,-1.5825,-1.5825,-1.5825,-1.5825,-1.5825,-1.5825,-1.5825,-1.5825,-1.5825,-1.5825,-1.5825,-1.5825,-1.5825,-1.5825,-1.5825,-1.5825,-1.5872,-1.6099,-1.6246,-1.6373,-1.6847,-1.7141,-1.7208,-1.7428,-1.7575,-1.7589,-1.7589,-1.7589,-1.7589,-1.7589,-1.7589,-1.7589,-1.7589,-1.7589,-1.7589,-1.7589,-1.7589,-1.7589,-1.7589,-1.7589,-1.7589,-1.7589,-1.7589,-1.7589,-1.7589,-1.7589,-1.7589,-1.7589,-1.7589,-1.7589,-1.7589,-1.7589,-1.7589,-1.7589,-1.7589,-1.7589,-1.7589,-1.7589,-1.7589,-1.7589,-1.7589,-1.7589,-1.7589,-1.7589,-1.7589,-1.7589,-1.7589,-1.7589,-1.7589,-1.7589,-1.7589,-1.7589,-1.7589,-2.4702,-2.4372,-2.3464,-2.3144,-2.3144,-2.3144,-2.3144,-2.3144,-2.3144,-2.3144,-2.3144,-2.3164,-2.335,-2.3584,-2.3682,-2.3828,-2.4121,-2.3769,-2.3672,-2.3594,-2.335,-2.3164,-2.3144,-2.3144,-2.3144,-2.3047,-2.2677,-2.2765,-2.2492,-2.1845,-2.1293,-2.0666,-1.977,-1.878,-1.7963,-1.7591,-1.6669,-1.6197,-1.5825,-1.5825,-1.5825,-1.5825,-1.5825,-1.5825,-1.5825,-1.5825,-1.5825,-1.5825,-1.5825,-1.5825,-1.5825,-1.5825,-1.5825,-1.5825,-1.5825,-1.5825,-1.5825,-1.5825,-1.5905,-1.6199,-1.644,-1.6486,-1.6987,-1.7281,-1.7402,-1.7468,-1.7589,-1.7589,-1.7589,-1.7589,-1.7589,-1.7589,-1.7589,-1.7589,-1.7589,-1.7589,-1.7589,-1.7589,-1.7589,-1.7589,-1.7589,-1.7589,-1.7589,-1.7589,-1.7589,-1.7589,-1.7589,-1.7589,-1.7589,-1.7589,-1.7589,-1.7589,-1.7589,-1.7589,-1.7589,-1.7589,-1.7589,-1.7589,-1.7589,-1.7589,-1.7589,-1.7589,-1.7589,-1.7589,-1.7589,-1.7589,-1.7589,-1.7589,-1.7589,-1.7589,-1.7589,-1.7589,-1.7589,-1.7589,-1.7589,-2.4211,-2.3309,-2.3135,-2.3144,-2.3144,-2.3144,-2.3144,-2.3144,-2.3144,-2.3144,-2.3144,-2.3144,-2.3184,-2.3252,-2.3252,-2.3281,-2.3301,-2.333,-2.3301,-2.3271,-2.3184,-2.3144,-2.3144,-2.3144,-2.3144,-2.296,-2.2129,-2.1569,-2.1391,-2.1203,-2.0567,-1.967,-1.8588,-1.7785,-1.7412,-1.6669,-1.6015,-1.5825,-1.5825,-1.5825,-1.5825,-1.5825,-1.5825,-1.5825,-1.5825,-1.5825,-1.5825,-1.5825,-1.5825,-1.5825,-1.5825,-1.5825,-1.5825,-1.5825,-1.5825,-1.5825,-1.5825,-1.5832,-1.5932,-1.6306,-1.6567,-1.6653,-1.7074,-1.7315,-1.7402,-1.7482,-1.7589,-1.7589,-1.7589,-1.7589,-1.7589,-1.7589,-1.7589,-1.7589,-1.7589,-1.7589,-1.7589,-1.7589,-1.7589,-1.7589,-1.7589,-1.7589,-1.7589,-1.7589,-1.7589,-1.7589,-1.7589,-1.7589,-1.7589,-1.7589,-1.7589,-1.7589,-1.7589,-1.7589,-1.7589,-1.7589,-1.7589,-1.7589,-1.7589,-1.7589,-1.7589,-1.7589,-1.7589,-1.7589,-1.7589,-1.7589,-1.7589,-1.7589,-1.7589,-1.7589,-1.7589,-1.7589,-1.7589,-1.7589,-1.7589,-2.3113,-2.3135,-2.3144,-2.3144,-2.3144,-2.3144,-2.3144,-2.3144,-2.3144,-2.3144,-2.3144,-2.3144,-2.3144,-2.3144,-2.3144,-2.3144,-2.3144,-2.3144,-2.3144,-2.3144,-2.3144,-2.3144,-2.3144,-2.3144,-2.3144,-2.2677,-2.1933,-2.0845,-2.0395,-1.9588,-1.8864,-1.8403,-1.7304,-1.6574,-1.6763,-1.6109,-1.5825,-1.5825,-1.5825,-1.5825,-1.5825,-1.5825,-1.5825,-1.5825,-1.5825,-1.5825,-1.5825,-1.5825,-1.5825,-1.5825,-1.5825,-1.5825,-1.5825,-1.5825,-1.5825,-1.5825,-1.5825,-1.5912,-1.6106,-1.648,-1.664,-1.6867,-1.7241,-1.7488,-1.7435,-1.7488,-1.7589,-1.7589,-1.7589,-1.7589,-1.7589,-1.7589,-1.7589,-1.7589,-1.7589,-1.7589,-1.7589,-1.7589,-1.7589,-1.7589,-1.7589,-1.7589,-1.7589,-1.7589,-1.7589,-1.7589,-1.7589,-1.7589,-1.7589,-1.7589,-1.7589,-1.7589,-1.7589,-1.7589,-1.7589,-1.7589,-1.7589,-1.7589,-1.7589,-1.7589,-1.7589,-1.7589,-1.7589,-1.7589,-1.7589,-1.7589,-1.7589,-1.7589,-1.7589,-1.7589,-1.7589,-1.7589,-1.7589,-1.7589,-1.7589,-2.2314,-2.2969,-2.2988,-2.296,-2.3144,-2.3144,-2.3144,-2.3144,-2.3144,-2.3144,-2.3144,-2.3144,-2.3144,-2.3144,-2.3144,-2.3144,-2.3144,-2.3144,-2.3144,-2.3144,-2.3144,-2.3144,-2.3144,-2.3144,-2.295,-2.2677,-2.1212,-2.0124,-1.8948,-1.8041,-1.7311,-1.7225,-1.6473,-1.592,-1.5825,-1.5825,-1.5825,-1.5825,-1.5825,-1.5825,-1.5825,-1.5825,-1.5825,-1.5825,-1.5825,-1.5825,-1.5825,-1.5825,-1.5825,-1.5825,-1.5825,-1.5825,-1.5825,-1.5825,-1.5825,-1.5825,-1.5825,-1.5959,-1.6219,-1.654,-1.684,-1.7134,-1.7395,-1.7569,-1.7569,-1.7589,-1.7589,-1.7589,-1.7589,-1.7589,-1.7589,-1.7589,-1.7589,-1.7589,-1.7589,-1.7589,-1.7589,-1.7589,-1.7589,-1.7589,-1.7589,-1.7589,-1.7589,-1.7589,-1.7589,-1.7589,-1.7589,-1.7589,-1.7589,-1.7589,-1.7589,-1.7589,-1.7589,-1.7589,-1.7589,-1.7589,-1.7589,-1.7589,-1.7589,-1.7589,-1.7589,-1.7589,-1.7589,-1.7589,-1.7589,-1.7589,-1.7589,-1.7589,-1.7589,-1.7589,-1.7589,-1.7589,-1.7589,-1.7582,-1.7153,-2.2148,-2.2559,-2.2559,-2.2773,-2.3125,-2.3144,-2.3144,-2.3144,-2.3144,-2.3144,-2.3144,-2.3144,-2.3144,-2.3144,-2.3144,-2.3144,-2.3144,-2.3144,-2.3144,-2.3144,-2.3144,-2.3144,-2.3144,-2.296,-2.258,-2.1667,-2.0576,-1.9222,-1.7863,-1.6936,-1.6292,-1.592,-1.592,-1.5825,-1.5825,-1.5825,-1.5825,-1.5825,-1.5825,-1.5825,-1.5825,-1.5825,-1.5825,-1.5825,-1.5825,-1.5825,-1.5825,-1.5825,-1.5825,-1.5825,-1.5825,-1.5825,-1.5825,-1.5825,-1.5825,-1.5825,-1.5825,-1.5979,-1.6253,-1.6547,-1.684,-1.7134,-1.7395,-1.7589,-1.7589,-1.7589,-1.7589,-1.7589,-1.7589,-1.7589,-1.7589,-1.7589,-1.7589,-1.7589,-1.7589,-1.7589,-1.7589,-1.7589,-1.7589,-1.7589,-1.7589,-1.7589,-1.7589,-1.7589,-1.7589,-1.7589,-1.7589,-1.7589,-1.7589,-1.7589,-1.7589,-1.7589,-1.7589,-1.7589,-1.7589,-1.7589,-1.7589,-1.7589,-1.7589,-1.7589,-1.7589,-1.7589,-1.7582,-1.7589,-1.7589,-1.7589,-1.7477,-1.7259,-1.7147,-1.7477,-1.7589,-1.7477,-1.7041,-1.6611,-1.6174,-2.1484,-2.2119,-2.2129,-2.2373,-2.2764,-2.3027,-2.3144,-2.3144,-2.3144,-2.3144,-2.3144,-2.3144,-2.3144,-2.3144,-2.3144,-2.3144,-2.3144,-2.3144,-2.3144,-2.3144,-2.3144,-2.3144,-2.3144,-2.3047,-2.2862,-2.1943,-2.0486,-1.9397,-1.8764,-1.6749,-1.6015,-1.5825,-1.5825,-1.5825,-1.5825,-1.5825,-1.5825,-1.5825,-1.5825,-1.5825,-1.5825,-1.5825,-1.5825,-1.5825,-1.5825,-1.5825,-1.5825,-1.5825,-1.5825,-1.5825,-1.5825,-1.5825,-1.5825,-1.5825,-1.5825,-1.5825,-1.5825,-1.5985,-1.6259,-1.6567,-1.6907,-1.7328,-1.7522,-1.7589,-1.7589,-1.7589,-1.7589,-1.7589,-1.7589,-1.7589,-1.7589,-1.7589,-1.7589,-1.7589,-1.7589,-1.7589,-1.7589,-1.7589,-1.7589,-1.7589,-1.7589,-1.7589,-1.7589,-1.7589,-1.7589,-1.7589,-1.7589,-1.7589,-1.7589,-1.7589,-1.7589,-1.7589,-1.7589,-1.7589,-1.7589,-1.7589,-1.7589,-1.7589,-1.7582,-1.7364,-1.7259,-1.7582,-1.7582,-1.7582,-1.7364,-1.7147,-1.6823,-1.6605,-1.6605,-1.7041,-1.7147,-1.7147,-1.6605,-1.5749,-1.499,-2.1084,-2.1855,-2.1894,-2.2197,-2.2705,-2.3018,-2.3144,-2.3144,-2.3144,-2.3144,-2.3144,-2.3144,-2.3144,-2.3144,-2.3144,-2.3144,-2.3144,-2.3144,-2.3144,-2.3144,-2.3144,-2.3144,-2.3144,-2.296,-2.2589,-2.1952,-2.0584,-1.9306,-1.794,-1.656,-1.6008,-1.5825,-1.5825,-1.5825,-1.5825,-1.5825,-1.5825,-1.5825,-1.5825,-1.5825,-1.5825,-1.5825,-1.5825,-1.5825,-1.5825,-1.5825,-1.5825,-1.5825,-1.5825,-1.5825,-1.5825,-1.5825,-1.5825,-1.5825,-1.5825,-1.5825,-1.5858,-1.5972,-1.6266,-1.666,-1.7048,-1.7468,-1.7562,-1.7589,-1.7589,-1.7589,-1.7589,-1.7589,-1.7589,-1.7589,-1.7589,-1.7589,-1.7589,-1.7589,-1.7589,-1.7589,-1.7589,-1.7589,-1.7589,-1.7589,-1.7589,-1.7589,-1.7589,-1.7589,-1.7589,-1.7589,-1.7589,-1.7589,-1.7589,-1.7589,-1.7589,-1.7589,-1.7589,-1.7589,-1.7589,-1.7477,-1.7371,-1.7364,-1.7147,-1.6711,-1.6711,-1.6823,-1.6499,-1.5749,-1.5636,-1.6174,-1.5956,-1.5204,-1.5743,-1.6605,-1.628,-1.563,-1.531,-1.4347,-1.3588,-2.1084,-2.1855,-2.1894,-2.2353,-2.3057,-2.3125,-2.3144,-2.3144,-2.3144,-2.3144,-2.3144,-2.3144,-2.3144,-2.3144,-2.3144,-2.3144,-2.3144,-2.3144,-2.3144,-2.3144,-2.2862,-2.296,-2.2862,-2.2589,-2.1587,-2.0042,-1.9222,-1.8126,-1.6379,-1.6008,-1.5825,-1.5825,-1.5825,-1.5825,-1.5825,-1.5825,-1.5825,-1.5825,-1.5825,-1.5825,-1.5825,-1.5825,-1.5825,-1.5825,-1.5825,-1.5825,-1.5825,-1.5825,-1.5825,-1.5825,-1.5825,-1.5825,-1.5825,-1.5825,-1.5825,-1.5825,-1.5825,-1.5979,-1.6279,-1.6814,-1.7201,-1.7508,-1.7589,-1.7589,-1.7589,-1.7589,-1.7589,-1.7589,-1.7589,-1.7589,-1.7589,-1.7589,-1.7589,-1.7589,-1.7589,-1.7589,-1.7589,-1.7589,-1.7589,-1.7589,-1.7589,-1.7589,-1.7589,-1.7589,-1.7589,-1.7589,-1.7589,-1.7589,-1.7589,-1.7589,-1.7589,-1.7371,-1.7364,-1.6935,-1.6935,-1.7153,-1.7153,-1.7041,-1.6605,-1.5849,-1.5204,-1.499,-1.4454,-1.3809,-1.4239,-1.499,-1.4341,-1.3583,-1.4234,-1.4556,-1.4019,-1.348,-1.3372,-1.2945,-1.1969,-2.1084,-2.1875,-2.1894,-2.2373,-2.3076,-2.3144,-2.3144,-2.3144,-2.3144,-2.3144,-2.3144,-2.3144,-2.3144,-2.3144,-2.3144,-2.3144,-2.3144,-2.3144,-2.3144,-2.296,-2.2394,-2.1933,-2.1756,-2.1221,-2.0314,-1.9497,-1.8772,-1.8141,-1.7225,-1.6292,-1.5825,-1.5825,-1.5825,-1.5825,-1.5825,-1.5825,-1.5825,-1.5825,-1.5825,-1.5825,-1.5825,-1.5825,-1.5825,-1.5825,-1.5825,-1.5825,-1.5825,-1.5825,-1.5825,-1.5825,-1.5825,-1.5825,-1.5825,-1.5825,-1.5825,-1.5832,-1.5845,-1.6066,-1.6406,-1.682,-1.7081,-1.7382,-1.7582,-1.7582,-1.7589,-1.7589,-1.7589,-1.7589,-1.7589,-1.7589,-1.7589,-1.7589,-1.7589,-1.7589,-1.7589,-1.7589,-1.7589,-1.7589,-1.7589,-1.7589,-1.7589,-1.7589,-1.7589,-1.7589,-1.7589,-1.7589,-1.7589,-1.7589,-1.7589,-1.7589,-1.7589,-1.7147,-1.6823,-1.6387,-1.6174,-1.6605,-1.6287,-1.5962,-1.5204,-1.4234,-1.3696,-1.3593,-1.3588,-1.3696,-1.3696,-1.3696,-1.348,-1.3264,-1.2507,-1.229,-1.1969,-1.186,-1.1864,-1.1105,-1.0021,-2.1084,-2.1855,-2.1894,-2.2373,-2.3066,-2.3144,-2.3144,-2.3144,-2.3144,-2.3144,-2.3144,-2.3144,-2.3144,-2.3144,-2.3144,-2.3144,-2.3144,-2.3144,-2.2589,-2.2492,-2.1747,-2.1203,-2.0576,-1.9852,-1.9405,-1.8772,-1.8141,-1.7505,-1.6763,-1.6204,-1.5825,-1.5825,-1.5825,-1.5825,-1.5825,-1.5825,-1.5825,-1.5825,-1.5825,-1.5825,-1.5825,-1.5825,-1.5825,-1.5825,-1.5825,-1.5825,-1.5825,-1.5825,-1.5825,-1.5825,-1.5825,-1.5825,-1.5825,-1.5825,-1.5825,-1.5832,-1.5979,-1.6172,-1.6433,-1.6673,-1.6967,-1.7348,-1.7502,-1.7582,-1.7589,-1.7589,-1.7589,-1.7589,-1.7589,-1.7589,-1.7589,-1.7589,-1.7589,-1.7589,-1.7589,-1.7589,-1.7589,-1.7589,-1.7589,-1.7589,-1.7589,-1.7589,-1.7589,-1.7589,-1.7589,-1.7589,-1.7589,-1.7477,-1.7477,-1.7582,-1.7582,-1.7259,-1.6929,-1.6605,-1.6387,-1.628,-1.5849,-1.499,-1.4019,-1.3156,-1.3372,-1.3485,-1.348,-1.3259,-1.2832,-1.2615,-1.3156,-1.294,-1.1647,-1.0781,-1.0237,-1.0241,-1.0351,-0.979,-0.8906,-2.1074,-2.1807,-2.1875,-2.2334,-2.3027,-2.3115,-2.3144,-2.3144,-2.3144,-2.3144,-2.3144,-2.3144,-2.3144,-2.3144,-2.3144,-2.3144,-2.296,-2.296,-2.2306,-2.148,-2.0845,-2.0215,-1.9579,-1.9131,-1.8311,-1.7863,-1.7412,-1.6756,-1.592,-1.5825,-1.5825,-1.5825,-1.5825,-1.5825,-1.5825,-1.5825,-1.5825,-1.5825,-1.5825,-1.5825,-1.5825,-1.5825,-1.5825,-1.5825,-1.5825,-1.5825,-1.5825,-1.5825,-1.5825,-1.5825,-1.5825,-1.5825,-1.5825,-1.5825,-1.5825,-1.5899,-1.6086,-1.6186,-1.6333,-1.654,-1.6767,-1.7101,-1.7328,-1.7482,-1.7589,-1.7589,-1.7589,-1.7589,-1.7589,-1.7589,-1.7589,-1.7589,-1.7589,-1.7589,-1.7589,-1.7589,-1.7589,-1.7589,-1.7589,-1.7589,-1.7589,-1.7589,-1.7589,-1.7589,-1.7153,-1.6929,-1.6823,-1.6499,-1.6611,-1.7477,-1.7477,-1.7477,-1.7259,-1.7147,-1.6605,-1.5524,-1.4234,-1.3048,-1.3372,-1.2832,-1.3048,-1.2729,-1.2186,-1.1751,-1.1319,-1.1319,-1.1538,-1.1105,-1.0131,-0.9482,-0.9592,-0.9478,-0.9915,-0.9406,-0.8838,-2.0898,-2.1406,-2.1426,-2.1914,-2.2676,-2.3008,-2.3144,-2.3144,-2.3144,-2.3144,-2.3144,-2.3144,-2.3105,-2.3144,-2.3144,-2.3144,-2.2775,-2.2306,-2.1747,-2.0935,-1.9852,-1.8864,-1.8041,-1.749,-1.6749,-1.6567,-1.6386,-1.6292,-1.592,-1.5825,-1.5825,-1.5825,-1.5825,-1.5825,-1.5825,-1.5825,-1.5825,-1.5825,-1.5825,-1.5825,-1.5825,-1.5825,-1.5825,-1.5825,-1.5825,-1.5825,-1.5825,-1.5825,-1.5825,-1.5825,-1.5825,-1.5825,-1.5825,-1.5825,-1.5825,-1.5832,-1.5932,-1.6025,-1.6233,-1.6346,-1.652,-1.6754,-1.6934,-1.7221,-1.7415,-1.7549,-1.7549,-1.7575,-1.7582,-1.7589,-1.7589,-1.7589,-1.7589,-1.7589,-1.7582,-1.747,-1.7364,-1.7153,-1.7147,-1.6829,-1.6829,-1.6829,-1.6935,-1.7041,-1.6605,-1.628,-1.5849,-1.5524,-1.563,-1.6387,-1.6717,-1.6717,-1.6393,-1.5962,-1.4669,-1.3372,-1.2186,-1.1214,-1.1969,-1.2077,-1.1214,-1.0891,-1.0457,-1.0562,-1.0891,-1.0351,-0.9482,-0.9375,-0.9809,-0.9702,-0.9699,-0.9482,-0.9244,-0.8934,-0.8798,-2.083,-2.1211,-2.124,-2.1641,-2.2246,-2.2529,-2.2715,-2.2861,-2.2891,-2.2959,-2.3028,-2.2949,-2.2978,-2.3135,-2.3144,-2.3047,-2.3047,-2.2492,-2.1756,-2.0124,-1.8948,-1.7948,-1.7037,-1.6298,-1.6015,-1.5825,-1.5825,-1.592,-1.5825,-1.5825,-1.5825,-1.5825,-1.5825,-1.5825,-1.5825,-1.5825,-1.5825,-1.5825,-1.5825,-1.5825,-1.5825,-1.5825,-1.5825,-1.5825,-1.5825,-1.5825,-1.5825,-1.5825,-1.5825,-1.5825,-1.5825,-1.5825,-1.5825,-1.5825,-1.5825,-1.5832,-1.5845,-1.5925,-1.6046,-1.6079,-1.6266,-1.644,-1.6547,-1.678,-1.7074,-1.7261,-1.7422,-1.7542,-1.7569,-1.7589,-1.7589,-1.7589,-1.7589,-1.7589,-1.747,-1.7252,-1.7035,-1.6711,-1.628,-1.5855,-1.5743,-1.5636,-1.5743,-1.5956,-1.5743,-1.499,-1.4556,-1.4341,-1.4341,-1.4663,-1.499,-1.5097,-1.477,-1.4341,-1.3048,-1.2299,-1.1973,-1.1647,-1.2186,-1.1864,-1.0241,-1.0241,-1.1105,-1.1105,-1.1,-1.0131,-0.9047,-0.9809,-1.0241,-0.9915,-0.9464,-0.9216,-0.9043,-0.8817,-0.872,-2.081,-2.1172,-2.1221,-2.1426,-2.1768,-2.1885,-2.2109,-2.2393,-2.2373,-2.2685,-2.2978,-2.2705,-2.2783,-2.2999,-2.3144,-2.3144,-2.2775,-2.2315,-2.1123,-1.9497,-1.858,-1.7576,-1.648,-1.5825,-1.5825,-1.5825,-1.5825,-1.5825,-1.5825,-1.5825,-1.5825,-1.5825,-1.5825,-1.5825,-1.5825,-1.5825,-1.5825,-1.5825,-1.5825,-1.5825,-1.5825,-1.5825,-1.5825,-1.5825,-1.5825,-1.5825,-1.5825,-1.5825,-1.5825,-1.5825,-1.5825,-1.5825,-1.5825,-1.5825,-1.5825,-1.5825,-1.5825,-1.5845,-1.5885,-1.5905,-1.6012,-1.6152,-1.6246,-1.6433,-1.6687,-1.6981,-1.7174,-1.7308,-1.7328,-1.7408,-1.7428,-1.7535,-1.7477,-1.7147,-1.6711,-1.6174,-1.5524,-1.5204,-1.499,-1.4561,-1.4454,-1.4449,-1.4449,-1.4556,-1.4234,-1.348,-1.3053,-1.3048,-1.2724,-1.2832,-1.3372,-1.3588,-1.3804,-1.3588,-1.2837,-1.2191,-1.2408,-1.2403,-1.2186,-1.1647,-1.0025,-1.0781,-1.2186,-1.1324,-1.0241,-0.9699,-0.9044,-0.9699,-0.9805,-0.9482,-0.9016,-0.8842,-0.8747,-0.8615,-0.8652,-2.0625,-2.0752,-2.1094,-2.1123,-2.0996,-2.1611,-2.1728,-2.1553,-2.1533,-2.2139,-2.291,-2.2734,-2.2744,-2.3008,-2.3135,-2.3047,-2.2765,-2.1676,-2.0223,-1.8948,-1.794,-1.7117,-1.592,-1.5825,-1.5825,-1.5825,-1.5825,-1.5825,-1.5825,-1.5825,-1.5825,-1.5825,-1.5825,-1.5825,-1.5825,-1.5825,-1.5825,-1.5825,-1.5825,-1.5825,-1.5825,-1.5825,-1.5825,-1.5825,-1.5825,-1.5825,-1.5825,-1.5825,-1.5825,-1.5825,-1.5825,-1.5825,-1.5825,-1.5825,-1.5825,-1.5825,-1.5825,-1.5825,-1.5825,-1.5825,-1.5899,-1.5905,-1.5992,-1.6139,-1.6353,-1.664,-1.686,-1.6981,-1.7005,-1.7111,-1.7127,-1.7154,-1.7035,-1.6387,-1.5849,-1.4883,-1.3911,-1.3696,-1.348,-1.3264,-1.3156,-1.3053,-1.3053,-1.2837,-1.262,-1.2186,-1.1755,-1.1433,-1.0566,-1.0457,-1.1864,-1.2295,-1.3161,-1.2945,-1.2191,-1.1542,-1.1433,-1.0891,-1.0347,-0.9915,-0.9592,-1.0135,-1.0672,-1.0025,-0.9154,-0.8937,-0.8937,-0.9047,-0.9047,-0.8937,-0.8876,-0.8801,-0.8655,-0.8516,-0.8591,-2.0576,-2.0596,-2.083,-2.0801,-2.0684,-2.1103,-2.126,-2.1211,-2.1035,-2.1562,-2.2471,-2.2393,-2.2559,-2.2969,-2.3135,-2.2589,-2.2217,-2.1025,-1.9761,-1.8403,-1.7397,-1.6567,-1.6109,-1.5825,-1.5825,-1.5825,-1.5825,-1.5825,-1.5825,-1.5825,-1.5825,-1.5825,-1.5825,-1.5825,-1.5825,-1.5825,-1.5825,-1.5825,-1.5825,-1.5825,-1.5825,-1.5825,-1.5825,-1.5825,-1.5825,-1.5825,-1.5825,-1.5825,-1.5825,-1.5825,-1.5825,-1.5825,-1.5825,-1.5825,-1.5825,-1.5825,-1.5825,-1.5825,-1.5825,-1.5825,-1.5825,-1.5825,-1.5832,-1.6005,-1.5813,-1.5993,-1.5526,-1.5663,-1.5919,-1.6037,-1.5264,-1.5079,-1.4984,-1.4663,-1.4341,-1.3804,-1.2507,-1.1538,-1.1214,-1.0891,-1.0781,-1.0781,-1.0781,-1.0781,-1.0566,-1.0566,-1.0131,-1.0241,-0.9372,-0.8937,-1.0135,-1.0891,-1.1651,-1.1542,-1.046,-1.0025,-0.9915,-0.9372,-0.8937,-0.9047,-0.9265,-0.9047,-0.8937,-0.8937,-0.8937,-0.8937,-0.8937,-0.8937,-0.8937,-0.8937,-0.8852,-0.8754,-0.8591,-0.8445,-0.8489,-2.0576,-2.0576,-2.0576,-2.0576,-2.0576,-2.0586,-2.0791,-2.1035,-2.0762,-2.1045,-2.1705,-2.1719,-2.2109,-2.2563,-2.2775,-2.1943,-2.1123,-2.0215,-1.9039,-1.8226,-1.7412,-1.648,-1.6015,-1.5825,-1.5825,-1.5825,-1.5825,-1.5825,-1.5825,-1.5825,-1.5825,-1.5825,-1.5825,-1.5825,-1.5825,-1.5825,-1.5825,-1.5825,-1.5825,-1.5825,-1.5825,-1.5825,-1.5825,-1.5825,-1.5825,-1.5825,-1.5825,-1.5825,-1.5825,-1.5825,-1.5825,-1.5825,-1.5825,-1.5825,-1.5825,-1.5825,-1.5825,-1.5825,-1.5825,-1.5825,-1.5825,-1.5825,-1.5825,-1.5737,-1.5553,-1.5036,-1.4664,-1.4451,-1.4688,-1.4444,-1.3758,-1.3367,-1.3367,-1.294,-1.2724,-1.2398,-1.0996,-0.9805,-0.9482,-0.9154,-0.9158,-0.9158,-0.9158,-0.9047,-0.9047,-0.8937,-0.8937,-0.8937,-0.8937,-0.8937,-0.9482,-0.9699,-1.0025,-0.9592,-0.9047,-0.9158,-0.9265,-0.9154,-0.8937,-0.8937,-0.8937,-0.8937,-0.8937,-0.8937,-0.8937,-0.8937,-0.8937,-0.8937,-0.8937,-0.8937,-0.8825,-0.871,-0.855,-0.8425,-0.8381,-2.0576,-2.0576,-2.0576,-2.0576,-2.0576,-2.0576,-2.0615,-2.0674,-2.0625,-2.0879,-2.1086,-2.0717,-2.0674,-2.12,-2.1539,-2.0926,-1.9861,-1.9131,-1.8588,-1.7684,-1.6763,-1.6204,-1.5927,-1.5825,-1.5825,-1.5825,-1.5825,-1.5825,-1.5825,-1.5825,-1.5825,-1.5825,-1.5825,-1.5825,-1.5825,-1.5825,-1.5825,-1.5825,-1.5825,-1.5825,-1.5825,-1.5825,-1.5825,-1.5825,-1.5825,-1.5825,-1.5825,-1.5825,-1.5825,-1.5825,-1.5825,-1.5825,-1.5825,-1.5825,-1.5825,-1.5825,-1.5825,-1.5825,-1.5825,-1.5825,-1.5825,-1.5825,-1.5825,-1.5635,-1.5255,-1.4573,-1.4028,-1.3164,-1.3148,-1.3044,-1.2568,-1.2768,-1.2724,-1.1538,-1.0891,-1.0457,-0.9478,-0.9265,-0.9154,-0.8937,-0.8937,-0.9047,-0.8937,-0.8937,-0.8937,-0.8937,-0.8937,-0.8937,-0.8937,-0.8937,-0.8937,-0.8937,-0.8937,-0.8937,-0.8937,-0.8937,-0.9047,-0.8937,-0.8937,-0.8937,-0.8937,-0.8937,-0.8937,-0.8937,-0.8937,-0.8937,-0.8937,-0.8937,-0.8937,-0.892,-0.8801,-0.8672,-0.8513,-0.8377,-0.8309]},{"header":{"parameterUnit":"m.s-1","parameterCategory":1,"la1":31.0,"la2":29.5877,"lo1":-88.7671,"lo2":-86.6584,"dy":0.0162,"dx":0.0185,"nx":115,"ny":88,"refTime":"2026-03-19T00:00:00:Z","depth":0,"parameterNumber":3,"parameterNumberName":"V-component_of_WINDS"},"data":[0.0,0.0,0.0,0.0,0.0,0.0,0.0,0.0,0.0,0.0,0.0,0.0,0.0,0.0,0.0,0.0,0.0,0.0,0.0,0.0,0.0,0.0,0.0,0.0,0.0,0.0,0.0,0.0,0.0,0.0,0.0,0.0,0.0,0.0,0.0,0.0,0.0,0.0,0.0,0.0,0.0,0.0,0.0,0.0,0.0,0.0,0.0,0.0,0.0,0.0,0.0,0.0,0.0,0.0,0.0,0.0,0.0,0.0,0.0,0.0,0.0,0.0,0.0,0.0,0.0,0.0,0.0,0.0,0.0,0.0,0.0,0.0,0.0,0.0,0.0,0.0,0.0,0.0,0.0,0.0,0.0,0.0,0.0,0.0,0.0,0.0,0.0,0.0,0.0,0.0,0.0,0.0,0.0,0.0,0.0,0.0,0.0,0.0,0.0,0.0,0.0,0.0,0.0,0.0,0.0,0.0,0.0,0.0,0.0,0.0,0.0,0.0,0.0,0.0,0.0,0.0,0.0,0.0,0.0,0.0,0.0,0.0,0.0,0.0,0.0,0.0,0.0,0.0,0.0,0.0,0.0,0.0,0.0,0.0,0.0,0.0,0.0,0.0,0.0,0.0,0.0,0.0,0.0,0.0,0.0,0.0,0.0,0.0,0.0,0.0,0.0,0.0,0.0,0.0,0.0,0.0,0.0,0.0,0.0,0.0,0.0,0.0,0.0,0.0,0.0,0.0,0.0,0.0,0.0,0.0,0.0,0.0,0.0,0.0,0.0,0.0,0.0,0.0,0.0,0.0,0.0,0.0,0.0,0.0,0.0,0.0,0.0,0.0,0.0,0.0,0.0,0.0,0.0,0.0,0.0,0.0,0.0,0.0,0.0,0.0,0.0,0.0,0.0,0.0,0.0,0.0,0.0,0.0,0.0,0.0,0.0,0.0,0.0,0.0,0.0,0.0,0.0,0.0,0.0,0.0,0.0,0.0,0.0,0.0,0.0,0.0,0.0,0.0,0.0,0.0,0.0,0.0,0.0,0.0,0.0,0.0,0.0,0.0,0.0,0.0,0.0,0.0,0.0,0.0,0.0,0.0,0.0,0.0,0.0,0.0,0.0,0.0,0.0,0.0,0.0,0.0,0.0,0.0,0.0,0.0,0.0,0.0,0.0,0.0,0.0,0.0,0.0,0.0,0.0,0.0,0.0,0.0,0.0,0.0,0.0,0.0,0.0,0.0,0.0,0.0,0.0,0.0,0.0,0.0,0.0,0.0,0.0,0.0,0.0,0.0,0.0,0.0,0.0,0.0,0.0,0.0,0.0,0.0,0.0,0.0,0.0,0.0,0.0,0.0,0.0,0.0,0.0,0.0,0.0,0.0,0.0,0.0,0.0,0.0,0.0,0.0,0.0,0.0,0.0,0.0,0.0,0.0,0.0,0.0,0.0,0.0,0.0,0.0,0.0,0.0,0.0,0.0,0.0,0.0,0.0,0.0,0.0,0.0,0.0,0.0,0.0,0.0,0.0,0.0,0.0,0.0,0.0,0.0,0.0,0.0,0.0,0.0,0.0,0.0,0.0,0.0,0.0,0.0,0.0,0.0,0.0,0.0,0.0,0.0,0.0,0.0,0.0,0.0,0.0,0.0,0.0,0.0,0.0,0.0,0.0,0.0,0.0,0.0,0.0,0.0,0.0,0.0,0.0,0.0,0.0,0.0,0.0,0.0,0.0,0.0,0.0,0.0,0.0,0.0,0.0,0.0,0.0,0.0,0.0,0.0,0.0,0.0,0.0,0.0,0.0,0.0,0.0,0.0,0.0,0.0,0.0,0.0,0.0,0.0,0.0,0.0,0.0,0.0,0.0,0.0,0.0,0.0,0.0,0.0,0.0,0.0,0.0,0.0,0.0,0.0,0.0,0.0,0.0,0.0,0.0,0.0,0.0,0.0,0.0,0.0,0.0,0.0,0.0,0.0,0.0,0.0,0.0,0.0,0.0,0.0,0.0,0.0,0.0,0.0,0.0,0.0,0.0,0.0,0.0,0.0,0.0,0.0,0.0,0.0,0.0,0.0,0.0,0.0,0.0,0.0,0.0,0.0,0.0,0.0,0.0,0.0,0.0,0.0,0.0,0.0,0.0,0.0,0.0,0.0,0.0,0.0,0.0,0.0,0.0,0.0,0.0,0.0,0.0,0.0,0.0,0.0,0.0,0.0,0.0,0.0,0.0,0.0,0.0,0.0,0.0,0.0,0.0,0.0,0.0,0.0,0.0,0.0,0.0,0.0,0.0,0.0,0.0,0.0,0.0,0.0,0.0,0.0,0.0,0.0,0.0,0.0,0.0,0.0,0.0,0.0,0.0,0.0,0.0,0.0,0.0,0.0,0.0,0.0,0.0,0.0,0.0,0.0,0.0,0.0,0.0,0.0,0.0,0.0,0.0,0.0,0.0,0.0,0.0,0.0,0.0,0.0,0.0,0.0,0.0,0.0,0.0,0.0,0.0,0.0,0.0,0.0,0.0,0.0,0.0,0.0,0.0,0.0,0.0,0.0,0.0,0.0,0.0,0.0,0.0,0.0,0.0,0.0,0.0,0.0,0.0,0.0,0.0,0.0,0.0,0.0,0.0,0.0,0.0,0.0,0.0,0.0,0.0,0.0,0.0,0.0,0.0,0.0,0.0,0.0,0.0,0.0,0.0,0.0,0.0,0.0,0.0,0.0,0.0,0.0,0.0,0.0,0.0,0.0,0.0,0.0,0.0,0.0,0.0,0.0,0.0,0.0,0.0,0.0,0.0,0.0,0.0,0.0,0.0,0.0,0.0,0.0,0.0,0.0,0.0,0.0,0.0,0.0,0.0,0.0,0.0,0.0,0.0,0.0,0.0,0.0,0.0,0.0,0.0,0.0,0.0,0.0,0.0,0.0,0.0,0.0,0.0,0.0,0.0,0.0,0.0,0.0,0.0,0.0,0.0,0.0,0.0,0.0,0.0,0.0,0.0,0.0,0.0,0.0,0.0,0.0,0.0,0.0,0.0,0.0,0.0,0.0,0.0,0.0,0.0,0.0,0.0,0.0,0.0,0.0,0.0,0.0,0.0,0.0,0.0,0.0,0.0,0.0,0.0,0.0,0.0,0.0,0.0,0.0,0.0,0.0,0.0,0.0,0.0,0.0,0.0,0.0,0.0,0.0,0.0,0.0,0.0,0.0,0.0,0.0,0.0,0.0,0.0,0.0,0.0,0.0,0.0,0.0,0.0,0.0,0.0,0.0,0.0,0.0,0.0,0.0,0.0,0.0,0.0,0.0,0.0,0.0,0.0,0.0,0.0,0.0,0.0,0.0,0.0,0.0,0.0,0.0,0.0,0.0,0.0,0.0,0.0,0.0,0.0,0.0,0.0,0.0,0.0,0.0,0.0,0.0,0.0,0.0,0.0,0.0,0.0,0.0,0.0,0.0,0.0,0.0,0.0,0.0,0.0,0.0,0.0,0.0,0.0,0.0,0.0,0.0,0.0,0.0,0.0,0.0,0.0,0.0,0.0,0.0,0.0,0.0,0.0,0.0,0.0,0.0,0.0,0.0,0.0,0.0,0.0,0.0,0.0,0.0,0.0,0.0,0.0,0.0,0.0,0.0,0.0,0.0,0.0,0.0,0.0,0.0,0.0,0.0,0.0,0.0,0.0,0.0,0.0,0.0,0.0,0.0,0.0,0.0,0.0,0.0,0.0,0.0,0.0,0.0,0.0,0.0,0.0,0.0,0.0,0.0,0.0,0.0,0.0,0.0,0.0,0.0,0.0,0.0,0.0,0.0,0.0,0.0,0.0,0.0,0.0,0.0,0.0,0.0,0.0,0.0,0.0,0.0,0.0,0.0,0.0,0.0,0.0,0.0,0.0,0.0,0.0,0.0,0.0,0.0,0.0,0.0,0.0,0.0,0.0,0.0,0.0,0.0,0.0,0.0,0.0,0.0,0.0,0.0,0.0,0.0,0.0,0.0,0.0,0.0,0.0,0.0,0.0,0.0,0.0,0.0,0.0,0.0,0.0,0.0,0.0,0.0,0.0,0.0,0.0,0.0,0.0,0.0,0.0,0.0,0.0,0.0,0.0,0.0,0.0,0.0,0.0,0.0,0.0,0.0,0.0,0.0,0.0,0.0,0.0,0.0,0.0,0.0,0.0,0.0,0.0,0.0,0.0,0.0,0.0,0.0,0.0,0.0,0.0,0.0,0.0,0.0,0.0,0.0,0.0,0.0,0.0,0.0,0.0,0.0,0.0,0.0,0.0,0.0,-2.9406,0.0,0.0,0.0,0.0,0.0,0.0,0.0,0.0,0.0,0.0,0.0,0.0,0.0,0.0,0.0,0.0,0.0,0.0,0.0,0.0,0.0,0.0,0.0,0.0,0.0,0.0,0.0,0.0,0.0,0.0,0.0,0.0,0.0,0.0,0.0,0.0,0.0,0.0,0.0,0.0,0.0,0.0,0.0,0.0,0.0,0.0,0.0,0.0,0.0,0.0,0.0,0.0,0.0,0.0,0.0,0.0,0.0,0.0,0.0,0.0,0.0,0.0,0.0,0.0,0.0,0.0,0.0,0.0,0.0,0.0,0.0,0.0,0.0,0.0,0.0,0.0,0.0,0.0,0.0,0.0,0.0,0.0,0.0,0.0,0.0,0.0,0.0,0.0,0.0,0.0,0.0,0.0,0.0,0.0,0.0,0.0,0.0,0.0,0.0,0.0,0.0,0.0,0.0,0.0,0.0,0.0,0.0,0.0,0.0,0.0,-3.0933,-3.0147,-2.9761,-2.9362,-2.8905,0.0,0.0,0.0,0.0,0.0,0.0,0.0,0.0,0.0,0.0,0.0,0.0,0.0,0.0,0.0,0.0,0.0,0.0,0.0,0.0,0.0,0.0,0.0,0.0,0.0,0.0,0.0,0.0,0.0,0.0,0.0,0.0,0.0,0.0,0.0,0.0,0.0,0.0,0.0,0.0,0.0,0.0,0.0,0.0,0.0,0.0,0.0,0.0,0.0,0.0,0.0,0.0,0.0,0.0,0.0,0.0,0.0,0.0,0.0,0.0,0.0,0.0,0.0,0.0,0.0,0.0,0.0,0.0,0.0,0.0,0.0,0.0,0.0,0.0,0.0,0.0,0.0,0.0,0.0,0.0,0.0,0.0,0.0,0.0,0.0,0.0,0.0,0.0,0.0,0.0,0.0,0.0,0.0,0.0,0.0,0.0,0.0,0.0,0.0,0.0,0.0,0.0,0.0,0.0,0.0,0.0,0.0,0.0,0.0,0.0,0.0,0.0,-2.92,-2.8906,-2.8024,0.0,0.0,0.0,0.0,0.0,0.0,0.0,0.0,0.0,0.0,0.0,0.0,0.0,0.0,0.0,0.0,0.0,0.0,0.0,0.0,0.0,0.0,0.0,0.0,0.0,0.0,0.0,0.0,0.0,0.0,0.0,0.0,0.0,0.0,0.0,0.0,0.0,0.0,0.0,0.0,0.0,0.0,0.0,0.0,0.0,0.0,0.0,0.0,0.0,0.0,0.0,0.0,0.0,0.0,0.0,0.0,0.0,0.0,0.0,0.0,0.0,0.0,0.0,0.0,0.0,0.0,0.0,0.0,0.0,0.0,0.0,0.0,0.0,0.0,0.0,0.0,0.0,0.0,0.0,0.0,0.0,0.0,0.0,0.0,0.0,0.0,0.0,0.0,0.0,0.0,0.0,0.0,0.0,0.0,0.0,0.0,0.0,0.0,0.0,0.0,0.0,0.0,0.0,0.0,0.0,0.0,0.0,0.0,0.0,0.0,-2.9121,-2.9002,-2.8287,0.0,-2.7161,0.0,0.0,0.0,0.0,0.0,0.0,0.0,0.0,0.0,0.0,0.0,0.0,0.0,0.0,0.0,0.0,0.0,0.0,0.0,0.0,0.0,0.0,0.0,0.0,0.0,0.0,0.0,0.0,0.0,0.0,0.0,0.0,0.0,0.0,0.0,0.0,0.0,0.0,0.0,0.0,0.0,0.0,0.0,0.0,0.0,0.0,0.0,0.0,0.0,0.0,0.0,0.0,0.0,0.0,0.0,0.0,0.0,0.0,0.0,0.0,0.0,0.0,0.0,0.0,0.0,0.0,0.0,0.0,0.0,0.0,0.0,0.0,0.0,0.0,0.0,0.0,0.0,0.0,0.0,0.0,0.0,0.0,0.0,0.0,0.0,0.0,0.0,0.0,0.0,0.0,0.0,0.0,0.0,0.0,0.0,0.0,0.0,0.0,0.0,0.0,0.0,0.0,0.0,0.0,0.0,0.0,0.0,0.0,0.0,0.0,-2.8319,-2.755,-2.6934,-2.677,0.0,0.0,0.0,0.0,0.0,0.0,0.0,0.0,0.0,0.0,0.0,0.0,0.0,0.0,0.0,0.0,0.0,0.0,0.0,0.0,0.0,0.0,0.0,0.0,0.0,0.0,0.0,0.0,0.0,0.0,0.0,0.0,0.0,0.0,0.0,0.0,0.0,0.0,0.0,0.0,0.0,0.0,0.0,0.0,0.0,0.0,0.0,0.0,0.0,0.0,0.0,0.0,0.0,0.0,0.0,0.0,0.0,0.0,0.0,0.0,0.0,0.0,0.0,0.0,0.0,0.0,0.0,0.0,0.0,0.0,0.0,0.0,0.0,0.0,0.0,0.0,0.0,0.0,0.0,0.0,0.0,0.0,0.0,0.0,0.0,0.0,0.0,0.0,0.0,0.0,0.0,0.0,0.0,0.0,0.0,0.0,0.0,0.0,0.0,0.0,0.0,0.0,0.0,0.0,0.0,0.0,0.0,0.0,0.0,0.0,-2.7741,-2.7507,-2.6589,-2.6231,-2.6235,-2.6687,0.0,0.0,0.0,0.0,0.0,0.0,0.0,0.0,0.0,0.0,0.0,0.0,0.0,0.0,0.0,0.0,0.0,0.0,0.0,0.0,0.0,0.0,0.0,0.0,0.0,0.0,0.0,0.0,0.0,0.0,0.0,0.0,0.0,0.0,0.0,0.0,0.0,0.0,0.0,0.0,0.0,0.0,0.0,0.0,0.0,0.0,0.0,0.0,0.0,0.0,0.0,0.0,0.0,0.0,0.0,0.0,0.0,0.0,0.0,0.0,0.0,0.0,0.0,0.0,0.0,0.0,0.0,0.0,0.0,0.0,0.0,0.0,0.0,0.0,0.0,0.0,0.0,0.0,0.0,0.0,0.0,0.0,0.0,0.0,0.0,0.0,0.0,0.0,0.0,0.0,0.0,0.0,0.0,0.0,0.0,0.0,0.0,0.0,0.0,0.0,0.0,0.0,0.0,0.0,0.0,0.0,0.0,0.0,-2.6577,-2.6615,-2.6546,-2.6521,-2.6471,-2.6317,0.0,0.0,0.0,0.0,0.0,0.0,0.0,0.0,0.0,0.0,0.0,0.0,0.0,0.0,0.0,0.0,0.0,0.0,0.0,0.0,0.0,0.0,0.0,0.0,0.0,0.0,0.0,0.0,0.0,0.0,0.0,0.0,0.0,0.0,0.0,0.0,0.0,0.0,0.0,0.0,0.0,0.0,0.0,0.0,0.0,0.0,0.0,0.0,0.0,0.0,0.0,0.0,0.0,0.0,0.0,0.0,0.0,0.0,0.0,0.0,0.0,0.0,0.0,0.0,0.0,0.0,0.0,0.0,0.0,0.0,0.0,0.0,0.0,0.0,0.0,0.0,0.0,0.0,0.0,0.0,0.0,0.0,0.0,0.0,0.0,0.0,0.0,0.0,0.0,0.0,0.0,0.0,0.0,0.0,0.0,0.0,0.0,0.0,0.0,0.0,0.0,0.0,0.0,0.0,0.0,0.0,0.0,0.0,0.0,-2.6521,-2.6521,-2.6521,-2.6508,-2.5787,-2.5575,0.0,0.0,0.0,0.0,0.0,0.0,0.0,0.0,0.0,0.0,0.0,0.0,0.0,0.0,0.0,0.0,0.0,0.0,0.0,0.0,0.0,0.0,0.0,0.0,0.0,0.0,0.0,0.0,0.0,0.0,0.0,0.0,0.0,0.0,0.0,0.0,0.0,0.0,0.0,0.0,0.0,0.0,0.0,0.0,0.0,0.0,0.0,0.0,0.0,0.0,0.0,0.0,0.0,0.0,0.0,0.0,0.0,0.0,0.0,0.0,0.0,0.0,0.0,0.0,0.0,0.0,0.0,0.0,0.0,0.0,0.0,0.0,0.0,0.0,0.0,0.0,0.0,0.0,0.0,0.0,0.0,0.0,0.0,0.0,0.0,0.0,0.0,0.0,0.0,0.0,0.0,0.0,0.0,0.0,0.0,0.0,0.0,0.0,0.0,0.0,0.0,0.0,0.0,0.0,0.0,0.0,0.0,0.0,0.0,-2.6521,0.0,-2.6521,-2.6496,-2.5561,-2.5229,0.0,0.0,0.0,0.0,0.0,0.0,0.0,0.0,0.0,0.0,0.0,0.0,0.0,0.0,0.0,0.0,0.0,0.0,0.0,0.0,0.0,0.0,0.0,0.0,0.0,0.0,0.0,0.0,0.0,0.0,0.0,0.0,0.0,0.0,0.0,0.0,0.0,0.0,0.0,0.0,0.0,0.0,0.0,0.0,0.0,0.0,0.0,0.0,0.0,0.0,0.0,0.0,0.0,0.0,0.0,0.0,0.0,0.0,0.0,0.0,0.0,0.0,0.0,0.0,0.0,0.0,0.0,0.0,0.0,0.0,0.0,0.0,0.0,0.0,0.0,0.0,0.0,0.0,0.0,0.0,0.0,0.0,0.0,0.0,0.0,0.0,0.0,0.0,0.0,0.0,0.0,0.0,0.0,0.0,0.0,0.0,0.0,0.0,0.0,0.0,0.0,0.0,0.0,0.0,0.0,0.0,0.0,0.0,-2.6521,-2.6521,-2.6521,-2.6465,-2.6533,-2.5887,-2.5347,0.0,0.0,0.0,0.0,0.0,0.0,0.0,0.0,0.0,0.0,0.0,0.0,0.0,0.0,0.0,0.0,0.0,0.0,0.0,0.0,0.0,0.0,0.0,0.0,0.0,0.0,0.0,0.0,0.0,0.0,0.0,0.0,0.0,0.0,0.0,0.0,0.0,0.0,0.0,0.0,0.0,0.0,0.0,0.0,0.0,0.0,0.0,0.0,0.0,0.0,0.0,0.0,0.0,0.0,0.0,0.0,0.0,0.0,0.0,0.0,0.0,0.0,0.0,0.0,0.0,0.0,0.0,0.0,0.0,0.0,0.0,0.0,0.0,0.0,0.0,0.0,0.0,0.0,0.0,0.0,0.0,0.0,0.0,0.0,0.0,0.0,0.0,0.0,0.0,0.0,0.0,0.0,0.0,0.0,0.0,0.0,0.0,0.0,0.0,0.0,0.0,0.0,0.0,0.0,0.0,0.0,0.0,0.0,0.0,-2.6521,-2.6521,-2.671,-2.6979,-2.6101,-2.5699,0.0,0.0,0.0,0.0,0.0,0.0,0.0,0.0,0.0,0.0,0.0,0.0,0.0,0.0,0.0,0.0,0.0,0.0,0.0,0.0,0.0,0.0,0.0,0.0,0.0,0.0,0.0,0.0,0.0,0.0,0.0,0.0,0.0,0.0,0.0,0.0,0.0,0.0,0.0,0.0,0.0,0.0,0.0,0.0,0.0,0.0,0.0,0.0,0.0,0.0,0.0,0.0,0.0,0.0,0.0,0.0,0.0,0.0,0.0,0.0,0.0,0.0,0.0,0.0,0.0,0.0,0.0,0.0,0.0,0.0,0.0,0.0,0.0,0.0,0.0,0.0,0.0,0.0,0.0,0.0,0.0,0.0,0.0,0.0,0.0,0.0,0.0,0.0,0.0,0.0,0.0,0.0,0.0,0.0,0.0,0.0,0.0,0.0,0.0,0.0,0.0,0.0,0.0,0.0,0.0,0.0,0.0,0.0,0.0,-2.6766,-2.6766,-2.6942,-2.7281,-2.6402,-2.5988,-2.6113,0.0,0.0,0.0,0.0,0.0,0.0,0.0,0.0,0.0,0.0,0.0,0.0,0.0,0.0,0.0,0.0,0.0,0.0,0.0,0.0,0.0,0.0,0.0,0.0,0.0,0.0,0.0,0.0,0.0,0.0,0.0,0.0,0.0,0.0,0.0,0.0,0.0,0.0,0.0,0.0,0.0,0.0,0.0,0.0,0.0,0.0,0.0,0.0,0.0,0.0,0.0,0.0,0.0,0.0,0.0,0.0,0.0,0.0,0.0,0.0,0.0,0.0,0.0,0.0,0.0,0.0,0.0,0.0,0.0,0.0,0.0,0.0,0.0,0.0,0.0,0.0,0.0,0.0,0.0,0.0,0.0,0.0,0.0,0.0,0.0,0.0,0.0,0.0,0.0,0.0,0.0,0.0,0.0,0.0,0.0,0.0,0.0,0.0,0.0,0.0,0.0,0.0,0.0,0.0,0.0,0.0,0.0,0.0,-2.7356,-2.7369,-2.7381,-2.7394,-2.6886,-2.6251,0.0,0.0,0.0,0.0,0.0,0.0,0.0,0.0,0.0,0.0,0.0,0.0,0.0,0.0,0.0,0.0,0.0,0.0,0.0,0.0,0.0,0.0,0.0,0.0,0.0,0.0,0.0,0.0,0.0,0.0,0.0,0.0,0.0,0.0,0.0,0.0,0.0,0.0,0.0,0.0,0.0,0.0,0.0,0.0,0.0,0.0,0.0,0.0,0.0,0.0,0.0,0.0,0.0,0.0,0.0,0.0,0.0,0.0,0.0,0.0,0.0,0.0,0.0,0.0,0.0,0.0,0.0,0.0,0.0,0.0,0.0,0.0,0.0,0.0,0.0,0.0,0.0,0.0,0.0,0.0,0.0,0.0,0.0,0.0,0.0,0.0,0.0,0.0,0.0,0.0,0.0,0.0,0.0,0.0,0.0,0.0,0.0,0.0,0.0,0.0,0.0,0.0,0.0,0.0,0.0,0.0,0.0,0.0,0.0,-2.8448,-2.8499,-2.8499,-2.8473,-2.757,-2.7193,0.0,0.0,0.0,0.0,0.0,0.0,0.0,0.0,0.0,0.0,0.0,0.0,0.0,0.0,0.0,0.0,0.0,0.0,0.0,0.0,0.0,0.0,0.0,0.0,0.0,0.0,0.0,0.0,0.0,0.0,0.0,0.0,0.0,0.0,0.0,0.0,0.0,0.0,0.0,0.0,0.0,0.0,0.0,0.0,0.0,0.0,0.0,0.0,0.0,0.0,0.0,0.0,0.0,0.0,0.0,0.0,0.0,0.0,0.0,0.0,0.0,0.0,0.0,0.0,0.0,0.0,0.0,0.0,0.0,0.0,0.0,0.0,0.0,0.0,0.0,0.0,0.0,0.0,0.0,0.0,0.0,0.0,0.0,0.0,0.0,0.0,0.0,0.0,0.0,0.0,0.0,0.0,0.0,0.0,0.0,0.0,0.0,0.0,0.0,0.0,0.0,0.0,0.0,0.0,0.0,0.0,0.0,0.0,-2.7708,-2.8561,-2.88,-2.9051,-2.9289,-2.8436,-2.7896,0.0,0.0,0.0,0.0,0.0,0.0,0.0,0.0,0.0,0.0,0.0,0.0,0.0,0.0,0.0,0.0,0.0,0.0,0.0,0.0,0.0,0.0,0.0,0.0,0.0,0.0,0.0,0.0,0.0,0.0,0.0,0.0,0.0,0.0,0.0,0.0,0.0,0.0,0.0,0.0,0.0,0.0,0.0,0.0,0.0,0.0,0.0,0.0,0.0,0.0,0.0,0.0,0.0,0.0,0.0,0.0,0.0,0.0,0.0,0.0,0.0,0.0,0.0,0.0,0.0,0.0,0.0,0.0,0.0,0.0,0.0,0.0,0.0,0.0,0.0,0.0,0.0,0.0,0.0,0.0,0.0,0.0,0.0,0.0,0.0,0.0,0.0,0.0,0.0,0.0,0.0,0.0,0.0,0.0,0.0,0.0,0.0,0.0,0.0,0.0,0.0,0.0,0.0,0.0,0.0,0.0,0.0,0.0,-2.767,-2.8285,-2.8812,-2.9352,-2.9829,-2.9214,-2.8386,0.0,0.0,0.0,0.0,0.0,0.0,0.0,0.0,0.0,0.0,0.0,0.0,0.0,0.0,0.0,0.0,0.0,0.0,0.0,0.0,0.0,0.0,0.0,0.0,0.0,0.0,0.0,0.0,0.0,0.0,0.0,0.0,0.0,0.0,0.0,0.0,0.0,0.0,0.0,0.0,0.0,0.0,0.0,0.0,0.0,0.0,0.0,0.0,0.0,0.0,0.0,0.0,0.0,0.0,0.0,0.0,0.0,0.0,0.0,0.0,0.0,0.0,0.0,0.0,0.0,0.0,0.0,0.0,0.0,0.0,0.0,0.0,0.0,0.0,0.0,0.0,0.0,0.0,0.0,0.0,0.0,0.0,0.0,0.0,0.0,0.0,0.0,0.0,0.0,0.0,0.0,0.0,0.0,0.0,0.0,0.0,0.0,0.0,0.0,0.0,0.0,0.0,0.0,0.0,0.0,0.0,0.0,0.0,-2.8411,-2.9415,-2.9967,-3.0319,-3.0432,-2.9038,-2.8172,0.0,0.0,0.0,0.0,0.0,0.0,0.0,0.0,0.0,0.0,0.0,0.0,0.0,0.0,0.0,0.0,0.0,0.0,0.0,0.0,0.0,0.0,0.0,0.0,0.0,0.0,0.0,0.0,0.0,0.0,0.0,0.0,0.0,0.0,0.0,0.0,0.0,0.0,0.0,0.0,0.0,0.0,0.0,0.0,0.0,0.0,0.0,0.0,-3.3425,0.0,0.0,0.0,0.0,0.0,0.0,0.0,0.0,0.0,0.0,0.0,0.0,0.0,0.0,0.0,0.0,0.0,0.0,0.0,0.0,0.0,0.0,0.0,0.0,0.0,0.0,0.0,0.0,0.0,0.0,0.0,0.0,0.0,0.0,0.0,0.0,0.0,0.0,0.0,0.0,0.0,0.0,0.0,0.0,0.0,0.0,0.0,0.0,0.0,0.0,0.0,0.0,0.0,0.0,0.0,0.0,0.0,0.0,0.0,-2.8787,-2.9377,-3.0193,-3.062,-3.057,-2.9503,-2.8775,0.0,0.0,0.0,0.0,0.0,0.0,0.0,0.0,0.0,0.0,0.0,0.0,0.0,0.0,0.0,0.0,0.0,0.0,0.0,0.0,0.0,0.0,0.0,0.0,0.0,0.0,0.0,0.0,0.0,0.0,0.0,0.0,0.0,0.0,0.0,0.0,0.0,0.0,0.0,0.0,0.0,0.0,0.0,0.0,0.0,0.0,0.0,0.0,0.0,0.0,0.0,0.0,0.0,0.0,0.0,0.0,0.0,0.0,0.0,0.0,0.0,0.0,0.0,0.0,0.0,0.0,0.0,0.0,0.0,0.0,0.0,0.0,0.0,0.0,0.0,0.0,0.0,0.0,0.0,0.0,0.0,0.0,0.0,0.0,0.0,0.0,0.0,0.0,0.0,0.0,0.0,0.0,0.0,0.0,0.0,0.0,0.0,0.0,0.0,0.0,0.0,0.0,0.0,0.0,0.0,0.0,0.0,-2.8448,-2.9013,-2.9214,-3.0281,-3.0859,-3.0846,-3.0331,-2.9729,-2.9089,0.0,0.0,0.0,0.0,0.0,0.0,0.0,0.0,0.0,0.0,0.0,0.0,0.0,0.0,0.0,0.0,0.0,0.0,0.0,0.0,0.0,0.0,0.0,0.0,0.0,0.0,0.0,0.0,0.0,0.0,0.0,0.0,0.0,0.0,0.0,0.0,0.0,0.0,-3.2856,-3.3858,0.0,0.0,0.0,0.0,0.0,0.0,0.0,0.0,-3.3557,0.0,0.0,0.0,0.0,0.0,0.0,0.0,0.0,0.0,0.0,0.0,0.0,0.0,0.0,0.0,0.0,0.0,0.0,0.0,0.0,0.0,0.0,0.0,0.0,0.0,0.0,0.0,0.0,0.0,0.0,0.0,0.0,0.0,0.0,0.0,0.0,0.0,0.0,0.0,0.0,0.0,0.0,0.0,0.0,0.0,0.0,0.0,0.0,0.0,0.0,0.0,0.0,0.0,0.0,0.0,0.0,-2.8649,-2.8837,-2.939,-3.0331,-3.1399,-3.1964,-3.1938,-3.1411,-3.067,-2.9679,0.0,0.0,0.0,0.0,0.0,0.0,0.0,0.0,0.0,0.0,0.0,0.0,0.0,0.0,0.0,0.0,0.0,0.0,0.0,0.0,0.0,0.0,0.0,0.0,0.0,0.0,0.0,0.0,0.0,0.0,0.0,0.0,0.0,0.0,0.0,0.0,0.0,0.0,0.0,-3.4711,-3.4876,0.0,0.0,0.0,0.0,0.0,0.0,0.0,0.0,-3.2724,0.0,0.0,0.0,0.0,0.0,0.0,0.0,0.0,0.0,0.0,0.0,0.0,0.0,0.0,0.0,0.0,0.0,0.0,0.0,0.0,0.0,0.0,0.0,0.0,0.0,0.0,0.0,0.0,0.0,0.0,0.0,0.0,0.0,0.0,0.0,0.0,0.0,0.0,0.0,0.0,0.0,0.0,0.0,0.0,0.0,0.0,0.0,0.0,0.0,0.0,0.0,0.0,0.0,0.0,0.0,-2.89,-2.9503,-3.0193,-3.1009,-3.18,-3.2202,-3.219,-3.1424,-3.096,0.0,0.0,0.0,0.0,0.0,0.0,0.0,0.0,0.0,0.0,0.0,0.0,0.0,0.0,0.0,0.0,0.0,0.0,0.0,0.0,0.0,0.0,0.0,0.0,0.0,0.0,0.0,0.0,0.0,0.0,0.0,0.0,0.0,0.0,0.0,0.0,0.0,0.0,0.0,0.0,-3.5504,-3.5624,-3.5938,0.0,0.0,0.0,0.0,0.0,0.0,-3.2421,-3.2468,0.0,0.0,0.0,0.0,0.0,0.0,0.0,0.0,0.0,0.0,0.0,0.0,0.0,0.0,0.0,0.0,0.0,0.0,0.0,0.0,0.0,0.0,0.0,0.0,0.0,0.0,0.0,0.0,0.0,0.0,0.0,0.0,0.0,0.0,0.0,0.0,0.0,0.0,0.0,0.0,0.0,0.0,0.0,0.0,0.0,0.0,0.0,0.0,0.0,0.0,0.0,0.0,0.0,0.0,0.0,-2.8938,-3.0043,-3.0922,-3.1549,-3.2102,-3.2462,-3.2675,-3.1635,-3.1396,0.0,0.0,0.0,0.0,0.0,0.0,0.0,0.0,0.0,0.0,0.0,0.0,0.0,0.0,0.0,0.0,0.0,0.0,0.0,0.0,0.0,0.0,0.0,0.0,0.0,0.0,0.0,0.0,0.0,0.0,0.0,0.0,0.0,0.0,0.0,0.0,0.0,0.0,0.0,0.0,0.0,-3.6432,-3.5789,-3.4957,0.0,0.0,0.0,0.0,-3.3561,-3.2939,0.0,0.0,0.0,0.0,0.0,0.0,0.0,0.0,0.0,0.0,0.0,0.0,0.0,0.0,0.0,0.0,0.0,0.0,0.0,0.0,0.0,0.0,0.0,0.0,0.0,0.0,0.0,0.0,0.0,0.0,0.0,0.0,0.0,0.0,0.0,0.0,0.0,0.0,0.0,0.0,0.0,0.0,0.0,0.0,0.0,0.0,0.0,0.0,0.0,0.0,0.0,0.0,0.0,0.0,0.0,0.0,-2.8925,-3.0043,-3.1097,-3.2089,-3.2679,-3.3454,-3.4393,-3.3184,-3.2532,0.0,0.0,0.0,0.0,0.0,0.0,0.0,0.0,0.0,0.0,0.0,0.0,0.0,0.0,0.0,0.0,0.0,0.0,0.0,0.0,0.0,0.0,0.0,0.0,0.0,0.0,0.0,0.0,0.0,0.0,0.0,0.0,0.0,0.0,0.0,0.0,0.0,0.0,0.0,0.0,0.0,-3.7075,-3.6462,-3.5052,-3.433,0.0,0.0,-3.4196,-3.4634,-3.479,0.0,0.0,0.0,0.0,0.0,0.0,0.0,0.0,0.0,0.0,0.0,0.0,0.0,0.0,0.0,0.0,0.0,0.0,0.0,0.0,0.0,0.0,0.0,0.0,0.0,0.0,0.0,0.0,0.0,0.0,0.0,0.0,0.0,0.0,0.0,0.0,0.0,0.0,0.0,0.0,0.0,0.0,0.0,0.0,0.0,0.0,0.0,0.0,0.0,0.0,0.0,0.0,0.0,0.0,0.0,-3.0183,-3.1003,-3.2173,-3.3329,-3.4432,-3.4738,-3.5034,-3.5494,-3.4018,-3.3436,0.0,0.0,0.0,0.0,0.0,0.0,0.0,0.0,0.0,0.0,0.0,0.0,0.0,0.0,0.0,0.0,0.0,0.0,0.0,0.0,0.0,0.0,0.0,0.0,0.0,0.0,0.0,0.0,0.0,0.0,0.0,0.0,0.0,0.0,0.0,0.0,0.0,0.0,0.0,0.0,0.0,0.0,-3.7,-3.5629,0.0,0.0,0.0,-3.4341,-3.3798,0.0,0.0,0.0,0.0,0.0,0.0,0.0,0.0,0.0,0.0,0.0,0.0,0.0,0.0,0.0,0.0,0.0,0.0,0.0,0.0,0.0,0.0,0.0,0.0,0.0,0.0,0.0,0.0,0.0,0.0,0.0,0.0,0.0,0.0,0.0,0.0,0.0,0.0,0.0,0.0,0.0,0.0,0.0,0.0,0.0,0.0,0.0,0.0,0.0,0.0,0.0,0.0,0.0,0.0,0.0,0.0,0.0,-3.2593,-3.3795,-3.4982,-3.6156,-3.6198,-3.6286,-3.6353,-3.4901,0.0,0.0,0.0,0.0,0.0,0.0,0.0,0.0,0.0,0.0,0.0,0.0,0.0,0.0,0.0,0.0,0.0,0.0,0.0,0.0,0.0,0.0,0.0,0.0,0.0,0.0,0.0,-3.0415,0.0,0.0,0.0,0.0,0.0,0.0,0.0,0.0,0.0,0.0,0.0,0.0,0.0,0.0,-3.6821,-3.7135,-3.6215,-3.5767,0.0,0.0,-3.5224,-3.4327,-3.5378,-3.5766,0.0,0.0,0.0,0.0,0.0,0.0,0.0,0.0,0.0,0.0,0.0,0.0,0.0,0.0,0.0,0.0,0.0,0.0,0.0,0.0,0.0,0.0,0.0,0.0,0.0,0.0,0.0,0.0,0.0,0.0,0.0,0.0,0.0,0.0,0.0,0.0,0.0,0.0,0.0,0.0,0.0,0.0,0.0,0.0,0.0,0.0,0.0,0.0,0.0,0.0,0.0,0.0,0.0,0.0,0.0,-3.2593,-3.3781,-3.4982,-3.6142,-3.6198,-3.6403,-3.6759,-3.6085,-3.5343,0.0,0.0,0.0,0.0,0.0,0.0,0.0,0.0,0.0,0.0,0.0,0.0,0.0,0.0,0.0,0.0,0.0,0.0,0.0,0.0,0.0,0.0,0.0,0.0,0.0,0.0,0.0,0.0,0.0,0.0,0.0,0.0,0.0,0.0,0.0,0.0,0.0,0.0,0.0,0.0,0.0,-3.7165,-3.6626,-3.6728,-3.7157,0.0,-3.7476,-3.7157,-3.7863,-3.8582,-3.846,-3.6558,0.0,0.0,0.0,0.0,0.0,0.0,0.0,0.0,0.0,0.0,0.0,0.0,0.0,0.0,0.0,0.0,0.0,0.0,0.0,0.0,0.0,0.0,0.0,0.0,0.0,0.0,0.0,0.0,0.0,0.0,0.0,0.0,0.0,0.0,0.0,0.0,0.0,0.0,0.0,0.0,0.0,0.0,0.0,0.0,0.0,0.0,0.0,0.0,0.0,0.0,0.0,0.0,0.0,-3.3451,-3.4409,-3.563,-3.6896,-3.8132,-3.8204,-3.8062,-3.7794,-3.7161,-3.6058,0.0,0.0,0.0,0.0,0.0,0.0,0.0,0.0,0.0,0.0,0.0,0.0,0.0,0.0,0.0,0.0,0.0,0.0,0.0,0.0,0.0,0.0,0.0,0.0,0.0,0.0,0.0,0.0,-3.1589,-3.1222,-3.1171,0.0,0.0,0.0,0.0,0.0,0.0,0.0,0.0,0.0,0.0,-3.703,-3.7569,-3.7271,0.0,0.0,-3.7781,-3.7454,-3.711,-3.8004,-3.8165,-3.6435,-3.5777,0.0,0.0,0.0,0.0,0.0,0.0,0.0,0.0,0.0,0.0,0.0,0.0,0.0,0.0,0.0,0.0,0.0,0.0,0.0,0.0,0.0,0.0,0.0,0.0,0.0,0.0,0.0,0.0,0.0,0.0,0.0,0.0,0.0,0.0,0.0,0.0,0.0,0.0,0.0,0.0,0.0,0.0,0.0,0.0,0.0,0.0,0.0,0.0,0.0,0.0,0.0,0.0,-3.4158,-3.5489,-3.6761,-3.8078,-3.9394,-3.9424,-3.9095,-3.8407,-3.7749,-3.6477,0.0,0.0,0.0,0.0,0.0,0.0,0.0,0.0,0.0,0.0,0.0,0.0,0.0,0.0,0.0,0.0,0.0,0.0,0.0,0.0,0.0,0.0,0.0,0.0,0.0,0.0,0.0,0.0,-3.2912,-3.2466,-3.1605,0.0,0.0,0.0,0.0,0.0,0.0,0.0,0.0,0.0,0.0,-3.6941,-3.8212,-3.8043,-3.7872,-3.825,-3.8397,-3.8144,-3.7329,-3.8047,-3.824,-3.685,0.0,0.0,0.0,0.0,0.0,0.0,0.0,0.0,0.0,0.0,0.0,0.0,0.0,0.0,0.0,0.0,0.0,0.0,0.0,0.0,0.0,0.0,0.0,0.0,0.0,0.0,0.0,-3.1511,0.0,0.0,-3.1467,0.0,0.0,0.0,0.0,0.0,0.0,0.0,0.0,0.0,0.0,0.0,0.0,0.0,0.0,0.0,0.0,0.0,0.0,0.0,0.0,0.0,0.0,-3.4158,-3.5489,-3.6761,-3.8063,-3.9379,-3.9424,-3.908,-3.8407,-3.7749,-3.6477,-3.4502,0.0,0.0,0.0,0.0,0.0,0.0,0.0,0.0,0.0,0.0,0.0,0.0,0.0,0.0,0.0,0.0,0.0,0.0,0.0,0.0,0.0,0.0,0.0,0.0,0.0,0.0,-3.4411,-3.3803,-3.2873,0.0,0.0,0.0,0.0,0.0,0.0,0.0,0.0,0.0,0.0,-3.6058,-3.6956,-3.8227,-3.8975,-3.9307,-3.9352,-3.9352,-3.9352,-3.9294,-3.9322,-3.917,0.0,0.0,0.0,0.0,0.0,0.0,0.0,0.0,0.0,0.0,0.0,0.0,0.0,0.0,0.0,0.0,0.0,0.0,0.0,0.0,0.0,0.0,0.0,0.0,0.0,0.0,0.0,-3.2198,-3.2183,0.0,0.0,0.0,0.0,0.0,0.0,0.0,0.0,0.0,0.0,0.0,-3.3514,-3.3933,0.0,0.0,0.0,0.0,0.0,0.0,0.0,0.0,0.0,0.0,0.0,0.0,-3.4158,-3.5489,-3.6761,-3.8063,-3.9364,-3.9424,-3.9095,-3.8407,-3.7749,-3.6073,-3.3275,0.0,0.0,0.0,0.0,0.0,0.0,0.0,0.0,0.0,0.0,0.0,0.0,0.0,0.0,0.0,0.0,0.0,0.0,0.0,0.0,0.0,0.0,0.0,0.0,0.0,-3.5047,0.0,0.0,0.0,0.0,0.0,0.0,0.0,0.0,0.0,0.0,0.0,-3.4921,-3.6013,-3.7075,-3.8078,-3.8945,-3.9275,-3.9574,0.0,0.0,0.0,0.0,0.0,0.0,0.0,0.0,0.0,0.0,0.0,0.0,0.0,0.0,-3.8856,-3.6013,-3.531,-3.516,-3.516,0.0,0.0,0.0,0.0,0.0,0.0,0.0,0.0,0.0,0.0,0.0,0.0,0.0,0.0,-3.2991,0.0,-3.2946,0.0,0.0,0.0,0.0,0.0,0.0,0.0,0.0,-3.4876,-3.5055,-3.4876,-3.5295,-3.504,0.0,-3.4412,-3.3739,0.0,0.0,0.0,0.0,0.0,0.0,0.0,0.0,-3.4038,-3.5145,-3.6641,-3.7943,-3.9005,-3.9305,-3.92,-3.8736,-3.7659,-3.5744,-3.2946,-3.2003,-3.0934,0.0,0.0,0.0,0.0,0.0,0.0,0.0,0.0,0.0,0.0,0.0,0.0,0.0,0.0,0.0,0.0,0.0,0.0,0.0,0.0,0.0,0.0,0.0,-3.5504,0.0,0.0,0.0,0.0,0.0,0.0,0.0,0.0,0.0,-3.3291,-3.4547,-3.5908,-3.7015,-3.7868,-3.8631,-3.932,0.0,0.0,0.0,0.0,0.0,0.0,0.0,-3.9604,-3.9155,-3.8931,-3.8856,-3.905,-4.0269,-4.1137,-4.091,0.0,0.0,-3.8142,-3.7602,-3.7688,-3.7688,-3.8626,-3.9185,-3.8369,-3.9477,-4.0226,0.0,0.0,0.0,0.0,0.0,0.0,0.0,0.0,-3.3619,-3.3948,0.0,-3.3858,0.0,0.0,0.0,0.0,0.0,-3.3918,0.0,0.0,-3.6207,-3.6821,-3.7345,-3.736,-3.6746,-3.5624,-3.6148,-3.5429,-3.3544,-3.2901,0.0,0.0,0.0,0.0,0.0,0.0,-3.3829,-3.4577,-3.6417,-3.7704,-3.8392,-3.9035,-3.9364,-3.932,-3.7524,-3.5674,-3.3696,-3.2406,-3.1697,-3.1657,-3.0421,0.0,0.0,0.0,0.0,0.0,0.0,0.0,0.0,0.0,0.0,0.0,0.0,0.0,0.0,0.0,0.0,0.0,0.0,0.0,0.0,-3.6299,0.0,0.0,0.0,0.0,0.0,0.0,0.0,0.0,0.0,0.0,-3.4951,-3.5269,-3.6282,-3.8192,0.0,0.0,0.0,0.0,-3.9469,-3.9514,-3.9499,-3.9514,-3.9559,-4.0038,-4.0427,-4.0412,0.0,0.0,-4.0709,-4.1893,-4.2754,-4.2085,-4.3248,-4.3664,-4.1864,-4.1587,-4.1759,-4.1759,-4.2394,-4.3103,-4.3201,-4.3359,-4.3586,-3.5118,0.0,0.0,0.0,0.0,-3.4277,-3.4756,-3.5624,-3.5639,-3.5459,-3.5205,-3.5011,0.0,0.0,0.0,0.0,0.0,0.0,-3.5804,-3.6851,-3.706,-3.7255,-3.7404,-3.7404,-3.6985,-3.6237,-3.6387,-3.5699,-3.4233,-3.4008,-3.323,-3.1973,0.0,0.0,0.0,0.0,-3.4068,-3.519,-3.6222,-3.7285,-3.8377,-3.8586,-3.8691,-3.8691,-3.8272,-3.7287,-3.5738,-3.5408,-3.4841,-3.3937,-3.3013,0.0,0.0,0.0,0.0,0.0,0.0,0.0,0.0,0.0,0.0,0.0,0.0,0.0,0.0,0.0,0.0,0.0,0.0,0.0,-3.5571,-3.5825,-3.5707,0.0,0.0,0.0,0.0,0.0,0.0,0.0,0.0,0.0,-3.832,-3.7927,-3.8024,0.0,0.0,-3.9185,-3.9394,-3.9813,-4.0292,-4.0756,-4.0831,0.0,-4.1444,-4.128,-4.11,-4.11,-4.2196,-4.3256,-4.3757,-4.463,-4.5167,-4.4929,-4.5298,-4.5442,-4.4954,-4.4107,-4.3584,-4.3504,-4.3722,-4.3923,-4.3939,-4.4561,-4.4882,-3.6701,-3.504,-3.504,-3.5265,-3.5639,-3.5654,-3.6103,-3.6851,-3.6851,-3.6776,-3.6626,-3.6372,-3.5669,-3.4666,-3.4397,0.0,0.0,0.0,-3.6821,-3.7793,-3.7793,-3.7958,-3.8197,-3.8197,-3.7719,-3.6866,-3.6851,-3.6163,-3.4876,-3.4876,-3.4352,-3.332,0.0,0.0,-3.2931,-3.3559,-3.4292,-3.5085,-3.6013,-3.6866,-3.7599,-3.8454,-3.8781,-3.8508,-3.9222,-3.8921,-3.76,-3.7345,-3.6844,-3.5999,-3.5045,-3.448,0.0,0.0,0.0,0.0,0.0,0.0,0.0,0.0,0.0,0.0,0.0,-3.4556,-3.3085,0.0,0.0,0.0,-3.4624,-3.5571,-3.6028,-3.6603,0.0,0.0,0.0,0.0,0.0,0.0,0.0,-3.9079,-3.9471,-4.0066,-4.1164,-4.0467,-4.0003,-4.052,-4.0727,-4.0723,-4.0345,0.0,-4.1801,-4.1475,-4.173,-4.206,-4.2529,-4.2409,-4.2452,-4.2806,-4.3609,-4.4323,-4.4628,-4.5359,-4.5888,-4.5905,-4.6189,-4.6553,-4.6848,-4.6176,-4.5636,-4.5618,-4.5881,-4.6012,-4.5733,-4.6066,-4.6191,-3.8123,-3.7569,-3.7554,-3.7494,-3.7419,-3.7464,-3.7479,-3.7494,-3.7539,-3.7883,-3.8332,-3.7764,-3.715,-3.6537,-3.5923,0.0,-3.5789,-3.6956,-3.7838,-3.8467,-3.8537,-3.8867,-3.9466,-3.9466,-3.8807,-3.7616,-3.7419,-3.6776,-3.5624,-3.5519,-3.519,-3.4547,-3.401,-3.3681,-3.3604,-3.4173,-3.4502,-3.4577,-3.5789,-3.6499,-3.6625,-3.8626,-3.9411,-3.8821,-4.015,-4.0296,-3.9092,-3.8405,-3.8082,-3.8018,-3.6686,-3.5906,-3.5763,0.0,0.0,0.0,0.0,0.0,0.0,0.0,0.0,0.0,0.0,0.0,0.0,0.0,0.0,0.0,-3.5571,0.0,-3.6789,-3.8075,0.0,0.0,0.0,-3.8041,-3.8159,-3.9377,-4.051,-4.1288,0.0,0.0,-4.3377,-4.2725,-4.2205,-4.2269,-4.2751,-4.2757,-4.1937,-4.3153,-4.3627,-4.203,-4.256,-4.3049,-4.3307,-4.3547,-4.41,-4.4878,-4.517,-4.495,-4.4538,-4.5,-4.5464,-4.5593,-4.6257,-4.6946,-4.7656,-4.7629,-4.776,-4.7438,-4.8136,-4.8568,-4.7865,-4.7646,-4.7216,-3.908,-3.8945,-3.8931,-3.8347,-3.7449,-3.7958,-3.8167,-3.8197,-3.8706,-3.8736,-3.8377,-3.8227,-3.7793,-3.718,-3.703,-3.7225,-3.7719,-3.8018,-3.8527,-3.9212,-3.9886,-4.0209,-4.0363,-4.0363,-3.9932,-3.9118,-3.7971,-3.7,-3.6252,-3.5744,-3.5429,-3.525,-3.5643,-3.5308,-3.434,-3.4397,-3.4726,-3.5265,-3.5579,-3.6265,-3.7351,-3.8905,-3.9707,-3.9548,-3.9952,-4.0263,-4.05,-3.9889,-3.9863,-4.032,-3.9026,-3.7964,-3.7381,-3.5368,0.0,0.0,0.0,0.0,0.0,0.0,0.0,0.0,0.0,-3.4489,-3.2483,0.0,-3.4641,0.0,-3.6637,-3.7398,-3.684,-3.7601,0.0,0.0,-3.8633,-3.9191,-4.029,-4.073,-4.1441,-4.2743,-4.3036,-4.3401,-4.4231,-4.4135,-4.4206,-4.4699,-4.3856,-4.3021,-4.2855,-4.4042,-4.4809,-4.444,-4.489,-4.5396,-4.5333,-4.5008,-4.5165,-4.5994,-4.5734,-4.5501,-4.6029,-4.6317,-4.6455,-4.6455,-4.665,-4.687,-4.7022,-4.7056,-4.7031,-4.7053,-4.7629,-4.8139,-4.7953,-4.7462,-4.6786,-3.9424,-3.9424,-3.9424,-3.899,-3.8332,-3.8706,-3.8856,-3.8886,-3.926,-3.92,-3.8826,-3.8527,-3.8182,-3.7853,-3.7838,-3.8033,-3.8477,-3.9083,-3.9625,-4.0045,-4.0894,-4.128,-4.128,-4.128,-4.0761,-3.977,-3.888,-3.8036,-3.7125,-3.6724,-3.6554,-3.6554,-3.6935,-3.6732,-3.5982,-3.5952,-3.5968,-3.6006,-3.6368,-3.6894,-3.7665,-3.9173,-3.9914,-3.9972,-4.0595,-4.0983,-4.1083,-4.0776,-4.0612,-4.0679,-3.9614,-3.8667,-3.7922,-3.6062,-3.4658,0.0,0.0,0.0,0.0,0.0,0.0,0.0,0.0,0.0,0.0,0.0,-3.5318,-3.6079,-3.7499,-3.8227,-3.7804,-3.8734,-3.9546,-3.9952,-4.0257,-4.0916,-4.2083,-4.2202,-4.2642,-4.3792,-4.3944,-4.4096,-4.4519,-4.457,-4.4857,-4.5602,-4.5163,-4.4685,-4.4805,-4.5881,-4.6634,-4.5821,-4.635,-4.6815,-4.6815,-4.6845,-4.6765,-4.6633,-4.6324,-4.5995,-4.5882,-4.5805,-4.5805,-4.5805,-4.5805,-4.594,-4.6227,-4.6312,-4.638,-4.6735,-4.6853,-4.6921,-4.6921,-4.6616,-4.6092,-3.9424,-3.9424,-3.9424,-3.9424,-3.9424,-3.9424,-3.9424,-3.9424,-3.9424,-3.9424,-3.9379,-3.8781,-3.8527,-3.8527,-3.8652,-3.8707,-3.8822,-4.0223,-4.0878,-4.0946,-4.1739,-4.2189,-4.2189,-4.2189,-4.1498,-4.0228,-3.9978,-3.9214,-3.7966,-3.787,-3.7822,-3.7822,-3.7863,-3.7879,-3.7822,-3.7978,-3.7616,-3.6783,-3.7557,-3.7921,-3.7978,-3.9329,-4.0117,-4.015,-4.1325,-4.1762,-4.1255,-4.1102,-4.0798,-4.024,-3.9428,-3.8717,-3.8058,-3.6518,-3.5334,0.0,-3.3863,0.0,0.0,0.0,0.0,0.0,0.0,0.0,0.0,-3.5504,-3.6299,-3.6874,-3.8362,-3.9242,-3.914,-4.0476,-4.1356,-4.1356,-4.1999,-4.2709,-4.3318,-4.3487,-4.3826,-4.4502,-4.457,-4.457,-4.457,-4.457,-4.4857,-4.5602,-4.6237,-4.6562,-4.6802,-4.7851,-4.8239,-4.6747,-4.7239,-4.7753,-4.7686,-4.8149,-4.8078,-4.6895,-4.6406,-4.6058,-4.4857,-4.4637,-4.4604,-4.4621,-4.4688,-4.4857,-4.5466,-4.5568,-4.5771,-4.6278,-4.5991,-4.5686,-4.5771,-4.5669,-4.5331,-3.9424,-3.9424,-3.9424,-3.9424,-3.9424,-3.9424,-3.9424,-3.9424,-3.9424,-3.9424,-3.9409,-3.929,-3.923,-3.9286,-3.9917,-4.03,-4.03,-4.1283,-4.1723,-4.1804,-4.2645,-4.3047,-4.3047,-4.3047,-4.2589,-4.1737,-4.0462,-3.947,-3.8595,-3.8094,-3.7822,-3.7806,-3.8414,-3.8414,-3.7863,0.0,0.0,0.0,-3.8302,-3.869,-3.8707,-3.9623,-4.012,-4.012,-4.0358,0.0,-4.1153,-4.0629,-4.051,-4.0916,-3.9715,0.0,0.0,0.0,0.0,0.0,0.0,0.0,0.0,0.0,0.0,0.0,-3.6299,-3.5926,-3.552,-3.7212,-3.8176,-3.7804,-3.9563,-4.0561,-3.9986,-4.1221,-4.2083,-4.2117,-4.276,-4.3267,-4.342,-4.3961,-4.4434,-4.4553,-4.457,-4.457,-4.457,-4.457,-4.4874,-4.5602,-4.6329,-4.6997,-4.7541,-4.8388,-4.8844,-4.8513,-4.8576,-4.85,-4.7928,-4.7528,-4.7124,-4.6075,-4.5365,-4.4959,-4.4671,-4.457,-4.457,-4.457,-4.457,-4.4604,-4.479,-4.479,-4.4891,-4.4976,-4.4908,-4.4976,-4.5551,-4.5213,-4.4756,-3.9424,0.0,-3.9424,-3.9424,0.0,-3.9424,-3.9424,-3.9424,-3.9424,-3.9424,-3.9409,-3.9864,-4.006,-4.0045,-4.0961,-4.1346,-4.1412,-4.2269,-4.2645,-4.2707,-4.3562,-4.3948,-4.3948,-4.3948,-4.3547,-4.2739,-4.1617,-4.072,-3.9972,-3.9303,-3.8941,-3.8941,-3.9332,-3.9315,-3.8995,-3.9679,-3.9731,-3.8941,-3.9332,-3.9506,-3.9489,-3.9901,-4.0087,-4.0087,-4.0087,0.0,0.0,0.0,0.0,0.0,0.0,0.0,0.0,0.0,0.0,-3.6721,-3.6045,-3.5791,-3.6146,-3.618,-3.6518,-3.728,-3.7669,-3.7702,-3.7313,-3.8345,-3.8988,-3.9022,-4.0358,-4.1052,-4.0747,-4.1982,-4.2844,-4.2878,-4.3521,-4.3978,-4.4028,-4.4333,-4.457,-4.457,-4.457,-4.457,-4.457,-4.457,-4.4891,-4.5585,-4.6007,-4.6667,-4.7733,-4.8545,-4.9001,-4.9018,-4.9018,-4.8748,-4.8071,-4.7648,-4.6921,-4.5974,-4.5399,-4.501,-4.4637,-4.457,-4.457,-4.457,-4.457,-4.457,-4.457,-4.457,-4.457,-4.457,-4.457,-4.4671,-4.5077,-4.484,-4.457,-3.9424,-3.9424,-3.9424,-3.9424,-3.9424,-3.9424,-3.9481,-3.9595,0.0,0.0,0.0,-4.0622,-4.0946,-4.1028,-4.1869,-4.2269,-4.2316,-4.3169,-4.3562,-4.3562,-4.4253,-4.457,-4.457,-4.457,-4.4164,-4.3403,-4.2658,-4.1914,-4.1204,-4.046,-4.0087,-4.0087,-4.0087,-4.0087,-4.0087,-4.0087,-4.0087,-4.0087,-4.0087,-4.0087,-4.0087,-4.0087,-4.0087,-4.0087,-4.0087,-4.0087,-4.0087,-4.0087,-3.98,-3.9208,-3.8481,-3.8091,-3.8075,-3.7381,-3.7246,-3.7855,-3.7922,-3.7973,-3.8075,-3.8091,-3.8159,-3.8278,-3.8836,-3.9191,-3.9174,-3.9309,-3.9631,-4.024,-4.1068,-4.1593,-4.161,-4.2811,-4.3623,-4.3639,-4.4198,-4.4553,-4.457,-4.457,-4.457,-4.457,-4.457,-4.457,-4.457,-4.457,-4.4773,-4.5365,-4.5635,-4.6244,-4.7614,-4.8545,-4.8934,-4.8781,-4.8714,-4.8477,-4.7733,-4.7428,-4.6972,-4.5686,-4.5449,-4.528,-4.4773,-4.457,-4.457,-4.457,-4.457,-4.457,-4.457,-4.457,-4.457,-4.457,-4.4665,-4.4776,-4.4759,-4.4852,-4.4906,-3.9424,-3.9424,-3.9424,-3.9424,-3.9424,-3.9424,-3.9793,-4.0485,-4.0485,-4.0961,-4.1674,-4.1739,-4.1804,-4.1853,-4.2707,-4.3108,-4.3169,-4.4006,-4.444,-4.444,-4.457,-4.457,-4.457,-4.457,-4.4181,-4.3403,-4.2642,-4.1931,-4.1187,-4.0426,-4.0087,-4.0087,-4.0087,-4.0087,-4.0087,-4.0087,-4.0087,-4.0087,-4.0087,-4.0087,-4.0087,-4.0087,-4.0087,-4.0087,-4.0087,-4.0087,-4.0087,-4.0087,-4.002,-3.9901,-3.9242,-3.8836,-3.8819,-3.8142,-3.7804,-3.7889,-3.7922,-3.8176,-3.8802,-3.8853,-3.9106,-3.9715,-3.9868,-3.9918,-3.9935,-4.0527,-4.0933,-4.1085,-4.2252,-4.3098,-4.3166,-4.3859,-4.435,-4.4384,-4.4485,-4.457,-4.457,-4.457,-4.457,-4.457,-4.457,-4.457,-4.457,-4.457,-4.4621,-4.4807,-4.5348,-4.621,-4.7479,-4.8545,-4.868,-4.824,-4.8071,-4.7496,-4.6532,-4.6041,-4.5754,-4.4891,-4.4773,-4.4773,-4.4621,-4.457,-4.457,-4.457,-4.4609,-4.4626,-4.4609,-4.457,-4.472,-4.4759,-4.5089,-4.5355,-4.5355,-4.5732,-4.5783,-3.9424,-3.9424,-3.9424,-3.9424,-3.9409,-3.9935,-4.0638,-4.1396,-4.1917,-4.2062,-4.2045,-4.2504,-4.2724,-4.2785,-4.3621,-4.4006,-4.4006,-4.444,-4.457,-4.457,-4.457,-4.457,-4.457,-4.457,-4.4384,-4.3978,-4.2844,-4.2117,-4.1711,-4.0646,-4.0087,-4.0087,-4.0087,-4.0087,-4.0087,-4.0087,-4.0087,-4.0087,-4.0087,-4.0087,-4.0087,-4.0087,-4.0087,-4.0087,-4.0087,-4.0087,-4.0087,-4.0087,-3.9901,-3.9512,-3.9174,-3.8988,-3.8988,-3.8684,-3.8684,-3.9039,-3.9089,-3.9225,-3.9563,-3.958,-3.9901,-4.0629,-4.0696,-4.0865,-4.1255,-4.1221,-4.1373,-4.1779,-4.2794,-4.3403,-4.3436,-4.4113,-4.457,-4.457,-4.457,-4.457,-4.457,-4.457,-4.457,-4.457,-4.457,-4.457,-4.457,-4.457,-4.457,-4.4637,-4.5229,-4.6007,-4.665,-4.7361,-4.7851,-4.7902,-4.7919,-4.7293,-4.5991,-4.5703,-4.5382,-4.4705,-4.457,-4.457,-4.457,-4.4626,-4.4626,-4.4626,-4.4869,-4.5035,-4.5089,-4.5355,-4.5494,-4.5597,-4.5783,-4.5965,-4.6046,-4.624,-4.6143,-3.9275,-3.9424,-3.9424,-3.9466,-3.9737,-4.0432,-4.128,-4.2332,-4.297,-4.3047,-4.2707,-4.3306,-4.3562,-4.368,-4.4327,-4.457,-4.457,-4.457,-4.457,-4.457,-4.457,-4.457,-4.457,-4.457,-4.457,-4.4384,-4.3031,-4.2303,-4.2117,-4.0798,-4.0087,-4.0087,-4.0087,-4.0087,-4.0087,-4.0087,-4.0087,-4.0087,-4.0087,-4.0087,-4.0087,-4.0087,-4.0087,-4.0087,-4.0087,-4.0087,-4.0087,-4.0087,-3.9817,-3.9276,-3.9242,-3.9242,-3.9242,-3.9225,-3.9495,-4.0003,-4.0087,-4.0087,-4.0087,-4.0087,-4.0392,-4.1136,-4.1204,-4.1576,-4.2354,-4.2033,-4.1931,-4.2523,-4.325,-4.3707,-4.3775,-4.4198,-4.457,-4.457,-4.457,-4.457,-4.457,-4.457,-4.457,-4.4587,-4.472,-4.4797,-4.4814,-4.4906,-4.5035,-4.5174,-4.538,-4.5699,-4.6105,-4.6561,-4.7026,-4.7551,-4.7614,-4.6853,-4.5703,-4.5415,-4.5162,-4.4621,-4.4759,-4.4797,-4.4852,-4.4906,-4.4998,-4.5142,-4.5425,-4.5648,-4.5732,-4.5996,-4.627,-4.6288,-4.643,-4.6664,-4.6847,-4.6892,-4.671,-3.8856,-3.9379,-3.9409,-3.9864,-4.05,-4.069,-4.1674,-4.3047,-4.3306,-4.3739,-4.4253,-4.4457,-4.444,-4.4514,-4.457,-4.457,-4.457,-4.457,-4.457,-4.457,-4.457,-4.457,-4.457,-4.457,-4.457,-4.4384,-4.3014,-4.2303,-4.2219,-4.0798,-4.0087,-4.0087,-4.0087,-4.0087,-4.0087,-4.0087,-4.0087,-4.0087,-4.0087,-4.0087,-4.0087,-4.0087,-4.0087,-4.0087,-4.0087,-4.0087,-4.0087,-4.0087,-4.0054,-3.9969,-3.9952,-3.9952,-4.0019,-3.9969,-4.0003,-4.0087,-4.0087,-4.0087,-4.0087,-4.0087,-4.0426,-4.1102,-4.1271,-4.1899,-4.3132,-4.3234,-4.3217,-4.3474,-4.4067,-4.4384,-4.4451,-4.4592,-4.4682,-4.4682,-4.472,-4.457,-4.4665,-4.457,-4.457,-4.457,-4.5142,-4.5425,-4.5459,-4.5783,-4.6143,-4.6014,-4.577,-4.6048,-4.7,-4.6847,-4.6864,-4.7264,-4.6788,-4.5773,-4.5077,-4.4744,-4.4895,-4.4776,-4.5089,-4.5372,-4.5511,-4.5765,-4.6192,-4.5915,-4.6192,-4.6336,-4.6336,-4.6365,-4.646,-4.6692,-4.7044,-4.7428,-4.7937,-4.8017,-4.7656,-3.8556,-3.8856,-3.9245,-3.961,-4.006,-4.1013,-4.1869,-4.2583,-4.3604,-4.427,-4.457,-4.457,-4.457,-4.457,-4.457,-4.457,-4.457,-4.457,-4.457,-4.457,-4.457,-4.457,-4.457,-4.457,-4.457,-4.4434,-4.3031,-4.2303,-4.2049,-4.0798,-4.0087,-4.0087,-4.0087,-4.0087,-4.0087,-4.0087,-4.0087,-4.0087,-4.0087,-4.0087,-4.0087,-4.0087,-4.0087,-4.0087,-4.0087,-4.0087,-4.0087,-4.0087,-4.0087,-4.0087,-4.0087,-4.0087,-4.0087,-4.0087,-4.0087,-4.0087,-4.0087,-4.0087,-4.0087,-4.0493,-4.1068,-4.1796,-4.2638,-4.3529,-4.4507,-4.4975,-4.5161,-4.5163,-4.481,-4.457,-4.4626,-4.4906,-4.5142,-4.5178,-4.5459,-4.5648,-4.563,-4.5648,-4.5648,-4.5699,-4.5883,-4.6046,-4.6046,-4.624,-4.6383,-4.6365,-4.6161,-4.6509,-4.7409,-4.6984,-4.6864,-4.7311,-4.6788,-4.6133,-4.57,-4.5648,-4.5648,-4.5681,-4.5865,-4.5996,-4.6063,-4.6192,-4.6365,-4.6413,-4.6756,-4.6955,-4.6999,-4.7324,-4.7512,-4.7554,-4.7596,-4.8035,-4.8267,-4.8324,-4.7995,-3.8227,-3.8482,-3.9125,-3.9666,-4.0185,-4.1478,-4.2252,-4.2831,-4.4047,-4.457,-4.457,-4.457,-4.457,-4.457,-4.457,-4.457,-4.457,-4.457,-4.457,-4.457,-4.457,-4.457,-4.457,-4.457,-4.457,-4.4367,-4.325,-4.2405,-4.1914,-4.073,-4.0087,-4.0087,-4.0087,-4.0087,-4.0087,-4.0087,-4.0087,-4.0087,-4.0087,-4.0087,-4.0087,-4.0087,-4.0087,-4.0087,-4.0087,-4.0087,-4.0087,-4.0087,-4.0087,-4.0087,-4.0087,-4.0087,-4.0087,-4.0087,-4.0087,-4.0087,-4.0087,-4.0087,-4.0087,-4.0968,-4.1801,-4.2569,-4.3885,-4.4963,-4.5641,-4.6143,-4.6365,-4.6318,-4.5597,-4.5125,-4.5125,-4.5511,-4.5732,-4.5783,-4.6143,-4.6365,-4.6365,-4.6365,-4.6365,-4.6413,-4.6524,-4.6774,-4.691,-4.6999,-4.7026,-4.6981,-4.6819,-4.6944,-4.7589,-4.724,-4.7005,-4.7706,-4.7295,-4.6827,-4.6507,-4.627,-4.6365,-4.6478,-4.6478,-4.6664,-4.671,-4.6756,-4.6937,-4.7324,-4.7512,-4.7614,-4.7614,-4.8017,-4.8249,-4.8267,-4.8267,-4.8267,-4.8324,-4.8324,-4.8324,-3.7808,-3.8452,-3.9125,-4.0239,-4.1869,-4.1933,-4.2909,-4.4121,-4.4514,-4.457,-4.457,-4.457,-4.457,-4.457,-4.457,-4.457,-4.457,-4.457,-4.457,-4.457,-4.457,-4.457,-4.457,-4.457,-4.457,-4.4502,-4.3707,-4.2608,-4.1322,-4.0476,-4.0087,-4.0087,-4.0087,-4.0087,-4.0087,-4.0087,-4.0087,-4.0087,-4.0087,-4.0087,-4.0087,-4.0087,-4.0087,-4.0087,-4.0087,-4.0087,-4.0087,-4.0087,-4.0087,-4.0087,-4.0087,-4.0087,-4.0087,-4.0087,-4.0121,-4.0121,-4.0121,-4.0121,-4.0339,-4.1412,-4.2445,-4.3287,-4.4466,-4.5581,-4.6277,-4.6507,-4.6553,-4.6413,-4.643,-4.6336,-4.6336,-4.6336,-4.6383,-4.6383,-4.643,-4.6507,-4.646,-4.66,-4.6413,-4.6571,-4.7044,-4.747,-4.8075,-4.821,-4.8075,-4.7977,-4.7656,-4.7657,-4.8166,-4.7855,-4.7723,-4.8174,-4.82,-4.7779,-4.6738,-4.6692,-4.66,-4.671,-4.715,-4.7342,-4.7572,-4.7756,-4.7977,-4.8114,-4.8093,-4.8132,-4.821,-4.8249,-4.8267,-4.8324,-4.8324,-4.8324,-4.8324,-4.8324,-4.8324,-3.7434,-3.8407,-3.8646,-3.9385,-4.0432,-4.1543,-4.2379,-4.3047,-4.4121,-4.457,-4.457,-4.457,-4.457,-4.457,-4.457,-4.457,-4.457,-4.457,-4.457,-4.457,-4.457,-4.457,-4.457,-4.457,-4.457,-4.4451,-4.3775,-4.2642,-4.1271,-4.0426,-4.0087,-4.0087,-4.0087,-4.0087,-4.0087,-4.0087,-4.0087,-4.0087,-4.0087,-4.0087,-4.0087,-4.0087,-4.0087,-4.0087,-4.0087,-4.0087,-4.0087,-4.0087,-4.0087,-4.0087,-4.0087,-4.0087,-4.0087,-4.0087,-4.0254,-4.0577,-4.0642,-4.0832,-4.1237,-4.2093,-4.2984,-4.3803,-4.5063,-4.6201,-4.6908,-4.7367,-4.7614,-4.7614,-4.7596,-4.7596,-4.7554,-4.7281,-4.7044,-4.7088,-4.7367,-4.7554,-4.7614,-4.7596,-4.7596,-4.7638,-4.7856,-4.8075,-4.821,-4.8324,-4.8324,-4.8267,-4.8114,-4.8495,-4.9347,-4.8824,-4.8309,-4.9292,-4.9022,-4.8172,-4.7779,-4.7638,-4.7656,-4.7697,-4.7856,-4.7937,-4.8093,-4.8093,-4.821,-4.821,-4.8324,-4.8324,-4.8267,-4.8267,-4.8324,-4.8324,-4.8324,-4.8324,-4.8324,-4.8324,-4.8324,-3.7105,-3.8003,-3.8078,-3.8786,-4.0025,-4.1162,-4.2106,-4.2876,-4.4064,-4.457,-4.457,-4.457,-4.457,-4.457,-4.457,-4.457,-4.457,-4.457,-4.457,-4.457,-4.457,-4.457,-4.457,-4.457,-4.457,-4.4401,-4.3521,-4.2489,-4.1559,-4.0561,-4.0104,-4.0087,-4.0087,-4.0087,-4.0087,-4.0087,-4.0087,-4.0087,-4.0087,-4.0087,-4.0087,-4.0087,-4.0087,-4.0087,-4.0087,-4.0087,-4.0087,-4.0087,-4.0087,-4.0087,-4.0087,-4.0154,-4.0336,-4.0546,-4.0814,-4.115,-4.1241,-4.1393,-4.1856,-4.269,-4.3558,-4.4385,-4.5719,-4.6821,-4.7588,-4.8075,-4.8267,-4.8324,-4.8324,-4.8324,-4.821,-4.7937,-4.7715,-4.7697,-4.8075,-4.8324,-4.8324,-4.8267,-4.8267,-4.8229,-4.8229,-4.8286,-4.8324,-4.8324,-4.8324,-4.8324,-4.8324,-4.8857,-4.9517,-4.9187,-4.86,-4.9646,-4.8967,-4.8416,-4.8114,-4.8035,-4.8035,-4.8075,-4.8075,-4.8229,-4.8324,-4.8324,-4.8324,-4.8324,-4.8324,-4.8324,-4.8324,-4.8324,-4.8324,-4.8324,-4.8324,-4.8324,-4.8324,-4.8324,-4.8324,-3.6821,-3.7375,-3.7389,-3.8734,-4.0515,-4.0942,-4.2343,-4.4028,-4.4429,-4.4485,-4.4553,-4.457,-4.457,-4.457,-4.457,-4.457,-4.457,-4.457,-4.457,-4.457,-4.457,-4.457,-4.457,-4.457,-4.457,-4.4485,-4.3047,-4.2337,-4.2134,-4.0798,-4.0087,-4.0087,-4.0087,-4.0087,-4.0087,-4.0087,-4.0087,-4.0087,-4.0087,-4.0087,-4.0087,-4.0087,-4.0121,-4.0171,-4.0171,-4.0171,-4.0171,-4.0171,-4.0171,-4.0171,-4.0204,-4.0368,-4.092,-4.1358,-4.175,-4.1768,-4.181,-4.1793,-4.2008,-4.3086,-4.4104,-4.503,-4.6278,-4.7219,-4.7988,-4.8267,-4.8324,-4.8324,-4.8324,-4.8324,-4.8324,-4.8267,-4.8229,-4.8267,-4.8267,-4.8324,-4.8324,-4.8324,-4.8324,-4.8324,-4.8324,-4.8324,-4.8324,-4.8324,-4.8324,-4.8324,-4.8324,-4.8434,-4.8802,-4.8563,-4.8379,-4.8508,-4.8489,-4.8361,-4.8324,-4.8324,-4.8324,-4.8286,-4.8267,-4.8324,-4.8324,-4.8324,-4.8324,-4.8324,-4.8324,-4.8324,-4.8324,-4.8324,-4.8324,-4.8324,-4.8324,-4.8324,-4.8324,-4.8324,-4.8324,-3.6193,-3.6813,-3.7349,-3.8222,-3.9455,-4.051,-4.1798,-4.2974,-4.3536,-4.4079,-4.4502,-4.457,-4.457,-4.457,-4.457,-4.457,-4.457,-4.457,-4.457,-4.457,-4.457,-4.457,-4.457,-4.457,-4.457,-4.4316,-4.3014,-4.2286,-4.2016,-4.0798,-4.0087,-4.0087,-4.0087,-4.0087,-4.0087,-4.0087,-4.0087,-4.0087,-4.0087,-4.0087,-4.0087,-4.0087,-4.0254,-4.0625,-4.0672,-4.0672,-4.0707,-4.0689,-4.0655,-4.0672,-4.1059,-4.1375,-4.1534,-4.1725,-4.1961,-4.2342,-4.244,-4.2637,-4.2958,-4.336,-4.4236,-4.5388,-4.6085,-4.691,-4.8086,-4.8306,-4.8306,-4.8324,-4.8324,-4.8324,-4.8324,-4.8324,-4.8324,-4.8324,-4.8324,-4.8324,-4.8324,-4.8324,-4.8324,-4.8324,-4.8324,-4.8324,-4.8324,-4.8324,-4.8324,-4.8324,-4.8324,-4.8434,-4.8912,-4.8581,-4.8636,-4.9003,-4.871,-4.8324,-4.8324,-4.8324,-4.8324,-4.8324,-4.8324,-4.8324,-4.8324,-4.8324,-4.8324,-4.8324,-4.8324,-4.8324,-4.8324,-4.8324,-4.8324,-4.8324,-4.8324,-4.8324,-4.8324,-4.8324,-4.8324,-3.5909,-3.6565,-3.7015,-3.8013,-3.9166,-4.0286,-4.1451,-4.2599,-4.3166,-4.3859,-4.4468,-4.457,-4.457,-4.457,-4.457,-4.457,-4.457,-4.457,-4.457,-4.457,-4.457,-4.457,-4.457,-4.457,-4.4384,-4.3961,-4.2878,-4.2134,-4.183,-4.0713,-4.0087,-4.0087,-4.0087,-4.0087,-4.0087,-4.0087,-4.0087,-4.0087,-4.0087,-4.0087,-4.0087,-4.0087,-4.0254,-4.0528,-4.0642,-4.072,-4.0955,-4.1105,-4.1133,-4.1087,-4.1664,-4.2121,-4.2144,-4.2324,-4.2619,-4.2884,-4.3014,-4.3124,-4.3444,-4.3481,-4.403,-4.5204,-4.5736,-4.6452,-4.7609,-4.8049,-4.8324,-4.8324,-4.8324,-4.8324,-4.8324,-4.8324,-4.8324,-4.8324,-4.8324,-4.8324,-4.8324,-4.8324,-4.8324,-4.8324,-4.8324,-4.8324,-4.8324,-4.8324,-4.8324,-4.8324,-4.8324,-4.8398,-4.8875,-4.8618,-4.882,-4.8912,-4.86,-4.8361,-4.8324,-4.8324,-4.8324,-4.8324,-4.8324,-4.8324,-4.8324,-4.8324,-4.8324,-4.8324,-4.8324,-4.8324,-4.8324,-4.8324,-4.8324,-4.8324,-4.8324,-4.8324,-4.8324,-4.8324,-4.8324,-3.5958,-3.6554,-3.6676,-3.7939,-3.9818,-4.0089,-4.1288,-4.3057,-4.32,-4.3639,-4.4316,-4.4401,-4.4434,-4.4485,-4.4502,-4.457,-4.457,-4.457,-4.457,-4.457,-4.4553,-4.4536,-4.4401,-4.4367,-4.4012,-4.3318,-4.254,-4.188,-4.1322,-4.0493,-4.0087,-4.0087,-4.0087,-4.0087,-4.0087,-4.0087,-4.0087,-4.0087,-4.0087,-4.0121,-4.0171,-4.0171,-4.0303,-4.0417,-4.0514,-4.072,-4.1196,-4.1621,-4.1621,-4.1313,-4.2226,-4.2732,-4.2808,-4.3214,-4.3391,-4.341,-4.3497,-4.3444,-4.3479,-4.3479,-4.3864,-4.4745,-4.5516,-4.625,-4.7131,-4.7884,-4.8324,-4.8324,-4.8324,-4.8324,-4.8324,-4.8324,-4.8324,-4.8324,-4.8324,-4.8324,-4.8324,-4.8324,-4.8324,-4.8324,-4.8324,-4.8324,-4.8324,-4.8324,-4.8324,-4.8324,-4.8324,-4.8398,-4.8398,-4.8398,-4.8343,-4.8343,-4.8379,-4.8361,-4.8324,-4.8324,-4.8324,-4.8324,-4.8324,-4.8324,-4.8324,-4.8324,-4.8324,-4.8324,-4.8324,-4.8324,-4.8324,-4.8324,-4.8324,-4.8324,-4.8324,-4.8324,-4.8324,-4.8324,-4.8324,-3.5943,-3.6661,-3.7219,-3.8189,-3.9259,-3.9843,-4.1047,-4.2405,-4.2033,-4.2591,-4.3521,-4.3724,-4.3758,-4.3792,-4.4333,-4.457,-4.457,-4.457,-4.457,-4.457,-4.457,-4.4215,-4.3826,-4.3724,-4.3335,-4.2574,-4.1914,-4.139,-4.1153,-4.0426,-4.0087,-4.0087,-4.0087,-4.0087,-4.0087,-4.0087,-4.0087,-4.0087,-4.0121,-4.0319,-4.0607,-4.0703,-4.115,-4.1955,-4.1955,-4.1997,-4.2203,-4.2382,-4.2619,-4.2847,-4.3051,-4.3304,-4.325,-4.341,-4.3479,-4.3479,-4.3479,-4.3479,-4.3479,-4.3479,-4.3864,-4.4635,-4.5424,-4.625,-4.7058,-4.7829,-4.8251,-4.8324,-4.8324,-4.8324,-4.8324,-4.8324,-4.8324,-4.8324,-4.8324,-4.8324,-4.8324,-4.8324,-4.8324,-4.8324,-4.8324,-4.8324,-4.8324,-4.8324,-4.8324,-4.8324,-4.8324,-4.8324,-4.8324,-4.8324,-4.8324,-4.8324,-4.8343,-4.8324,-4.8324,-4.8324,-4.8324,-4.8324,-4.8324,-4.8324,-4.8324,-4.8324,-4.8324,-4.8324,-4.8324,-4.8324,-4.8324,-4.8324,-4.8324,-4.8324,-4.8324,-4.8324,-4.8324,-4.8324,-4.8324,-3.6133,-3.716,-3.7632,-3.843,-3.9385,-3.9885,-4.0747,-4.161,-4.1441,-4.183,-4.2828,-4.3301,-4.3403,-4.3487,-4.4215,-4.4553,-4.457,-4.457,-4.457,-4.4519,-4.4231,-4.3842,-4.3504,-4.3403,-4.2878,-4.188,-4.1424,-4.1052,-4.0713,-4.0273,-4.0104,-4.0087,-4.0087,-4.0087,-4.0087,-4.0087,-4.007,-4.0121,-4.0286,-4.0607,-4.0856,-4.1178,-4.1578,-4.2221,-4.2342,-4.24,-4.2655,-4.2902,-4.3214,-4.341,-4.3479,-4.3479,-4.3479,-4.3479,-4.3479,-4.3479,-4.3479,-4.3479,-4.3479,-4.3479,-4.3699,-4.4287,-4.5168,-4.6012,-4.6709,-4.759,-4.8324,-4.8324,-4.8324,-4.8324,-4.8324,-4.8324,-4.8324,-4.8324,-4.8324,-4.8324,-4.8324,-4.8324,-4.8324,-4.8324,-4.8324,-4.8324,-4.8324,-4.8324,-4.8324,-4.8324,-4.8324,-4.8324,-4.8324,-4.8324,-4.8324,-4.8324,-4.8324,-4.8324,-4.8324,-4.8324,-4.8324,-4.8324,-4.8324,-4.8324,-4.8324,-4.8324,-4.8324,-4.8324,-4.8324,-4.8324,-4.8324,-4.8324,-4.8324,-4.8324,-4.8324,-4.8324,-4.8324,-4.8324,-4.8324,-3.643,-3.7822,-3.7822,-3.8668,-3.9969,-4.0087,-4.0544,-4.1136,-4.1068,-4.1457,-4.2202,-4.2963,-4.3166,-4.3352,-4.413,-4.457,-4.457,-4.457,-4.457,-4.4367,-4.3927,-4.3403,-4.3183,-4.2963,-4.2252,-4.1255,-4.1102,-4.0713,-4.0307,-4.0104,-4.0087,-4.0087,-4.0087,-4.0087,-4.0087,-4.007,-4.0121,-4.0336,-4.0625,-4.0995,-4.1313,-4.1707,-4.2021,-4.2226,-4.2324,-4.2462,-4.2846,-4.3214,-4.3479,-4.3479,-4.3479,-4.3479,-4.3479,-4.3479,-4.3479,-4.3479,-4.3479,-4.3479,-4.3479,-4.3497,-4.3497,-4.3809,-4.5057,-4.5883,-4.6269,-4.737,-4.8324,-4.8324,-4.8324,-4.8324,-4.8324,-4.8324,-4.8324,-4.8324,-4.8324,-4.8324,-4.8324,-4.8324,-4.8324,-4.8324,-4.8324,-4.8324,-4.8324,-4.8324,-4.8324,-4.8324,-4.8324,-4.8324,-4.8324,-4.8324,-4.8324,-4.8324,-4.8324,-4.8324,-4.8324,-4.8324,-4.8324,-4.8324,-4.8324,-4.8324,-4.8324,-4.8324,-4.8324,-4.8324,-4.8324,-4.8324,-4.8324,-4.8324,-4.8324,-4.8324,-4.8324,-4.8324,-4.8324,-4.8324,-4.8324,-3.6368,-3.7822,-3.7822,-3.8723,-3.9969,-4.0087,-4.0493,-4.1119,-4.0578,-4.0781,-4.1474,-4.2219,-4.254,-4.2642,-4.3893,-4.457,-4.4553,-4.4536,-4.457,-4.4468,-4.3775,-4.3064,-4.2523,-4.2033,-4.1221,-4.0527,-4.0341,-4.024,-4.0087,-4.0087,-4.0087,-4.0087,-4.0087,-4.0121,-4.0121,-4.0204,-4.0319,-4.0655,-4.0903,-4.1429,-4.2121,-4.2382,-4.2675,-4.2995,-4.3069,-4.3142,-4.3286,-4.3444,-4.3479,-4.3479,-4.3479,-4.3479,-4.3479,-4.3479,-4.3479,-4.3479,-4.3479,-4.3479,-4.3479,-4.3479,-4.3497,-4.3736,-4.4947,-4.5902,-4.6012,-4.7388,-4.8214,-4.8324,-4.8324,-4.8324,-4.8324,-4.8324,-4.8324,-4.8324,-4.8324,-4.8324,-4.8324,-4.8324,-4.8324,-4.8324,-4.8324,-4.8324,-4.8324,-4.8324,-4.8324,-4.8324,-4.8324,-4.8324,-4.8324,-4.8324,-4.8324,-4.8324,-4.8324,-4.8324,-4.8324,-4.8324,-4.8324,-4.8324,-4.8324,-4.8324,-4.8324,-4.8324,-4.8324,-4.8324,-4.8324,-4.8324,-4.8324,-4.8324,-4.8324,-4.8324,-4.8324,-4.8324,-4.8324,-4.8324,-4.8324,-3.6707,-3.7822,-3.8149,-3.8995,-4.002,-4.0087,-4.029,-4.0544,-4.029,-4.029,-4.0764,-4.1457,-4.1948,-4.2371,-4.3487,-4.4181,-4.4434,-4.4164,-4.4012,-4.3741,-4.2946,-4.2168,-4.1745,-4.1068,-4.0426,-4.0104,-4.0087,-4.0087,-4.0087,-4.0087,-4.0087,-4.0087,-4.0121,-4.0286,-4.0449,-4.0497,-4.0797,-4.1313,-4.1621,-4.2103,-4.2616,-4.2976,-4.3142,-4.3444,-4.3479,-4.3479,-4.3479,-4.3479,-4.3479,-4.3479,-4.3479,-4.3479,-4.3479,-4.3479,-4.3479,-4.3479,-4.3479,-4.3479,-4.3479,-4.3497,-4.3644,-4.403,-4.5223,-4.5938,-4.6562,-4.7645,-4.8214,-4.8324,-4.8324,-4.8324,-4.8324,-4.8324,-4.8324,-4.8324,-4.8324,-4.8324,-4.8324,-4.8324,-4.8324,-4.8324,-4.8324,-4.8324,-4.8324,-4.8324,-4.8324,-4.8324,-4.8324,-4.8324,-4.8324,-4.8324,-4.8324,-4.8324,-4.8324,-4.8324,-4.8324,-4.8324,-4.8324,-4.8324,-4.8324,-4.8324,-4.8324,-4.8324,-4.8324,-4.8324,-4.8324,-4.8324,-4.8324,-4.8324,-4.8324,-4.8324,-4.8324,-4.8324,-4.8324,-4.8324,-4.8324,-3.7144,-3.8035,-3.8635,-3.9368,-4.002,-4.0087,-4.0104,-4.0104,-4.0087,-4.0121,-4.024,-4.0882,-4.1593,-4.2168,-4.2878,-4.3639,-4.3842,-4.3606,-4.3234,-4.3064,-4.2016,-4.1491,-4.1136,-4.0612,-4.0172,-4.0087,-4.0087,-4.0087,-4.0087,-4.0087,-4.0087,-4.0121,-4.0237,-4.0449,-4.078,-4.1041,-4.1358,-4.1895,-4.2302,-4.2637,-4.2902,-4.325,-4.3444,-4.3479,-4.3479,-4.3479,-4.3479,-4.3479,-4.3479,-4.3479,-4.3479,-4.3479,-4.3479,-4.3479,-4.3479,-4.3479,-4.3479,-4.3479,-4.3552,-4.3644,-4.3993,-4.4617,-4.5608,-4.6232,-4.6911,-4.7645,-4.8214,-4.8324,-4.8324,-4.8324,-4.8324,-4.8324,-4.8324,-4.8324,-4.8324,-4.8324,-4.8324,-4.8324,-4.8324,-4.8324,-4.8324,-4.8324,-4.8324,-4.8324,-4.8324,-4.8324,-4.8324,-4.8324,-4.8324,-4.8324,-4.8324,-4.8324,-4.8324,-4.8324,-4.8324,-4.8324,-4.8324,-4.8324,-4.8324,-4.8324,-4.8324,-4.8324,-4.8324,-4.8324,-4.8324,-4.8324,-4.8324,-4.8324,-4.8324,-4.8324,-4.8324,-4.8324,-4.8324,-4.8324,-4.8324,-3.7424,-3.8745,-3.8854,-3.9368,-4.002,-4.0087,-4.0087,-4.0087,-4.0087,-4.0087,-4.0172,-4.0849,-4.1221,-4.1593,-4.2134,-4.2574,-4.2777,-4.2591,-4.2489,-4.2354,-4.1525,-4.1119,-4.0933,-4.0426,-4.0087,-4.0087,-4.0087,-4.0087,-4.0087,-4.0087,-4.0204,-4.0254,-4.0577,-4.0874,-4.1133,-4.1402,-4.1937,-4.2444,-4.2732,-4.2939,-4.325,-4.341,-4.3479,-4.3479,-4.3479,-4.3479,-4.3479,-4.3479,-4.3479,-4.3479,-4.3479,-4.3479,-4.3479,-4.3479,-4.3479,-4.3479,-4.3479,-4.3479,-4.3534,-4.4103,-4.4103,-4.436,-4.5626,-4.6434,-4.6709,-4.7425,-4.8196,-4.8324,-4.8324,-4.8324,-4.8324,-4.8324,-4.8324,-4.8324,-4.8324,-4.8324,-4.8324,-4.8324,-4.8324,-4.8324,-4.8324,-4.8324,-4.8324,-4.8324,-4.8324,-4.8324,-4.8324,-4.8324,-4.8324,-4.8324,-4.8324,-4.8324,-4.8324,-4.8324,-4.8324,-4.8324,-4.8324,-4.8324,-4.8324,-4.8324,-4.8324,-4.8324,-4.8324,-4.8324,-4.8324,-4.8324,-4.8324,-4.8324,-4.8324,-4.8324,-4.8324,-4.8324,-4.8324,-4.8324,-4.8324,-3.823,-3.8891,-3.9315,-3.9731,-4.007,-4.0087,-4.0087,-4.0087,-4.0087,-4.0087,-4.0172,-4.0476,-4.0865,-4.1204,-4.1508,-4.1897,-4.2117,-4.183,-4.1762,-4.1576,-4.1001,-4.0629,-4.0646,-4.0223,-4.0121,-4.0087,-4.0087,-4.0121,-4.0121,-4.04,-4.048,-4.0655,-4.1105,-4.149,-4.1793,-4.2121,-4.2541,-4.2976,-4.3087,-4.3214,-4.3479,-4.3479,-4.3479,-4.3479,-4.3479,-4.3479,-4.3479,-4.3479,-4.3479,-4.3479,-4.3479,-4.3479,-4.3479,-4.3479,-4.3479,-4.3479,-4.3479,-4.3479,-4.3608,-4.4232,-4.4635,-4.4984,-4.6287,-4.7095,-4.7278,-4.7884,-4.8288,-4.8324,-4.8324,-4.8324,-4.8324,-4.8324,-4.8324,-4.8324,-4.8324,-4.8324,-4.8324,-4.8324,-4.8324,-4.8324,-4.8324,-4.8324,-4.8324,-4.8324,-4.8324,-4.8324,-4.8324,-4.8324,-4.8324,-4.8324,-4.8324,-4.8324,-4.8324,-4.8324,-4.8324,-4.8324,-4.8324,-4.8324,-4.8324,-4.8324,-4.8324,-4.8324,-4.8324,-4.8324,-4.8324,-4.8324,-4.8324,-4.8324,-4.8324,-4.8324,-4.8324,-4.8324,-4.8324,-4.8324,-4.8324,-3.8962,-3.9193,-3.9833,-4.0087,-4.0087,-4.0087,-4.0087,-4.0087,-4.0087,-4.0087,-4.0087,-4.0121,-4.0443,-4.0849,-4.1018,-4.1271,-4.1779,-4.117,-4.1001,-4.0865,-4.0443,-4.0121,-4.0087,-4.0087,-4.0087,-4.0121,-4.0286,-4.0237,-4.0368,-4.0655,-4.0903,-4.1223,-4.1682,-4.218,-4.2577,-4.2732,-4.3142,-4.3321,-4.3479,-4.3479,-4.3479,-4.3479,-4.3479,-4.3479,-4.3479,-4.3479,-4.3479,-4.3479,-4.3479,-4.3479,-4.3479,-4.3479,-4.3479,-4.3479,-4.3479,-4.3479,-4.3479,-4.3479,-4.3699,-4.4507,-4.5168,-4.5296,-4.6673,-4.748,-4.781,-4.7994,-4.8324,-4.8324,-4.8324,-4.8324,-4.8324,-4.8324,-4.8324,-4.8324,-4.8324,-4.8324,-4.8324,-4.8324,-4.8324,-4.8324,-4.8324,-4.8324,-4.8324,-4.8324,-4.8324,-4.8324,-4.8324,-4.8324,-4.8324,-4.8324,-4.8324,-4.8324,-4.8324,-4.8324,-4.8324,-4.8324,-4.8324,-4.8324,-4.8324,-4.8324,-4.8324,-4.8324,-4.8324,-4.8324,-4.8324,-4.8324,-4.8324,-4.8324,-4.8324,-4.8324,-4.8324,-4.8324,-4.8324,-4.8324,-4.8324,-3.9315,-3.9969,-4.007,-4.0087,-4.0087,-4.0087,-4.0087,-4.0087,-4.0087,-4.0087,-4.0087,-4.0087,-4.0155,-4.0273,-4.0273,-4.0324,-4.0358,-4.0409,-4.0358,-4.0307,-4.0155,-4.0087,-4.0087,-4.0087,-4.0087,-4.0171,-4.0546,-4.078,-4.0874,-4.0949,-4.1251,-4.1707,-4.2244,-4.2673,-4.2826,-4.3142,-4.341,-4.3479,-4.3479,-4.3479,-4.3479,-4.3479,-4.3479,-4.3479,-4.3479,-4.3479,-4.3479,-4.3479,-4.3479,-4.3479,-4.3479,-4.3479,-4.3479,-4.3479,-4.3479,-4.3479,-4.3479,-4.3497,-4.3773,-4.48,-4.5516,-4.5755,-4.6911,-4.7572,-4.781,-4.8031,-4.8324,-4.8324,-4.8324,-4.8324,-4.8324,-4.8324,-4.8324,-4.8324,-4.8324,-4.8324,-4.8324,-4.8324,-4.8324,-4.8324,-4.8324,-4.8324,-4.8324,-4.8324,-4.8324,-4.8324,-4.8324,-4.8324,-4.8324,-4.8324,-4.8324,-4.8324,-4.8324,-4.8324,-4.8324,-4.8324,-4.8324,-4.8324,-4.8324,-4.8324,-4.8324,-4.8324,-4.8324,-4.8324,-4.8324,-4.8324,-4.8324,-4.8324,-4.8324,-4.8324,-4.8324,-4.8324,-4.8324,-4.8324,-4.8324,-3.9043,-4.007,-4.0087,-4.0087,-4.0087,-4.0087,-4.0087,-4.0087,-4.0087,-4.0087,-4.0087,-4.0087,-4.0087,-4.0087,-4.0087,-4.0087,-4.0087,-4.0087,-4.0087,-4.0087,-4.0087,-4.0087,-4.0087,-4.0087,-4.0087,-4.0286,-4.0607,-4.1133,-4.1358,-4.1768,-4.2121,-4.2324,-4.2828,-4.3178,-4.3105,-4.3375,-4.3479,-4.3479,-4.3479,-4.3479,-4.3479,-4.3479,-4.3479,-4.3479,-4.3479,-4.3479,-4.3479,-4.3479,-4.3479,-4.3479,-4.3479,-4.3479,-4.3479,-4.3479,-4.3479,-4.3479,-4.3479,-4.3718,-4.425,-4.5278,-4.5718,-4.6342,-4.737,-4.8049,-4.7902,-4.8049,-4.8324,-4.8324,-4.8324,-4.8324,-4.8324,-4.8324,-4.8324,-4.8324,-4.8324,-4.8324,-4.8324,-4.8324,-4.8324,-4.8324,-4.8324,-4.8324,-4.8324,-4.8324,-4.8324,-4.8324,-4.8324,-4.8324,-4.8324,-4.8324,-4.8324,-4.8324,-4.8324,-4.8324,-4.8324,-4.8324,-4.8324,-4.8324,-4.8324,-4.8324,-4.8324,-4.8324,-4.8324,-4.8324,-4.8324,-4.8324,-4.8324,-4.8324,-4.8324,-4.8324,-4.8324,-4.8324,-4.8324,-4.8324,-4.8324,-3.865,-3.9783,-3.9817,-3.9968,-4.0087,-4.0087,-4.0087,-4.0087,-4.0087,-4.0087,-4.0087,-4.0087,-4.0087,-4.0087,-4.0087,-4.0087,-4.0087,-4.0087,-4.0087,-4.0087,-4.0087,-4.0087,-4.0087,-4.0087,-4.0154,-4.0286,-4.0967,-4.149,-4.2062,-4.2501,-4.2846,-4.2902,-4.3196,-4.3444,-4.3479,-4.3479,-4.3479,-4.3479,-4.3479,-4.3479,-4.3479,-4.3479,-4.3479,-4.3479,-4.3479,-4.3479,-4.3479,-4.3479,-4.3479,-4.3479,-4.3479,-4.3479,-4.3479,-4.3479,-4.3479,-4.3479,-4.3479,-4.3846,-4.4562,-4.5443,-4.6269,-4.7076,-4.7792,-4.8269,-4.8269,-4.8324,-4.8324,-4.8324,-4.8324,-4.8324,-4.8324,-4.8324,-4.8324,-4.8324,-4.8324,-4.8324,-4.8324,-4.8324,-4.8324,-4.8324,-4.8324,-4.8324,-4.8324,-4.8324,-4.8324,-4.8324,-4.8324,-4.8324,-4.8324,-4.8324,-4.8324,-4.8324,-4.8324,-4.8324,-4.8324,-4.8324,-4.8324,-4.8324,-4.8324,-4.8324,-4.8324,-4.8324,-4.8324,-4.8324,-4.8324,-4.8324,-4.8324,-4.8324,-4.8324,-4.8324,-4.8324,-4.8324,-4.8324,-4.8306,-4.8439,-3.8362,-3.9073,-3.9073,-3.9445,-4.0054,-4.0087,-4.0087,-4.0087,-4.0087,-4.0087,-4.0087,-4.0087,-4.0087,-4.0087,-4.0087,-4.0087,-4.0087,-4.0087,-4.0087,-4.0087,-4.0087,-4.0087,-4.0087,-4.0171,-4.0319,-4.075,-4.1268,-4.1937,-4.2598,-4.2995,-4.3286,-4.3444,-4.3444,-4.3479,-4.3479,-4.3479,-4.3479,-4.3479,-4.3479,-4.3479,-4.3479,-4.3479,-4.3479,-4.3479,-4.3479,-4.3479,-4.3479,-4.3479,-4.3479,-4.3479,-4.3479,-4.3479,-4.3479,-4.3479,-4.3479,-4.3479,-4.3479,-4.3901,-4.4654,-4.5461,-4.6269,-4.7076,-4.7792,-4.8324,-4.8324,-4.8324,-4.8324,-4.8324,-4.8324,-4.8324,-4.8324,-4.8324,-4.8324,-4.8324,-4.8324,-4.8324,-4.8324,-4.8324,-4.8324,-4.8324,-4.8324,-4.8324,-4.8324,-4.8324,-4.8324,-4.8324,-4.8324,-4.8324,-4.8324,-4.8324,-4.8324,-4.8324,-4.8324,-4.8324,-4.8324,-4.8324,-4.8324,-4.8324,-4.8324,-4.8324,-4.8324,-4.8324,-4.8306,-4.8324,-4.8324,-4.8324,-4.8344,-4.8402,-4.8421,-4.8344,-4.8324,-4.8344,-4.8458,-4.8586,-4.8692,-3.7212,-3.8311,-3.8328,-3.8751,-3.9428,-3.9884,-4.0087,-4.0087,-4.0087,-4.0087,-4.0087,-4.0087,-4.0087,-4.0087,-4.0087,-4.0087,-4.0087,-4.0087,-4.0087,-4.0087,-4.0087,-4.0087,-4.0087,-4.0121,-4.0204,-4.0625,-4.1313,-4.1835,-4.2144,-4.3069,-4.341,-4.3479,-4.3479,-4.3479,-4.3479,-4.3479,-4.3479,-4.3479,-4.3479,-4.3479,-4.3479,-4.3479,-4.3479,-4.3479,-4.3479,-4.3479,-4.3479,-4.3479,-4.3479,-4.3479,-4.3479,-4.3479,-4.3479,-4.3479,-4.3479,-4.3479,-4.3479,-4.392,-4.4672,-4.5516,-4.6452,-4.7609,-4.8141,-4.8324,-4.8324,-4.8324,-4.8324,-4.8324,-4.8324,-4.8324,-4.8324,-4.8324,-4.8324,-4.8324,-4.8324,-4.8324,-4.8324,-4.8324,-4.8324,-4.8324,-4.8324,-4.8324,-4.8324,-4.8324,-4.8324,-4.8324,-4.8324,-4.8324,-4.8324,-4.8324,-4.8324,-4.8324,-4.8324,-4.8324,-4.8324,-4.8324,-4.8324,-4.8324,-4.8306,-4.8364,-4.8402,-4.8306,-4.8306,-4.8306,-4.8364,-4.8421,-4.8513,-4.8568,-4.8568,-4.8458,-4.8421,-4.8421,-4.8568,-4.8832,-4.9029,-3.6518,-3.7855,-3.7922,-3.8447,-3.9326,-3.9868,-4.0087,-4.0087,-4.0087,-4.0087,-4.0087,-4.0087,-4.0087,-4.0087,-4.0087,-4.0087,-4.0087,-4.0087,-4.0087,-4.0087,-4.0087,-4.0087,-4.0087,-4.0171,-4.0336,-4.0642,-4.1286,-4.1877,-4.2523,-4.3142,-4.3391,-4.3479,-4.3479,-4.3479,-4.3479,-4.3479,-4.3479,-4.3479,-4.3479,-4.3479,-4.3479,-4.3479,-4.3479,-4.3479,-4.3479,-4.3479,-4.3479,-4.3479,-4.3479,-4.3479,-4.3479,-4.3479,-4.3479,-4.3479,-4.3479,-4.3479,-4.3571,-4.3883,-4.469,-4.5773,-4.6838,-4.7994,-4.8251,-4.8324,-4.8324,-4.8324,-4.8324,-4.8324,-4.8324,-4.8324,-4.8324,-4.8324,-4.8324,-4.8324,-4.8324,-4.8324,-4.8324,-4.8324,-4.8324,-4.8324,-4.8324,-4.8324,-4.8324,-4.8324,-4.8324,-4.8324,-4.8324,-4.8324,-4.8324,-4.8324,-4.8324,-4.8324,-4.8324,-4.8324,-4.8324,-4.8344,-4.8382,-4.8364,-4.8421,-4.8532,-4.8532,-4.8513,-4.8604,-4.8832,-4.8847,-4.8692,-4.8744,-4.8963,-4.8813,-4.8568,-4.8657,-4.8829,-4.893,-4.9221,-4.9416,-3.6518,-3.7855,-3.7922,-3.8717,-3.9935,-4.0054,-4.0087,-4.0087,-4.0087,-4.0087,-4.0087,-4.0087,-4.0087,-4.0087,-4.0087,-4.0087,-4.0087,-4.0087,-4.0087,-4.0087,-4.0204,-4.0171,-4.0204,-4.0336,-4.0814,-4.1552,-4.1937,-4.2444,-4.3232,-4.3391,-4.3479,-4.3479,-4.3479,-4.3479,-4.3479,-4.3479,-4.3479,-4.3479,-4.3479,-4.3479,-4.3479,-4.3479,-4.3479,-4.3479,-4.3479,-4.3479,-4.3479,-4.3479,-4.3479,-4.3479,-4.3479,-4.3479,-4.3479,-4.3479,-4.3479,-4.3479,-4.3479,-4.3901,-4.4727,-4.6195,-4.726,-4.8104,-4.8324,-4.8324,-4.8324,-4.8324,-4.8324,-4.8324,-4.8324,-4.8324,-4.8324,-4.8324,-4.8324,-4.8324,-4.8324,-4.8324,-4.8324,-4.8324,-4.8324,-4.8324,-4.8324,-4.8324,-4.8324,-4.8324,-4.8324,-4.8324,-4.8324,-4.8324,-4.8324,-4.8324,-4.8324,-4.8382,-4.8364,-4.8495,-4.8495,-4.8439,-4.8439,-4.8458,-4.8568,-4.8779,-4.8963,-4.9029,-4.919,-4.9375,-4.9252,-4.9029,-4.9202,-4.9397,-4.9234,-4.9139,-4.9295,-4.9445,-4.9475,-4.9608,-4.9853,-3.6518,-3.7889,-3.7922,-3.8751,-3.9969,-4.0087,-4.0087,-4.0087,-4.0087,-4.0087,-4.0087,-4.0087,-4.0087,-4.0087,-4.0087,-4.0087,-4.0087,-4.0087,-4.0087,-4.0171,-4.04,-4.0607,-4.0703,-4.0984,-4.142,-4.181,-4.2162,-4.248,-4.2902,-4.3286,-4.3479,-4.3479,-4.3479,-4.3479,-4.3479,-4.3479,-4.3479,-4.3479,-4.3479,-4.3479,-4.3479,-4.3479,-4.3479,-4.3479,-4.3479,-4.3479,-4.3479,-4.3479,-4.3479,-4.3479,-4.3479,-4.3479,-4.3479,-4.3479,-4.3479,-4.3497,-4.3534,-4.414,-4.5076,-4.6214,-4.6929,-4.7755,-4.8306,-4.8306,-4.8324,-4.8324,-4.8324,-4.8324,-4.8324,-4.8324,-4.8324,-4.8324,-4.8324,-4.8324,-4.8324,-4.8324,-4.8324,-4.8324,-4.8324,-4.8324,-4.8324,-4.8324,-4.8324,-4.8324,-4.8324,-4.8324,-4.8324,-4.8324,-4.8324,-4.8324,-4.8324,-4.8421,-4.8513,-4.8621,-4.8692,-4.8568,-4.8676,-4.8763,-4.8963,-4.9234,-4.9386,-4.9435,-4.9416,-4.9386,-4.9386,-4.9386,-4.9445,-4.9504,-4.97,-4.9754,-4.9853,-4.9879,-4.9898,-5.0092,-5.038,-3.6518,-3.7855,-3.7922,-3.8751,-3.9952,-4.0087,-4.0087,-4.0087,-4.0087,-4.0087,-4.0087,-4.0087,-4.0087,-4.0087,-4.0087,-4.0087,-4.0087,-4.0087,-4.0336,-4.0368,-4.0685,-4.0949,-4.1268,-4.1621,-4.1853,-4.2162,-4.248,-4.2788,-4.3105,-4.3339,-4.3479,-4.3479,-4.3479,-4.3479,-4.3479,-4.3479,-4.3479,-4.3479,-4.3479,-4.3479,-4.3479,-4.3479,-4.3479,-4.3479,-4.3479,-4.3479,-4.3479,-4.3479,-4.3479,-4.3479,-4.3479,-4.3479,-4.3479,-4.3479,-4.3479,-4.3497,-4.3901,-4.4433,-4.5149,-4.581,-4.6617,-4.7664,-4.8086,-4.8306,-4.8324,-4.8324,-4.8324,-4.8324,-4.8324,-4.8324,-4.8324,-4.8324,-4.8324,-4.8324,-4.8324,-4.8324,-4.8324,-4.8324,-4.8324,-4.8324,-4.8324,-4.8324,-4.8324,-4.8324,-4.8324,-4.8324,-4.8324,-4.8344,-4.8344,-4.8306,-4.8306,-4.8402,-4.8477,-4.8568,-4.8621,-4.8657,-4.8779,-4.9029,-4.9295,-4.9532,-4.9475,-4.9464,-4.9445,-4.9485,-4.9617,-4.9673,-4.9532,-4.9589,-4.9949,-5.0183,-5.0317,-5.0336,-5.0313,-5.0366,-5.051,-3.6502,-3.777,-3.7889,-3.8684,-3.9884,-4.0037,-4.0087,-4.0087,-4.0087,-4.0087,-4.0087,-4.0087,-4.0087,-4.0087,-4.0087,-4.0087,-4.0171,-4.0171,-4.0449,-4.0827,-4.1133,-4.1446,-4.175,-4.1979,-4.2364,-4.2598,-4.2826,-4.3087,-4.3444,-4.3479,-4.3479,-4.3479,-4.3479,-4.3479,-4.3479,-4.3479,-4.3479,-4.3479,-4.3479,-4.3479,-4.3479,-4.3479,-4.3479,-4.3479,-4.3479,-4.3479,-4.3479,-4.3479,-4.3479,-4.3479,-4.3479,-4.3479,-4.3479,-4.3479,-4.3479,-4.3681,-4.4195,-4.447,-4.4874,-4.5443,-4.6067,-4.6985,-4.7609,-4.8031,-4.8324,-4.8324,-4.8324,-4.8324,-4.8324,-4.8324,-4.8324,-4.8324,-4.8324,-4.8324,-4.8324,-4.8324,-4.8324,-4.8324,-4.8324,-4.8324,-4.8324,-4.8324,-4.8324,-4.8324,-4.8439,-4.8477,-4.8513,-4.8604,-4.8586,-4.8344,-4.8344,-4.8344,-4.8402,-4.8421,-4.8568,-4.8863,-4.9234,-4.9561,-4.9475,-4.9617,-4.9561,-4.9664,-4.98,-4.9905,-5.0024,-5.0024,-4.9974,-5.0092,-5.0358,-5.0544,-5.0523,-5.0525,-5.0421,-5.0141,-5.0125,-3.6197,-3.7077,-3.711,-3.7956,-3.9276,-3.9851,-4.0087,-4.0087,-4.0087,-4.0087,-4.0087,-4.0087,-4.002,-4.0087,-4.0087,-4.0087,-4.0254,-4.0449,-4.0685,-4.1087,-4.1621,-4.2121,-4.2501,-4.2752,-4.3069,-4.316,-4.325,-4.3286,-4.3444,-4.3479,-4.3479,-4.3479,-4.3479,-4.3479,-4.3479,-4.3479,-4.3479,-4.3479,-4.3479,-4.3479,-4.3479,-4.3479,-4.3479,-4.3479,-4.3479,-4.3479,-4.3479,-4.3479,-4.3479,-4.3479,-4.3479,-4.3479,-4.3479,-4.3479,-4.3479,-4.3497,-4.3773,-4.403,-4.4599,-4.4911,-4.5388,-4.603,-4.6526,-4.7315,-4.7847,-4.8214,-4.8214,-4.8288,-4.8306,-4.8324,-4.8324,-4.8324,-4.8324,-4.8324,-4.8306,-4.8326,-4.8364,-4.8439,-4.8421,-4.8532,-4.8532,-4.8532,-4.8495,-4.8458,-4.8568,-4.8657,-4.8779,-4.8863,-4.8829,-4.8621,-4.855,-4.855,-4.864,-4.8763,-4.9126,-4.9475,-4.98,-5.0068,-4.9853,-4.9827,-5.0068,-5.0159,-5.0272,-5.023,-5.0159,-5.0313,-5.0544,-5.0584,-5.0462,-5.0502,-5.0483,-5.0544,-5.0489,-5.0029,-4.9894,-3.6079,-3.6738,-3.6789,-3.7483,-3.8531,-3.9022,-3.9343,-3.9597,-3.9648,-3.9766,-4.0087,-3.9749,-3.98,-4.007,-4.0087,-4.0121,-4.0121,-4.0368,-4.0703,-4.149,-4.2062,-4.2541,-4.2976,-4.3304,-4.341,-4.3479,-4.3479,-4.3444,-4.3479,-4.3479,-4.3479,-4.3479,-4.3479,-4.3479,-4.3479,-4.3479,-4.3479,-4.3479,-4.3479,-4.3479,-4.3479,-4.3479,-4.3479,-4.3479,-4.3479,-4.3479,-4.3479,-4.3479,-4.3479,-4.3479,-4.3479,-4.3479,-4.3479,-4.3479,-4.3479,-4.3497,-4.3534,-4.3754,-4.4085,-4.4176,-4.469,-4.5168,-4.5461,-4.6104,-4.6911,-4.7425,-4.7865,-4.8196,-4.8269,-4.8324,-4.8324,-4.8324,-4.8324,-4.8324,-4.8326,-4.8383,-4.844,-4.8532,-4.8657,-4.8797,-4.8813,-4.8847,-4.8813,-4.8744,-4.8813,-4.9029,-4.9139,-4.9202,-4.9202,-4.9108,-4.9029,-4.8996,-4.9075,-4.9202,-4.9561,-4.9792,-4.9872,-4.9949,-4.98,-4.9898,-5.0336,-5.0336,-5.0092,-5.0092,-5.0135,-5.0358,-5.0663,-5.0462,-5.0336,-5.0421,-5.0448,-5.0335,-5.0009,-4.9375,-4.9452,-3.6045,-3.6671,-3.6755,-3.711,-3.7702,-3.7905,-3.8294,-3.8785,-3.8751,-3.9292,-3.98,-3.9326,-3.9462,-4.0036,-4.0087,-4.0087,-4.0254,-4.0466,-4.1013,-4.181,-4.2226,-4.2696,-4.3214,-4.3479,-4.3479,-4.3479,-4.3479,-4.3479,-4.3479,-4.3479,-4.3479,-4.3479,-4.3479,-4.3479,-4.3479,-4.3479,-4.3479,-4.3479,-4.3479,-4.3479,-4.3479,-4.3479,-4.3479,-4.3479,-4.3479,-4.3479,-4.3479,-4.3479,-4.3479,-4.3479,-4.3479,-4.3479,-4.3479,-4.3479,-4.3479,-4.3479,-4.3479,-4.3534,-4.3644,-4.3699,-4.3993,-4.4378,-4.4635,-4.5149,-4.5847,-4.6654,-4.7186,-4.7553,-4.7609,-4.7829,-4.7884,-4.8177,-4.8344,-4.8421,-4.8532,-4.8692,-4.8863,-4.8963,-4.9029,-4.9158,-4.919,-4.9171,-4.9171,-4.9139,-4.9234,-4.9445,-4.958,-4.9561,-4.9645,-4.9617,-4.9475,-4.9416,-4.9356,-4.9416,-4.9636,-4.9819,-4.9765,-4.9746,-4.98,-4.9949,-5.0399,-5.0183,-4.98,-5.0043,-5.0336,-5.0483,-5.0644,-5.0483,-5.0442,-5.0544,-5.049,-5.0144,-4.9606,-4.8856,-4.9067,-3.5723,-3.5943,-3.6535,-3.6586,-3.6366,-3.7432,-3.7635,-3.733,-3.7297,-3.8345,-3.9681,-3.9377,-3.9394,-4.0053,-4.007,-4.0121,-4.0237,-4.0767,-4.1464,-4.2062,-4.2523,-4.2903,-4.3444,-4.3479,-4.3479,-4.3479,-4.3479,-4.3479,-4.3479,-4.3479,-4.3479,-4.3479,-4.3479,-4.3479,-4.3479,-4.3479,-4.3479,-4.3479,-4.3479,-4.3479,-4.3479,-4.3479,-4.3479,-4.3479,-4.3479,-4.3479,-4.3479,-4.3479,-4.3479,-4.3479,-4.3479,-4.3479,-4.3479,-4.3479,-4.3479,-4.3479,-4.3479,-4.3479,-4.3479,-4.3479,-4.3681,-4.3699,-4.3938,-4.4342,-4.4929,-4.5718,-4.6324,-4.6654,-4.704,-4.7334,-4.7702,-4.8107,-4.844,-4.8621,-4.8779,-4.9062,-4.9326,-4.9386,-4.9445,-4.9504,-4.9532,-4.958,-4.958,-4.9636,-4.9692,-4.98,-4.9924,-5.0019,-5.0249,-5.0272,-4.9898,-4.9773,-4.9551,-4.9608,-4.9819,-4.9993,-5.0019,-5.0159,-5.0294,-5.0421,-5.0523,-5.0377,-5.0206,-5.0399,-5.0624,-5.0683,-5.0683,-5.0663,-5.0663,-5.0683,-5.0337,-4.9913,-4.9086,-4.8298,-4.8721,-3.5639,-3.5673,-3.6079,-3.6028,-3.5825,-3.6552,-3.6823,-3.6738,-3.6434,-3.7347,-3.892,-3.8785,-3.9073,-3.9985,-4.007,-4.0336,-4.0497,-4.1041,-4.1664,-4.2324,-4.279,-4.316,-4.3375,-4.3479,-4.3479,-4.3479,-4.3479,-4.3479,-4.3479,-4.3479,-4.3479,-4.3479,-4.3479,-4.3479,-4.3479,-4.3479,-4.3479,-4.3479,-4.3479,-4.3479,-4.3479,-4.3479,-4.3479,-4.3479,-4.3479,-4.3479,-4.3479,-4.3479,-4.3479,-4.3479,-4.3479,-4.3479,-4.3479,-4.3479,-4.3479,-4.3479,-4.3479,-4.3479,-4.3479,-4.3479,-4.3479,-4.3479,-4.3497,-4.3975,-4.4044,-4.4851,-4.6067,-4.6474,-4.7233,-4.7585,-4.8412,-4.894,-4.9011,-4.9108,-4.9202,-4.9356,-4.97,-4.9974,-5.0068,-5.0159,-5.0183,-5.0183,-5.0183,-5.0183,-5.0249,-5.0249,-5.0358,-5.0336,-5.0565,-5.0683,-5.0377,-5.0159,-4.9968,-4.9993,-5.0291,-5.0399,-5.0421,-5.0565,-5.0683,-5.0663,-5.0604,-5.0663,-5.0683,-5.0683,-5.0683,-5.0683,-5.0683,-5.0683,-5.0683,-5.0683,-5.0202,-4.9644,-4.8721,-4.7894,-4.8144,-3.5639,-3.5639,-3.5639,-3.5639,-3.5639,-3.5656,-3.6011,-3.6434,-3.596,-3.6451,-3.7784,-3.8001,-3.888,-3.9678,-4.0254,-4.0625,-4.1013,-4.1446,-4.2021,-4.2422,-4.2826,-4.3214,-4.341,-4.3479,-4.3479,-4.3479,-4.3479,-4.3479,-4.3479,-4.3479,-4.3479,-4.3479,-4.3479,-4.3479,-4.3479,-4.3479,-4.3479,-4.3479,-4.3479,-4.3479,-4.3479,-4.3479,-4.3479,-4.3479,-4.3479,-4.3479,-4.3479,-4.3479,-4.3479,-4.3479,-4.3479,-4.3479,-4.3479,-4.3479,-4.3479,-4.3479,-4.3479,-4.3479,-4.3479,-4.3479,-4.3479,-4.3479,-4.3479,-4.3532,-4.3618,-4.4295,-4.5467,-4.6538,-4.7303,-4.7991,-4.8781,-4.9456,-4.9456,-4.9589,-4.9645,-4.9728,-5.0116,-5.0442,-5.0544,-5.0624,-5.0643,-5.0643,-5.0643,-5.0663,-5.0663,-5.0683,-5.0683,-5.0683,-5.0683,-5.0683,-5.0544,-5.0483,-5.0399,-5.0523,-5.0663,-5.0643,-5.0604,-5.0624,-5.0683,-5.0683,-5.0683,-5.0683,-5.0683,-5.0683,-5.0683,-5.0683,-5.0683,-5.0683,-5.0683,-5.0683,-5.0048,-4.9394,-4.849,-4.7778,-4.7528,-3.5639,-3.5639,-3.5639,-3.5639,-3.5639,-3.5639,-3.5707,-3.5808,-3.5723,-3.6163,-3.708,-3.8156,-3.9088,-3.9871,-4.0509,-4.107,-4.1639,-4.1979,-4.2244,-4.2693,-4.3105,-4.3339,-4.3463,-4.3479,-4.3479,-4.3479,-4.3479,-4.3479,-4.3479,-4.3479,-4.3479,-4.3479,-4.3479,-4.3479,-4.3479,-4.3479,-4.3479,-4.3479,-4.3479,-4.3479,-4.3479,-4.3479,-4.3479,-4.3479,-4.3479,-4.3479,-4.3479,-4.3479,-4.3479,-4.3479,-4.3479,-4.3479,-4.3479,-4.3479,-4.3479,-4.3479,-4.3479,-4.3479,-4.3479,-4.3479,-4.3479,-4.3479,-4.3479,-4.3548,-4.3682,-4.3873,-4.5177,-4.6675,-4.741,-4.7844,-4.8596,-4.9372,-4.9645,-4.9974,-5.0159,-5.0272,-5.0525,-5.0604,-5.0624,-5.0683,-5.0683,-5.0663,-5.0683,-5.0683,-5.0683,-5.0683,-5.0683,-5.0683,-5.0683,-5.0683,-5.0683,-5.0683,-5.0683,-5.0683,-5.0683,-5.0683,-5.0663,-5.0683,-5.0683,-5.0683,-5.0683,-5.0683,-5.0683,-5.0683,-5.0683,-5.0683,-5.0683,-5.0683,-5.0683,-5.0587,-4.9913,-4.9183,-4.8279,-4.7509,-4.7124]}]]